<?xml version="1.0" encoding="UTF-8" standalone="no" ?>
<gpx xmlns="http://www.topografix.com/GPX/1/1" xmlns:xsi="http://www.w3.org/2001/XMLSchema-instance" xsi:schemaLocation="http://www.topografix.com/GPX/1/1 http://www.topografix.com/GPX/1/1/gpx.xsd" version="1.1" creator="VisuGPX - https://www.visugpx.com">
  <metadata>
    <name>Circuit VTT Saint Léon  - Commarque</name>
    <desc><![CDATA[Circuit VTT en vallée Vézère]]></desc>
  </metadata>
  <trk>
    <name><![CDATA[Aller-retour Commarque]]></name>
    <desc><![CDATA[Sortie clients]]></desc>
    <trkseg>
      <trkpt lat="45.00147" lon="1.07237">
        <ele>69.800003051758</ele>
        <time>2011-08-17T06:50:00.000Z</time>
      </trkpt>
      <trkpt lat="45.00147" lon="1.07238">
        <ele>73</ele>
        <time>2011-08-17T06:50:02.000Z</time>
      </trkpt>
      <trkpt lat="45.00148" lon="1.0724">
        <ele>72.599998474121</ele>
        <time>2011-08-17T06:50:13.000Z</time>
      </trkpt>
      <trkpt lat="45.00156" lon="1.0721">
        <ele>73</ele>
        <time>2011-08-17T06:50:24.000Z</time>
      </trkpt>
      <trkpt lat="45.00158" lon="1.07206">
        <ele>73</ele>
        <time>2011-08-17T06:50:25.000Z</time>
      </trkpt>
      <trkpt lat="45.00175" lon="1.07156">
        <ele>74.599998474121</ele>
        <time>2011-08-17T06:50:38.000Z</time>
      </trkpt>
      <trkpt lat="45.00178" lon="1.07143">
        <ele>75</ele>
        <time>2011-08-17T06:50:42.000Z</time>
      </trkpt>
      <trkpt lat="45.00182" lon="1.07138">
        <ele>75</ele>
        <time>2011-08-17T06:50:45.000Z</time>
      </trkpt>
      <trkpt lat="45.0019" lon="1.07141">
        <ele>76</ele>
        <time>2011-08-17T06:50:59.000Z</time>
      </trkpt>
      <trkpt lat="45.00197" lon="1.07144">
        <ele>76</ele>
        <time>2011-08-17T06:51:36.000Z</time>
      </trkpt>
      <trkpt lat="45.00199" lon="1.07143">
        <ele>75.400001525879</ele>
        <time>2011-08-17T06:51:39.000Z</time>
      </trkpt>
      <trkpt lat="45.00203" lon="1.07151">
        <ele>75.400001525879</ele>
        <time>2011-08-17T06:51:44.000Z</time>
      </trkpt>
      <trkpt lat="45.00211" lon="1.07166">
        <ele>75.400001525879</ele>
        <time>2011-08-17T06:51:49.000Z</time>
      </trkpt>
      <trkpt lat="45.00213" lon="1.07209">
        <ele>74</ele>
        <time>2011-08-17T06:52:00.000Z</time>
      </trkpt>
      <trkpt lat="45.0021" lon="1.07228">
        <ele>74</ele>
        <time>2011-08-17T06:52:09.000Z</time>
      </trkpt>
      <trkpt lat="45.0021" lon="1.07224">
        <ele>74</ele>
        <time>2011-08-17T06:52:11.000Z</time>
      </trkpt>
      <trkpt lat="45.00206" lon="1.07221">
        <ele>74</ele>
        <time>2011-08-17T06:52:15.000Z</time>
      </trkpt>
      <trkpt lat="45.00179" lon="1.07218">
        <ele>73.599998474121</ele>
        <time>2011-08-17T06:52:27.000Z</time>
      </trkpt>
      <trkpt lat="45.0016" lon="1.07212">
        <ele>74</ele>
        <time>2011-08-17T06:52:37.000Z</time>
      </trkpt>
      <trkpt lat="45.00158" lon="1.0721">
        <ele>73.599998474121</ele>
        <time>2011-08-17T06:52:39.000Z</time>
      </trkpt>
      <trkpt lat="45.00167" lon="1.07178">
        <ele>74</ele>
        <time>2011-08-17T06:52:51.000Z</time>
      </trkpt>
      <trkpt lat="45.00173" lon="1.07163">
        <ele>74.599998474121</ele>
        <time>2011-08-17T06:53:01.000Z</time>
      </trkpt>
      <trkpt lat="45.00173" lon="1.07163">
        <ele>75</ele>
        <time>2011-08-17T06:53:17.000Z</time>
      </trkpt>
      <trkpt lat="45.00173" lon="1.07162">
        <ele>75.400001525879</ele>
        <time>2011-08-17T06:56:00.000Z</time>
      </trkpt>
      <trkpt lat="45.00173" lon="1.07162">
        <ele>75</ele>
        <time>2011-08-17T06:56:40.000Z</time>
      </trkpt>
      <trkpt lat="45.00175" lon="1.07159">
        <ele>76</ele>
        <time>2011-08-17T07:00:59.000Z</time>
      </trkpt>
      <trkpt lat="45.00173" lon="1.07159">
        <ele>75.400001525879</ele>
        <time>2011-08-17T07:06:28.000Z</time>
      </trkpt>
      <trkpt lat="45.00173" lon="1.07162">
        <ele>75.400001525879</ele>
        <time>2011-08-17T07:09:28.000Z</time>
      </trkpt>
      <trkpt lat="45.00173" lon="1.07159">
        <ele>74</ele>
        <time>2011-08-17T07:21:30.000Z</time>
      </trkpt>
      <trkpt lat="45.00174" lon="1.07158">
        <ele>73.599998474121</ele>
        <time>2011-08-17T07:24:23.000Z</time>
      </trkpt>
      <trkpt lat="45.00175" lon="1.0716">
        <ele>73.599998474121</ele>
        <time>2011-08-17T07:29:45.000Z</time>
      </trkpt>
      <trkpt lat="45.00175" lon="1.07158">
        <ele>74</ele>
        <time>2011-08-17T07:32:21.000Z</time>
      </trkpt>
      <trkpt lat="45.00172" lon="1.0716">
        <ele>74</ele>
        <time>2011-08-17T07:32:23.000Z</time>
      </trkpt>
      <trkpt lat="45.00157" lon="1.07213">
        <ele>72.599998474121</ele>
        <time>2011-08-17T07:32:36.000Z</time>
      </trkpt>
      <trkpt lat="45.00156" lon="1.07223">
        <ele>73</ele>
        <time>2011-08-17T07:32:38.000Z</time>
      </trkpt>
      <trkpt lat="45.00152" lon="1.07245">
        <ele>72.599998474121</ele>
        <time>2011-08-17T07:32:42.000Z</time>
      </trkpt>
      <trkpt lat="45.00151" lon="1.07325">
        <ele>72.199996948242</ele>
        <time>2011-08-17T07:32:57.000Z</time>
      </trkpt>
      <trkpt lat="45.00147" lon="1.07378">
        <ele>72.599998474121</ele>
        <time>2011-08-17T07:33:08.000Z</time>
      </trkpt>
      <trkpt lat="45.00138" lon="1.07441">
        <ele>72.199996948242</ele>
        <time>2011-08-17T07:33:21.000Z</time>
      </trkpt>
      <trkpt lat="45.00129" lon="1.07491">
        <ele>72.599998474121</ele>
        <time>2011-08-17T07:33:33.000Z</time>
      </trkpt>
      <trkpt lat="45.00124" lon="1.07511">
        <ele>72.199996948242</ele>
        <time>2011-08-17T07:33:40.000Z</time>
      </trkpt>
      <trkpt lat="45.00107" lon="1.07513">
        <ele>71.599998474121</ele>
        <time>2011-08-17T07:33:44.000Z</time>
      </trkpt>
      <trkpt lat="45.00067" lon="1.07497">
        <ele>71.199996948242</ele>
        <time>2011-08-17T07:33:53.000Z</time>
      </trkpt>
      <trkpt lat="45.00027" lon="1.07491">
        <ele>70.599998474121</ele>
        <time>2011-08-17T07:34:04.000Z</time>
      </trkpt>
      <trkpt lat="45.00019" lon="1.07489">
        <ele>70.599998474121</ele>
        <time>2011-08-17T07:34:06.000Z</time>
      </trkpt>
      <trkpt lat="44.99992" lon="1.07475">
        <ele>72.599998474121</ele>
        <time>2011-08-17T07:34:13.000Z</time>
      </trkpt>
      <trkpt lat="44.99952" lon="1.07462">
        <ele>72.599998474121</ele>
        <time>2011-08-17T07:34:22.000Z</time>
      </trkpt>
      <trkpt lat="44.99896" lon="1.07458">
        <ele>72.599998474121</ele>
        <time>2011-08-17T07:34:35.000Z</time>
      </trkpt>
      <trkpt lat="44.99887" lon="1.07458">
        <ele>72.599998474121</ele>
        <time>2011-08-17T07:34:37.000Z</time>
      </trkpt>
      <trkpt lat="44.9982" lon="1.07454">
        <ele>72.199996948242</ele>
        <time>2011-08-17T07:34:52.000Z</time>
      </trkpt>
      <trkpt lat="44.99766" lon="1.07446">
        <ele>72.199996948242</ele>
        <time>2011-08-17T07:35:05.000Z</time>
      </trkpt>
      <trkpt lat="44.99733" lon="1.07437">
        <ele>72.599998474121</ele>
        <time>2011-08-17T07:35:13.000Z</time>
      </trkpt>
      <trkpt lat="44.99718" lon="1.07433">
        <ele>72.599998474121</ele>
        <time>2011-08-17T07:35:17.000Z</time>
      </trkpt>
      <trkpt lat="44.99701" lon="1.0743">
        <ele>73</ele>
        <time>2011-08-17T07:35:21.000Z</time>
      </trkpt>
      <trkpt lat="44.99692" lon="1.07427">
        <ele>72.599998474121</ele>
        <time>2011-08-17T07:35:23.000Z</time>
      </trkpt>
      <trkpt lat="44.99627" lon="1.07412">
        <ele>72.599998474121</ele>
        <time>2011-08-17T07:35:37.000Z</time>
      </trkpt>
      <trkpt lat="44.99597" lon="1.07399">
        <ele>72.599998474121</ele>
        <time>2011-08-17T07:35:44.000Z</time>
      </trkpt>
      <trkpt lat="44.99541" lon="1.07386">
        <ele>71.599998474121</ele>
        <time>2011-08-17T07:35:56.000Z</time>
      </trkpt>
      <trkpt lat="44.99475" lon="1.07362">
        <ele>72.199996948242</ele>
        <time>2011-08-17T07:36:10.000Z</time>
      </trkpt>
      <trkpt lat="44.99457" lon="1.07351">
        <ele>71.599998474121</ele>
        <time>2011-08-17T07:36:14.000Z</time>
      </trkpt>
      <trkpt lat="44.99414" lon="1.07349">
        <ele>71.599998474121</ele>
        <time>2011-08-17T07:36:23.000Z</time>
      </trkpt>
      <trkpt lat="44.99392" lon="1.07341">
        <ele>71.599998474121</ele>
        <time>2011-08-17T07:36:28.000Z</time>
      </trkpt>
      <trkpt lat="44.99331" lon="1.0732">
        <ele>71.599998474121</ele>
        <time>2011-08-17T07:36:41.000Z</time>
      </trkpt>
      <trkpt lat="44.99292" lon="1.07307">
        <ele>71.199996948242</ele>
        <time>2011-08-17T07:36:49.000Z</time>
      </trkpt>
      <trkpt lat="44.99283" lon="1.07302">
        <ele>71.599998474121</ele>
        <time>2011-08-17T07:36:51.000Z</time>
      </trkpt>
      <trkpt lat="44.9927" lon="1.07292">
        <ele>70.599998474121</ele>
        <time>2011-08-17T07:36:54.000Z</time>
      </trkpt>
      <trkpt lat="44.99232" lon="1.07276">
        <ele>70.599998474121</ele>
        <time>2011-08-17T07:37:02.000Z</time>
      </trkpt>
      <trkpt lat="44.99167" lon="1.07239">
        <ele>71.199996948242</ele>
        <time>2011-08-17T07:37:17.000Z</time>
      </trkpt>
      <trkpt lat="44.99106" lon="1.07207">
        <ele>71.199996948242</ele>
        <time>2011-08-17T07:37:31.000Z</time>
      </trkpt>
      <trkpt lat="44.99084" lon="1.07194">
        <ele>70.599998474121</ele>
        <time>2011-08-17T07:37:36.000Z</time>
      </trkpt>
      <trkpt lat="44.99035" lon="1.07149">
        <ele>71.199996948242</ele>
        <time>2011-08-17T07:37:49.000Z</time>
      </trkpt>
      <trkpt lat="44.99017" lon="1.0713">
        <ele>71.199996948242</ele>
        <time>2011-08-17T07:37:54.000Z</time>
      </trkpt>
      <trkpt lat="44.99" lon="1.07095">
        <ele>71.199996948242</ele>
        <time>2011-08-17T07:38:01.000Z</time>
      </trkpt>
      <trkpt lat="44.99005" lon="1.07033">
        <ele>70.199996948242</ele>
        <time>2011-08-17T07:38:12.000Z</time>
      </trkpt>
      <trkpt lat="44.99016" lon="1.07023">
        <ele>70.599998474121</ele>
        <time>2011-08-17T07:38:15.000Z</time>
      </trkpt>
      <trkpt lat="44.99033" lon="1.06985">
        <ele>71.199996948242</ele>
        <time>2011-08-17T07:38:22.000Z</time>
      </trkpt>
      <trkpt lat="44.99038" lon="1.0696">
        <ele>71.599998474121</ele>
        <time>2011-08-17T07:38:26.000Z</time>
      </trkpt>
      <trkpt lat="44.99041" lon="1.06935">
        <ele>71.599998474121</ele>
        <time>2011-08-17T07:38:30.000Z</time>
      </trkpt>
      <trkpt lat="44.99052" lon="1.0686">
        <ele>71.199996948242</ele>
        <time>2011-08-17T07:38:42.000Z</time>
      </trkpt>
      <trkpt lat="44.99058" lon="1.06832">
        <ele>70.599998474121</ele>
        <time>2011-08-17T07:38:46.000Z</time>
      </trkpt>
      <trkpt lat="44.99065" lon="1.06804">
        <ele>71.199996948242</ele>
        <time>2011-08-17T07:38:50.000Z</time>
      </trkpt>
      <trkpt lat="44.99082" lon="1.06754">
        <ele>70.199996948242</ele>
        <time>2011-08-17T07:38:58.000Z</time>
      </trkpt>
      <trkpt lat="44.99092" lon="1.06726">
        <ele>70.599998474121</ele>
        <time>2011-08-17T07:39:03.000Z</time>
      </trkpt>
      <trkpt lat="44.99113" lon="1.06692">
        <ele>70.599998474121</ele>
        <time>2011-08-17T07:39:09.000Z</time>
      </trkpt>
      <trkpt lat="44.99122" lon="1.06666">
        <ele>71.199996948242</ele>
        <time>2011-08-17T07:39:13.000Z</time>
      </trkpt>
      <trkpt lat="44.99127" lon="1.06646">
        <ele>70.599998474121</ele>
        <time>2011-08-17T07:39:16.000Z</time>
      </trkpt>
      <trkpt lat="44.9913" lon="1.06633">
        <ele>70.599998474121</ele>
        <time>2011-08-17T07:39:18.000Z</time>
      </trkpt>
      <trkpt lat="44.99141" lon="1.0659">
        <ele>70.599998474121</ele>
        <time>2011-08-17T07:39:25.000Z</time>
      </trkpt>
      <trkpt lat="44.99152" lon="1.06491">
        <ele>70.599998474121</ele>
        <time>2011-08-17T07:39:39.000Z</time>
      </trkpt>
      <trkpt lat="44.99155" lon="1.06478">
        <ele>70.599998474121</ele>
        <time>2011-08-17T07:39:41.000Z</time>
      </trkpt>
      <trkpt lat="44.99158" lon="1.06453">
        <ele>71.199996948242</ele>
        <time>2011-08-17T07:39:45.000Z</time>
      </trkpt>
      <trkpt lat="44.9916" lon="1.06435">
        <ele>70.599998474121</ele>
        <time>2011-08-17T07:39:48.000Z</time>
      </trkpt>
      <trkpt lat="44.99173" lon="1.06378">
        <ele>70.599998474121</ele>
        <time>2011-08-17T07:39:57.000Z</time>
      </trkpt>
      <trkpt lat="44.99177" lon="1.06356">
        <ele>70.599998474121</ele>
        <time>2011-08-17T07:40:00.000Z</time>
      </trkpt>
      <trkpt lat="44.99182" lon="1.06329">
        <ele>70.599998474121</ele>
        <time>2011-08-17T07:40:04.000Z</time>
      </trkpt>
      <trkpt lat="44.99188" lon="1.06284">
        <ele>71.199996948242</ele>
        <time>2011-08-17T07:40:11.000Z</time>
      </trkpt>
      <trkpt lat="44.99195" lon="1.06219">
        <ele>70.599998474121</ele>
        <time>2011-08-17T07:40:21.000Z</time>
      </trkpt>
      <trkpt lat="44.9919" lon="1.06189">
        <ele>70.199996948242</ele>
        <time>2011-08-17T07:40:26.000Z</time>
      </trkpt>
      <trkpt lat="44.99185" lon="1.06174">
        <ele>69.199996948242</ele>
        <time>2011-08-17T07:40:30.000Z</time>
      </trkpt>
      <trkpt lat="44.99191" lon="1.06134">
        <ele>70.599998474121</ele>
        <time>2011-08-17T07:40:37.000Z</time>
      </trkpt>
      <trkpt lat="44.99193" lon="1.06082">
        <ele>70.599998474121</ele>
        <time>2011-08-17T07:40:46.000Z</time>
      </trkpt>
      <trkpt lat="44.99192" lon="1.06056">
        <ele>70.599998474121</ele>
        <time>2011-08-17T07:40:50.000Z</time>
      </trkpt>
      <trkpt lat="44.99192" lon="1.06025">
        <ele>71.199996948242</ele>
        <time>2011-08-17T07:40:55.000Z</time>
      </trkpt>
      <trkpt lat="44.99187" lon="1.05972">
        <ele>70.599998474121</ele>
        <time>2011-08-17T07:41:03.000Z</time>
      </trkpt>
      <trkpt lat="44.9918" lon="1.05902">
        <ele>70.599998474121</ele>
        <time>2011-08-17T07:41:15.000Z</time>
      </trkpt>
      <trkpt lat="44.99179" lon="1.05875">
        <ele>70.599998474121</ele>
        <time>2011-08-17T07:41:20.000Z</time>
      </trkpt>
      <trkpt lat="44.99188" lon="1.05852">
        <ele>70.599998474121</ele>
        <time>2011-08-17T07:41:25.000Z</time>
      </trkpt>
      <trkpt lat="44.99201" lon="1.05847">
        <ele>70.599998474121</ele>
        <time>2011-08-17T07:41:28.000Z</time>
      </trkpt>
      <trkpt lat="44.99209" lon="1.05829">
        <ele>70.599998474121</ele>
        <time>2011-08-17T07:41:32.000Z</time>
      </trkpt>
      <trkpt lat="44.99212" lon="1.05765">
        <ele>71.199996948242</ele>
        <time>2011-08-17T07:41:42.000Z</time>
      </trkpt>
      <trkpt lat="44.99212" lon="1.05748">
        <ele>70.599998474121</ele>
        <time>2011-08-17T07:41:45.000Z</time>
      </trkpt>
      <trkpt lat="44.9923" lon="1.0568">
        <ele>69.800003051758</ele>
        <time>2011-08-17T07:41:56.000Z</time>
      </trkpt>
      <trkpt lat="44.99235" lon="1.05613">
        <ele>69.800003051758</ele>
        <time>2011-08-17T07:42:07.000Z</time>
      </trkpt>
      <trkpt lat="44.99237" lon="1.05588">
        <ele>70.599998474121</ele>
        <time>2011-08-17T07:42:11.000Z</time>
      </trkpt>
      <trkpt lat="44.99266" lon="1.0552">
        <ele>72.599998474121</ele>
        <time>2011-08-17T07:42:26.000Z</time>
      </trkpt>
      <trkpt lat="44.99276" lon="1.05503">
        <ele>74.599998474121</ele>
        <time>2011-08-17T07:42:31.000Z</time>
      </trkpt>
      <trkpt lat="44.99256" lon="1.05466">
        <ele>78</ele>
        <time>2011-08-17T07:42:41.000Z</time>
      </trkpt>
      <trkpt lat="44.99223" lon="1.05422">
        <ele>78.800003051758</ele>
        <time>2011-08-17T07:42:53.000Z</time>
      </trkpt>
      <trkpt lat="44.99212" lon="1.05409">
        <ele>79.400001525879</ele>
        <time>2011-08-17T07:42:57.000Z</time>
      </trkpt>
      <trkpt lat="44.99181" lon="1.05352">
        <ele>79.800003051758</ele>
        <time>2011-08-17T07:43:09.000Z</time>
      </trkpt>
      <trkpt lat="44.99169" lon="1.05307">
        <ele>78.800003051758</ele>
        <time>2011-08-17T07:43:16.000Z</time>
      </trkpt>
      <trkpt lat="44.99191" lon="1.05266">
        <ele>81.800003051758</ele>
        <time>2011-08-17T07:43:26.000Z</time>
      </trkpt>
      <trkpt lat="44.99198" lon="1.05256">
        <ele>83.199996948242</ele>
        <time>2011-08-17T07:43:29.000Z</time>
      </trkpt>
      <trkpt lat="44.99218" lon="1.05222">
        <ele>85.199996948242</ele>
        <time>2011-08-17T07:43:39.000Z</time>
      </trkpt>
      <trkpt lat="44.99234" lon="1.05198">
        <ele>86.599998474121</ele>
        <time>2011-08-17T07:43:47.000Z</time>
      </trkpt>
      <trkpt lat="44.99259" lon="1.05176">
        <ele>88.400001525879</ele>
        <time>2011-08-17T07:43:56.000Z</time>
      </trkpt>
      <trkpt lat="44.99296" lon="1.05143">
        <ele>88.400001525879</ele>
        <time>2011-08-17T07:44:07.000Z</time>
      </trkpt>
      <trkpt lat="44.99306" lon="1.05131">
        <ele>88</ele>
        <time>2011-08-17T07:44:10.000Z</time>
      </trkpt>
      <trkpt lat="44.99324" lon="1.05114">
        <ele>88</ele>
        <time>2011-08-17T07:44:14.000Z</time>
      </trkpt>
      <trkpt lat="44.99333" lon="1.05105">
        <ele>87.599998474121</ele>
        <time>2011-08-17T07:44:16.000Z</time>
      </trkpt>
      <trkpt lat="44.99348" lon="1.05093">
        <ele>87</ele>
        <time>2011-08-17T07:44:19.000Z</time>
      </trkpt>
      <trkpt lat="44.99398" lon="1.05045">
        <ele>88.400001525879</ele>
        <time>2011-08-17T07:44:33.000Z</time>
      </trkpt>
      <trkpt lat="44.99428" lon="1.05019">
        <ele>89.400001525879</ele>
        <time>2011-08-17T07:44:43.000Z</time>
      </trkpt>
      <trkpt lat="44.99437" lon="1.05015">
        <ele>90</ele>
        <time>2011-08-17T07:44:45.000Z</time>
      </trkpt>
      <trkpt lat="44.99477" lon="1.0499">
        <ele>90.400001525879</ele>
        <time>2011-08-17T07:44:57.000Z</time>
      </trkpt>
      <trkpt lat="44.9948" lon="1.04988">
        <ele>90.800003051758</ele>
        <time>2011-08-17T07:44:58.000Z</time>
      </trkpt>
      <trkpt lat="44.99496" lon="1.04981">
        <ele>91.800003051758</ele>
        <time>2011-08-17T07:45:03.000Z</time>
      </trkpt>
      <trkpt lat="44.99531" lon="1.04966">
        <ele>95.199996948242</ele>
        <time>2011-08-17T07:45:12.000Z</time>
      </trkpt>
      <trkpt lat="44.99548" lon="1.04958">
        <ele>96.199996948242</ele>
        <time>2011-08-17T07:45:17.000Z</time>
      </trkpt>
      <trkpt lat="44.99561" lon="1.04954">
        <ele>97.599998474121</ele>
        <time>2011-08-17T07:45:21.000Z</time>
      </trkpt>
      <trkpt lat="44.99581" lon="1.04937">
        <ele>98.599998474121</ele>
        <time>2011-08-17T07:45:27.000Z</time>
      </trkpt>
      <trkpt lat="44.99597" lon="1.04929">
        <ele>98.599998474121</ele>
        <time>2011-08-17T07:45:31.000Z</time>
      </trkpt>
      <trkpt lat="44.9962" lon="1.04913">
        <ele>98</ele>
        <time>2011-08-17T07:45:37.000Z</time>
      </trkpt>
      <trkpt lat="44.9964" lon="1.049">
        <ele>98</ele>
        <time>2011-08-17T07:45:42.000Z</time>
      </trkpt>
      <trkpt lat="44.99675" lon="1.04865">
        <ele>100.40000152588</ele>
        <time>2011-08-17T07:45:52.000Z</time>
      </trkpt>
      <trkpt lat="44.99709" lon="1.04828">
        <ele>102.40000152588</ele>
        <time>2011-08-17T07:46:05.000Z</time>
      </trkpt>
      <trkpt lat="44.99713" lon="1.04824">
        <ele>103</ele>
        <time>2011-08-17T07:46:06.000Z</time>
      </trkpt>
      <trkpt lat="44.9973" lon="1.04799">
        <ele>105.40000152588</ele>
        <time>2011-08-17T07:46:13.000Z</time>
      </trkpt>
      <trkpt lat="44.99735" lon="1.0479">
        <ele>106.19999694824</ele>
        <time>2011-08-17T07:46:15.000Z</time>
      </trkpt>
      <trkpt lat="44.99741" lon="1.04748">
        <ele>106.19999694824</ele>
        <time>2011-08-17T07:46:25.000Z</time>
      </trkpt>
      <trkpt lat="44.99741" lon="1.04729">
        <ele>108.19999694824</ele>
        <time>2011-08-17T07:46:30.000Z</time>
      </trkpt>
      <trkpt lat="44.99742" lon="1.04722">
        <ele>108.59999847412</ele>
        <time>2011-08-17T07:46:32.000Z</time>
      </trkpt>
      <trkpt lat="44.99742" lon="1.0472">
        <ele>108.59999847412</ele>
        <time>2011-08-17T07:46:33.000Z</time>
      </trkpt>
      <trkpt lat="44.99745" lon="1.04701">
        <ele>111.59999847412</ele>
        <time>2011-08-17T07:46:43.000Z</time>
      </trkpt>
      <trkpt lat="44.99739" lon="1.04707">
        <ele>112.59999847412</ele>
        <time>2011-08-17T07:46:48.000Z</time>
      </trkpt>
      <trkpt lat="44.99724" lon="1.04714">
        <ele>114</ele>
        <time>2011-08-17T07:46:56.000Z</time>
      </trkpt>
      <trkpt lat="44.99719" lon="1.04722">
        <ele>114</ele>
        <time>2011-08-17T07:47:02.000Z</time>
      </trkpt>
      <trkpt lat="44.99709" lon="1.04738">
        <ele>114</ele>
        <time>2011-08-17T07:47:06.000Z</time>
      </trkpt>
      <trkpt lat="44.99673" lon="1.04772">
        <ele>115.40000152588</ele>
        <time>2011-08-17T07:47:17.000Z</time>
      </trkpt>
      <trkpt lat="44.9966" lon="1.04784">
        <ele>116.40000152588</ele>
        <time>2011-08-17T07:47:27.000Z</time>
      </trkpt>
      <trkpt lat="44.9966" lon="1.04786">
        <ele>116.40000152588</ele>
        <time>2011-08-17T07:47:55.000Z</time>
      </trkpt>
      <trkpt lat="44.99659" lon="1.04789">
        <ele>115.80000305176</ele>
        <time>2011-08-17T07:49:44.000Z</time>
      </trkpt>
      <trkpt lat="44.99656" lon="1.04792">
        <ele>115.80000305176</ele>
        <time>2011-08-17T07:53:52.000Z</time>
      </trkpt>
      <trkpt lat="44.99656" lon="1.04793">
        <ele>116.40000152588</ele>
        <time>2011-08-17T07:54:58.000Z</time>
      </trkpt>
      <trkpt lat="44.99655" lon="1.04792">
        <ele>116.40000152588</ele>
        <time>2011-08-17T07:55:49.000Z</time>
      </trkpt>
      <trkpt lat="44.99651" lon="1.04796">
        <ele>116.80000305176</ele>
        <time>2011-08-17T07:56:10.000Z</time>
      </trkpt>
      <trkpt lat="44.99648" lon="1.04797">
        <ele>116.80000305176</ele>
        <time>2011-08-17T07:56:11.000Z</time>
      </trkpt>
      <trkpt lat="44.99625" lon="1.04796">
        <ele>116.80000305176</ele>
        <time>2011-08-17T07:56:19.000Z</time>
      </trkpt>
      <trkpt lat="44.99622" lon="1.04794">
        <ele>116.80000305176</ele>
        <time>2011-08-17T07:56:20.000Z</time>
      </trkpt>
      <trkpt lat="44.99613" lon="1.04786">
        <ele>116.80000305176</ele>
        <time>2011-08-17T07:56:25.000Z</time>
      </trkpt>
      <trkpt lat="44.99587" lon="1.04795">
        <ele>117.40000152588</ele>
        <time>2011-08-17T07:56:34.000Z</time>
      </trkpt>
      <trkpt lat="44.99572" lon="1.04812">
        <ele>118.19999694824</ele>
        <time>2011-08-17T07:56:39.000Z</time>
      </trkpt>
      <trkpt lat="44.99538" lon="1.04842">
        <ele>118.19999694824</ele>
        <time>2011-08-17T07:56:50.000Z</time>
      </trkpt>
      <trkpt lat="44.99533" lon="1.04843">
        <ele>118.19999694824</ele>
        <time>2011-08-17T07:56:51.000Z</time>
      </trkpt>
      <trkpt lat="44.99525" lon="1.04845">
        <ele>118.80000305176</ele>
        <time>2011-08-17T07:56:53.000Z</time>
      </trkpt>
      <trkpt lat="44.9948" lon="1.04857">
        <ele>119.19999694824</ele>
        <time>2011-08-17T07:57:05.000Z</time>
      </trkpt>
      <trkpt lat="44.99442" lon="1.04855">
        <ele>120.19999694824</ele>
        <time>2011-08-17T07:57:16.000Z</time>
      </trkpt>
      <trkpt lat="44.99427" lon="1.04848">
        <ele>120.19999694824</ele>
        <time>2011-08-17T07:57:22.000Z</time>
      </trkpt>
      <trkpt lat="44.99387" lon="1.04859">
        <ele>121.19999694824</ele>
        <time>2011-08-17T07:57:33.000Z</time>
      </trkpt>
      <trkpt lat="44.99351" lon="1.04884">
        <ele>121.59999847412</ele>
        <time>2011-08-17T07:57:44.000Z</time>
      </trkpt>
      <trkpt lat="44.99326" lon="1.04894">
        <ele>123.59999847412</ele>
        <time>2011-08-17T07:57:51.000Z</time>
      </trkpt>
      <trkpt lat="44.99299" lon="1.04909">
        <ele>124</ele>
        <time>2011-08-17T07:57:59.000Z</time>
      </trkpt>
      <trkpt lat="44.99274" lon="1.04923">
        <ele>125</ele>
        <time>2011-08-17T07:58:08.000Z</time>
      </trkpt>
      <trkpt lat="44.9927" lon="1.04923">
        <ele>125</ele>
        <time>2011-08-17T07:58:11.000Z</time>
      </trkpt>
      <trkpt lat="44.99233" lon="1.04935">
        <ele>126</ele>
        <time>2011-08-17T07:58:22.000Z</time>
      </trkpt>
      <trkpt lat="44.99202" lon="1.04956">
        <ele>124.59999847412</ele>
        <time>2011-08-17T07:58:31.000Z</time>
      </trkpt>
      <trkpt lat="44.99192" lon="1.0497">
        <ele>123</ele>
        <time>2011-08-17T07:58:34.000Z</time>
      </trkpt>
      <trkpt lat="44.99178" lon="1.04985">
        <ele>121.59999847412</ele>
        <time>2011-08-17T07:58:38.000Z</time>
      </trkpt>
      <trkpt lat="44.99164" lon="1.04983">
        <ele>124</ele>
        <time>2011-08-17T07:58:43.000Z</time>
      </trkpt>
      <trkpt lat="44.99125" lon="1.04994">
        <ele>127</ele>
        <time>2011-08-17T07:58:55.000Z</time>
      </trkpt>
      <trkpt lat="44.991" lon="1.05011">
        <ele>127.80000305176</ele>
        <time>2011-08-17T07:59:04.000Z</time>
      </trkpt>
      <trkpt lat="44.99053" lon="1.05085">
        <ele>125.40000152588</ele>
        <time>2011-08-17T07:59:18.000Z</time>
      </trkpt>
      <trkpt lat="44.99024" lon="1.05137">
        <ele>124.59999847412</ele>
        <time>2011-08-17T07:59:27.000Z</time>
      </trkpt>
      <trkpt lat="44.9901" lon="1.05164">
        <ele>124</ele>
        <time>2011-08-17T07:59:33.000Z</time>
      </trkpt>
      <trkpt lat="44.98994" lon="1.05176">
        <ele>122.59999847412</ele>
        <time>2011-08-17T07:59:37.000Z</time>
      </trkpt>
      <trkpt lat="44.98957" lon="1.05173">
        <ele>126</ele>
        <time>2011-08-17T07:59:45.000Z</time>
      </trkpt>
      <trkpt lat="44.98909" lon="1.05175">
        <ele>128.39999389648</ele>
        <time>2011-08-17T07:59:58.000Z</time>
      </trkpt>
      <trkpt lat="44.98868" lon="1.05168">
        <ele>125.40000152588</ele>
        <time>2011-08-17T08:00:09.000Z</time>
      </trkpt>
      <trkpt lat="44.98862" lon="1.05168">
        <ele>124.59999847412</ele>
        <time>2011-08-17T08:00:10.000Z</time>
      </trkpt>
      <trkpt lat="44.98844" lon="1.0513">
        <ele>120.19999694824</ele>
        <time>2011-08-17T08:00:16.000Z</time>
      </trkpt>
      <trkpt lat="44.98828" lon="1.0511">
        <ele>120.19999694824</ele>
        <time>2011-08-17T08:00:19.000Z</time>
      </trkpt>
      <trkpt lat="44.98815" lon="1.05101">
        <ele>119.80000305176</ele>
        <time>2011-08-17T08:00:21.000Z</time>
      </trkpt>
      <trkpt lat="44.9878" lon="1.05094">
        <ele>119.80000305176</ele>
        <time>2011-08-17T08:00:26.000Z</time>
      </trkpt>
      <trkpt lat="44.98735" lon="1.05104">
        <ele>117.80000305176</ele>
        <time>2011-08-17T08:00:33.000Z</time>
      </trkpt>
      <trkpt lat="44.98722" lon="1.0511">
        <ele>116.40000152588</ele>
        <time>2011-08-17T08:00:35.000Z</time>
      </trkpt>
      <trkpt lat="44.98711" lon="1.05118">
        <ele>115.40000152588</ele>
        <time>2011-08-17T08:00:37.000Z</time>
      </trkpt>
      <trkpt lat="44.98692" lon="1.05145">
        <ele>112.59999847412</ele>
        <time>2011-08-17T08:00:41.000Z</time>
      </trkpt>
      <trkpt lat="44.9868" lon="1.0516">
        <ele>110.59999847412</ele>
        <time>2011-08-17T08:00:43.000Z</time>
      </trkpt>
      <trkpt lat="44.98644" lon="1.05173">
        <ele>107.80000305176</ele>
        <time>2011-08-17T08:00:48.000Z</time>
      </trkpt>
      <trkpt lat="44.98634" lon="1.05171">
        <ele>106.80000305176</ele>
        <time>2011-08-17T08:00:49.000Z</time>
      </trkpt>
      <trkpt lat="44.98615" lon="1.05166">
        <ele>104.40000152588</ele>
        <time>2011-08-17T08:00:51.000Z</time>
      </trkpt>
      <trkpt lat="44.98586" lon="1.05144">
        <ele>99</ele>
        <time>2011-08-17T08:00:55.000Z</time>
      </trkpt>
      <trkpt lat="44.98578" lon="1.05123">
        <ele>97.599998474121</ele>
        <time>2011-08-17T08:00:57.000Z</time>
      </trkpt>
      <trkpt lat="44.98574" lon="1.05058">
        <ele>93.199996948242</ele>
        <time>2011-08-17T08:01:02.000Z</time>
      </trkpt>
      <trkpt lat="44.98583" lon="1.05015">
        <ele>89</ele>
        <time>2011-08-17T08:01:06.000Z</time>
      </trkpt>
      <trkpt lat="44.98588" lon="1.04999">
        <ele>87</ele>
        <time>2011-08-17T08:01:09.000Z</time>
      </trkpt>
      <trkpt lat="44.98577" lon="1.04996">
        <ele>83.599998474121</ele>
        <time>2011-08-17T08:01:14.000Z</time>
      </trkpt>
      <trkpt lat="44.98543" lon="1.05029">
        <ele>79.400001525879</ele>
        <time>2011-08-17T08:01:19.000Z</time>
      </trkpt>
      <trkpt lat="44.9853" lon="1.05044">
        <ele>76.400001525879</ele>
        <time>2011-08-17T08:01:21.000Z</time>
      </trkpt>
      <trkpt lat="44.98517" lon="1.05068">
        <ele>74</ele>
        <time>2011-08-17T08:01:24.000Z</time>
      </trkpt>
      <trkpt lat="44.98505" lon="1.0509">
        <ele>72.599998474121</ele>
        <time>2011-08-17T08:01:27.000Z</time>
      </trkpt>
      <trkpt lat="44.98495" lon="1.05091">
        <ele>72.599998474121</ele>
        <time>2011-08-17T08:01:29.000Z</time>
      </trkpt>
      <trkpt lat="44.98454" lon="1.05078">
        <ele>72.599998474121</ele>
        <time>2011-08-17T08:01:39.000Z</time>
      </trkpt>
      <trkpt lat="44.98453" lon="1.05077">
        <ele>72.199996948242</ele>
        <time>2011-08-17T08:02:09.000Z</time>
      </trkpt>
      <trkpt lat="44.9845" lon="1.05063">
        <ele>71.199996948242</ele>
        <time>2011-08-17T08:02:14.000Z</time>
      </trkpt>
      <trkpt lat="44.98452" lon="1.05059">
        <ele>71.199996948242</ele>
        <time>2011-08-17T08:02:16.000Z</time>
      </trkpt>
      <trkpt lat="44.98444" lon="1.05038">
        <ele>72.199996948242</ele>
        <time>2011-08-17T08:02:23.000Z</time>
      </trkpt>
      <trkpt lat="44.98445" lon="1.05028">
        <ele>72.199996948242</ele>
        <time>2011-08-17T08:02:27.000Z</time>
      </trkpt>
      <trkpt lat="44.98447" lon="1.04997">
        <ele>73.599998474121</ele>
        <time>2011-08-17T08:02:38.000Z</time>
      </trkpt>
      <trkpt lat="44.98458" lon="1.04978">
        <ele>73.599998474121</ele>
        <time>2011-08-17T08:02:50.000Z</time>
      </trkpt>
      <trkpt lat="44.98476" lon="1.04965">
        <ele>73.599998474121</ele>
        <time>2011-08-17T08:03:03.000Z</time>
      </trkpt>
      <trkpt lat="44.98481" lon="1.04959">
        <ele>73.599998474121</ele>
        <time>2011-08-17T08:03:06.000Z</time>
      </trkpt>
      <trkpt lat="44.98493" lon="1.04942">
        <ele>74</ele>
        <time>2011-08-17T08:03:14.000Z</time>
      </trkpt>
      <trkpt lat="44.98498" lon="1.04936">
        <ele>74</ele>
        <time>2011-08-17T08:03:20.000Z</time>
      </trkpt>
      <trkpt lat="44.98512" lon="1.0492">
        <ele>74.599998474121</ele>
        <time>2011-08-17T08:03:32.000Z</time>
      </trkpt>
      <trkpt lat="44.9852" lon="1.0491">
        <ele>76.400001525879</ele>
        <time>2011-08-17T08:03:43.000Z</time>
      </trkpt>
      <trkpt lat="44.98534" lon="1.04892">
        <ele>78</ele>
        <time>2011-08-17T08:03:52.000Z</time>
      </trkpt>
      <trkpt lat="44.98546" lon="1.04877">
        <ele>78</ele>
        <time>2011-08-17T08:04:01.000Z</time>
      </trkpt>
      <trkpt lat="44.98552" lon="1.04873">
        <ele>78</ele>
        <time>2011-08-17T08:04:04.000Z</time>
      </trkpt>
      <trkpt lat="44.98558" lon="1.04871">
        <ele>78</ele>
        <time>2011-08-17T08:04:07.000Z</time>
      </trkpt>
      <trkpt lat="44.98574" lon="1.04857">
        <ele>78</ele>
        <time>2011-08-17T08:04:15.000Z</time>
      </trkpt>
      <trkpt lat="44.98594" lon="1.0483">
        <ele>80.800003051758</ele>
        <time>2011-08-17T08:04:28.000Z</time>
      </trkpt>
      <trkpt lat="44.98598" lon="1.04823">
        <ele>81.800003051758</ele>
        <time>2011-08-17T08:04:37.000Z</time>
      </trkpt>
      <trkpt lat="44.986" lon="1.04822">
        <ele>81.199996948242</ele>
        <time>2011-08-17T08:04:38.000Z</time>
      </trkpt>
      <trkpt lat="44.9862" lon="1.04809">
        <ele>78.400001525879</ele>
        <time>2011-08-17T08:04:44.000Z</time>
      </trkpt>
      <trkpt lat="44.98623" lon="1.04806">
        <ele>78.400001525879</ele>
        <time>2011-08-17T08:04:45.000Z</time>
      </trkpt>
      <trkpt lat="44.98628" lon="1.04802">
        <ele>78</ele>
        <time>2011-08-17T08:04:48.000Z</time>
      </trkpt>
      <trkpt lat="44.98636" lon="1.04793">
        <ele>78.400001525879</ele>
        <time>2011-08-17T08:04:52.000Z</time>
      </trkpt>
      <trkpt lat="44.98695" lon="1.04735">
        <ele>78.400001525879</ele>
        <time>2011-08-17T08:05:03.000Z</time>
      </trkpt>
      <trkpt lat="44.98714" lon="1.04705">
        <ele>79.400001525879</ele>
        <time>2011-08-17T08:05:15.000Z</time>
      </trkpt>
      <trkpt lat="44.98719" lon="1.04689">
        <ele>79.800003051758</ele>
        <time>2011-08-17T08:05:21.000Z</time>
      </trkpt>
      <trkpt lat="44.98723" lon="1.0468">
        <ele>80.800003051758</ele>
        <time>2011-08-17T08:05:26.000Z</time>
      </trkpt>
      <trkpt lat="44.98723" lon="1.04678">
        <ele>81.199996948242</ele>
        <time>2011-08-17T08:05:27.000Z</time>
      </trkpt>
      <trkpt lat="44.98722" lon="1.04674">
        <ele>82.199996948242</ele>
        <time>2011-08-17T08:05:29.000Z</time>
      </trkpt>
      <trkpt lat="44.98727" lon="1.04657">
        <ele>84.199996948242</ele>
        <time>2011-08-17T08:05:37.000Z</time>
      </trkpt>
      <trkpt lat="44.98731" lon="1.04645">
        <ele>83.599998474121</ele>
        <time>2011-08-17T08:05:42.000Z</time>
      </trkpt>
      <trkpt lat="44.98733" lon="1.04632">
        <ele>84.199996948242</ele>
        <time>2011-08-17T08:05:46.000Z</time>
      </trkpt>
      <trkpt lat="44.98737" lon="1.04619">
        <ele>84.599998474121</ele>
        <time>2011-08-17T08:05:52.000Z</time>
      </trkpt>
      <trkpt lat="44.98741" lon="1.04578">
        <ele>85.199996948242</ele>
        <time>2011-08-17T08:06:02.000Z</time>
      </trkpt>
      <trkpt lat="44.98742" lon="1.04575">
        <ele>85.199996948242</ele>
        <time>2011-08-17T08:06:03.000Z</time>
      </trkpt>
      <trkpt lat="44.98744" lon="1.04573">
        <ele>85.199996948242</ele>
        <time>2011-08-17T08:06:04.000Z</time>
      </trkpt>
      <trkpt lat="44.98745" lon="1.04572">
        <ele>85.199996948242</ele>
        <time>2011-08-17T08:06:05.000Z</time>
      </trkpt>
      <trkpt lat="44.98752" lon="1.04549">
        <ele>85.199996948242</ele>
        <time>2011-08-17T08:06:11.000Z</time>
      </trkpt>
      <trkpt lat="44.98754" lon="1.04546">
        <ele>85.199996948242</ele>
        <time>2011-08-17T08:06:12.000Z</time>
      </trkpt>
      <trkpt lat="44.98765" lon="1.04512">
        <ele>86</ele>
        <time>2011-08-17T08:06:22.000Z</time>
      </trkpt>
      <trkpt lat="44.98765" lon="1.04505">
        <ele>86</ele>
        <time>2011-08-17T08:06:24.000Z</time>
      </trkpt>
      <trkpt lat="44.98771" lon="1.04494">
        <ele>86.599998474121</ele>
        <time>2011-08-17T08:06:29.000Z</time>
      </trkpt>
      <trkpt lat="44.98777" lon="1.04483">
        <ele>87</ele>
        <time>2011-08-17T08:06:33.000Z</time>
      </trkpt>
      <trkpt lat="44.98786" lon="1.04467">
        <ele>87.599998474121</ele>
        <time>2011-08-17T08:06:39.000Z</time>
      </trkpt>
      <trkpt lat="44.98818" lon="1.0445">
        <ele>87</ele>
        <time>2011-08-17T08:06:49.000Z</time>
      </trkpt>
      <trkpt lat="44.98831" lon="1.04433">
        <ele>87.599998474121</ele>
        <time>2011-08-17T08:06:58.000Z</time>
      </trkpt>
      <trkpt lat="44.98833" lon="1.04419">
        <ele>90.800003051758</ele>
        <time>2011-08-17T08:07:06.000Z</time>
      </trkpt>
      <trkpt lat="44.98836" lon="1.04409">
        <ele>91.400001525879</ele>
        <time>2011-08-17T08:07:10.000Z</time>
      </trkpt>
      <trkpt lat="44.98856" lon="1.04401">
        <ele>90.400001525879</ele>
        <time>2011-08-17T08:07:18.000Z</time>
      </trkpt>
      <trkpt lat="44.9886" lon="1.04399">
        <ele>90</ele>
        <time>2011-08-17T08:07:19.000Z</time>
      </trkpt>
      <trkpt lat="44.98869" lon="1.04394">
        <ele>90</ele>
        <time>2011-08-17T08:07:23.000Z</time>
      </trkpt>
      <trkpt lat="44.98873" lon="1.04387">
        <ele>90.400001525879</ele>
        <time>2011-08-17T08:07:27.000Z</time>
      </trkpt>
      <trkpt lat="44.98883" lon="1.04381">
        <ele>90.800003051758</ele>
        <time>2011-08-17T08:07:32.000Z</time>
      </trkpt>
      <trkpt lat="44.98885" lon="1.04379">
        <ele>90.800003051758</ele>
        <time>2011-08-17T08:07:33.000Z</time>
      </trkpt>
      <trkpt lat="44.98906" lon="1.04351">
        <ele>90.800003051758</ele>
        <time>2011-08-17T08:07:45.000Z</time>
      </trkpt>
      <trkpt lat="44.98927" lon="1.04325">
        <ele>91.400001525879</ele>
        <time>2011-08-17T08:07:55.000Z</time>
      </trkpt>
      <trkpt lat="44.98933" lon="1.04316">
        <ele>91.800003051758</ele>
        <time>2011-08-17T08:07:58.000Z</time>
      </trkpt>
      <trkpt lat="44.98939" lon="1.0429">
        <ele>95.199996948242</ele>
        <time>2011-08-17T08:08:07.000Z</time>
      </trkpt>
      <trkpt lat="44.98943" lon="1.04279">
        <ele>96.199996948242</ele>
        <time>2011-08-17T08:08:10.000Z</time>
      </trkpt>
      <trkpt lat="44.98933" lon="1.04262">
        <ele>98</ele>
        <time>2011-08-17T08:08:17.000Z</time>
      </trkpt>
      <trkpt lat="44.98941" lon="1.04264">
        <ele>98</ele>
        <time>2011-08-17T08:08:27.000Z</time>
      </trkpt>
      <trkpt lat="44.98939" lon="1.04275">
        <ele>97.599998474121</ele>
        <time>2011-08-17T08:08:34.000Z</time>
      </trkpt>
      <trkpt lat="44.98928" lon="1.04289">
        <ele>98</ele>
        <time>2011-08-17T08:08:44.000Z</time>
      </trkpt>
      <trkpt lat="44.98904" lon="1.04314">
        <ele>98.599998474121</ele>
        <time>2011-08-17T08:08:58.000Z</time>
      </trkpt>
      <trkpt lat="44.98888" lon="1.04335">
        <ele>98.599998474121</ele>
        <time>2011-08-17T08:09:06.000Z</time>
      </trkpt>
      <trkpt lat="44.98869" lon="1.04346">
        <ele>98.599998474121</ele>
        <time>2011-08-17T08:09:12.000Z</time>
      </trkpt>
      <trkpt lat="44.98839" lon="1.04366">
        <ele>100</ele>
        <time>2011-08-17T08:09:24.000Z</time>
      </trkpt>
      <trkpt lat="44.98816" lon="1.04376">
        <ele>100</ele>
        <time>2011-08-17T08:09:33.000Z</time>
      </trkpt>
      <trkpt lat="44.98778" lon="1.04384">
        <ele>100</ele>
        <time>2011-08-17T08:09:44.000Z</time>
      </trkpt>
      <trkpt lat="44.98761" lon="1.04386">
        <ele>100.40000152588</ele>
        <time>2011-08-17T08:09:48.000Z</time>
      </trkpt>
      <trkpt lat="44.98741" lon="1.04389">
        <ele>100</ele>
        <time>2011-08-17T08:09:54.000Z</time>
      </trkpt>
      <trkpt lat="44.98711" lon="1.04389">
        <ele>101</ele>
        <time>2011-08-17T08:10:01.000Z</time>
      </trkpt>
      <trkpt lat="44.98701" lon="1.04422">
        <ele>103.40000152588</ele>
        <time>2011-08-17T08:10:11.000Z</time>
      </trkpt>
      <trkpt lat="44.987" lon="1.04428">
        <ele>103.80000305176</ele>
        <time>2011-08-17T08:10:13.000Z</time>
      </trkpt>
      <trkpt lat="44.98696" lon="1.04441">
        <ele>106.19999694824</ele>
        <time>2011-08-17T08:10:17.000Z</time>
      </trkpt>
      <trkpt lat="44.98693" lon="1.04458">
        <ele>108.19999694824</ele>
        <time>2011-08-17T08:10:21.000Z</time>
      </trkpt>
      <trkpt lat="44.98682" lon="1.0448">
        <ele>109.19999694824</ele>
        <time>2011-08-17T08:10:29.000Z</time>
      </trkpt>
      <trkpt lat="44.9868" lon="1.04488">
        <ele>109.19999694824</ele>
        <time>2011-08-17T08:10:31.000Z</time>
      </trkpt>
      <trkpt lat="44.98664" lon="1.04521">
        <ele>110.19999694824</ele>
        <time>2011-08-17T08:10:42.000Z</time>
      </trkpt>
      <trkpt lat="44.98645" lon="1.04571">
        <ele>109.19999694824</ele>
        <time>2011-08-17T08:10:54.000Z</time>
      </trkpt>
      <trkpt lat="44.98623" lon="1.0462">
        <ele>109.59999847412</ele>
        <time>2011-08-17T08:11:06.000Z</time>
      </trkpt>
      <trkpt lat="44.98599" lon="1.04663">
        <ele>112</ele>
        <time>2011-08-17T08:11:17.000Z</time>
      </trkpt>
      <trkpt lat="44.98568" lon="1.04694">
        <ele>112.59999847412</ele>
        <time>2011-08-17T08:11:28.000Z</time>
      </trkpt>
      <trkpt lat="44.98539" lon="1.04708">
        <ele>114</ele>
        <time>2011-08-17T08:11:39.000Z</time>
      </trkpt>
      <trkpt lat="44.98528" lon="1.04717">
        <ele>114</ele>
        <time>2011-08-17T08:11:43.000Z</time>
      </trkpt>
      <trkpt lat="44.985" lon="1.04739">
        <ele>113.40000152588</ele>
        <time>2011-08-17T08:11:51.000Z</time>
      </trkpt>
      <trkpt lat="44.98469" lon="1.04753">
        <ele>112</ele>
        <time>2011-08-17T08:11:59.000Z</time>
      </trkpt>
      <trkpt lat="44.9846" lon="1.04756">
        <ele>112</ele>
        <time>2011-08-17T08:12:01.000Z</time>
      </trkpt>
      <trkpt lat="44.98436" lon="1.04738">
        <ele>114.40000152588</ele>
        <time>2011-08-17T08:12:11.000Z</time>
      </trkpt>
      <trkpt lat="44.98431" lon="1.04742">
        <ele>114.40000152588</ele>
        <time>2011-08-17T08:12:13.000Z</time>
      </trkpt>
      <trkpt lat="44.98411" lon="1.04758">
        <ele>113</ele>
        <time>2011-08-17T08:12:19.000Z</time>
      </trkpt>
      <trkpt lat="44.98367" lon="1.048">
        <ele>111</ele>
        <time>2011-08-17T08:12:29.000Z</time>
      </trkpt>
      <trkpt lat="44.98341" lon="1.04818">
        <ele>110.59999847412</ele>
        <time>2011-08-17T08:12:34.000Z</time>
      </trkpt>
      <trkpt lat="44.9826" lon="1.04863">
        <ele>107.19999694824</ele>
        <time>2011-08-17T08:12:48.000Z</time>
      </trkpt>
      <trkpt lat="44.98207" lon="1.04879">
        <ele>104.40000152588</ele>
        <time>2011-08-17T08:12:55.000Z</time>
      </trkpt>
      <trkpt lat="44.98163" lon="1.04867">
        <ele>100.40000152588</ele>
        <time>2011-08-17T08:13:00.000Z</time>
      </trkpt>
      <trkpt lat="44.98126" lon="1.04853">
        <ele>95.599998474121</ele>
        <time>2011-08-17T08:13:04.000Z</time>
      </trkpt>
      <trkpt lat="44.98104" lon="1.04853">
        <ele>94.199996948242</ele>
        <time>2011-08-17T08:13:06.000Z</time>
      </trkpt>
      <trkpt lat="44.98071" lon="1.04862">
        <ele>91.400001525879</ele>
        <time>2011-08-17T08:13:09.000Z</time>
      </trkpt>
      <trkpt lat="44.98021" lon="1.0485">
        <ele>87</ele>
        <time>2011-08-17T08:13:15.000Z</time>
      </trkpt>
      <trkpt lat="44.98019" lon="1.04839">
        <ele>87</ele>
        <time>2011-08-17T08:13:16.000Z</time>
      </trkpt>
      <trkpt lat="44.98018" lon="1.04827">
        <ele>86</ele>
        <time>2011-08-17T08:13:17.000Z</time>
      </trkpt>
      <trkpt lat="44.98018" lon="1.04802">
        <ele>86.599998474121</ele>
        <time>2011-08-17T08:13:19.000Z</time>
      </trkpt>
      <trkpt lat="44.98014" lon="1.04759">
        <ele>86</ele>
        <time>2011-08-17T08:13:23.000Z</time>
      </trkpt>
      <trkpt lat="44.98022" lon="1.04727">
        <ele>87.599998474121</ele>
        <time>2011-08-17T08:13:28.000Z</time>
      </trkpt>
      <trkpt lat="44.98019" lon="1.04707">
        <ele>86.599998474121</ele>
        <time>2011-08-17T08:13:31.000Z</time>
      </trkpt>
      <trkpt lat="44.97997" lon="1.04679">
        <ele>83.599998474121</ele>
        <time>2011-08-17T08:13:39.000Z</time>
      </trkpt>
      <trkpt lat="44.97984" lon="1.04681">
        <ele>82.800003051758</ele>
        <time>2011-08-17T08:13:41.000Z</time>
      </trkpt>
      <trkpt lat="44.9794" lon="1.04682">
        <ele>78.800003051758</ele>
        <time>2011-08-17T08:13:47.000Z</time>
      </trkpt>
      <trkpt lat="44.97892" lon="1.04654">
        <ele>75.400001525879</ele>
        <time>2011-08-17T08:13:53.000Z</time>
      </trkpt>
      <trkpt lat="44.97833" lon="1.04622">
        <ele>72.199996948242</ele>
        <time>2011-08-17T08:13:59.000Z</time>
      </trkpt>
      <trkpt lat="44.97753" lon="1.04612">
        <ele>72.199996948242</ele>
        <time>2011-08-17T08:14:08.000Z</time>
      </trkpt>
      <trkpt lat="44.9769" lon="1.04609">
        <ele>73.599998474121</ele>
        <time>2011-08-17T08:14:20.000Z</time>
      </trkpt>
      <trkpt lat="44.97638" lon="1.04606">
        <ele>73.599998474121</ele>
        <time>2011-08-17T08:14:33.000Z</time>
      </trkpt>
      <trkpt lat="44.97632" lon="1.04592">
        <ele>74</ele>
        <time>2011-08-17T08:14:38.000Z</time>
      </trkpt>
      <trkpt lat="44.97631" lon="1.04588">
        <ele>74</ele>
        <time>2011-08-17T08:14:39.000Z</time>
      </trkpt>
      <trkpt lat="44.97627" lon="1.04577">
        <ele>74</ele>
        <time>2011-08-17T08:14:41.000Z</time>
      </trkpt>
      <trkpt lat="44.97608" lon="1.04515">
        <ele>77</ele>
        <time>2011-08-17T08:14:54.000Z</time>
      </trkpt>
      <trkpt lat="44.97587" lon="1.04471">
        <ele>79.800003051758</ele>
        <time>2011-08-17T08:15:05.000Z</time>
      </trkpt>
      <trkpt lat="44.97585" lon="1.04468">
        <ele>79.800003051758</ele>
        <time>2011-08-17T08:15:06.000Z</time>
      </trkpt>
      <trkpt lat="44.97574" lon="1.04443">
        <ele>81.199996948242</ele>
        <time>2011-08-17T08:15:18.000Z</time>
      </trkpt>
      <trkpt lat="44.97572" lon="1.04444">
        <ele>81.199996948242</ele>
        <time>2011-08-17T08:15:22.000Z</time>
      </trkpt>
      <trkpt lat="44.97566" lon="1.04449">
        <ele>81.800003051758</ele>
        <time>2011-08-17T08:15:33.000Z</time>
      </trkpt>
      <trkpt lat="44.97564" lon="1.04452">
        <ele>82.199996948242</ele>
        <time>2011-08-17T08:15:35.000Z</time>
      </trkpt>
      <trkpt lat="44.97561" lon="1.04457">
        <ele>84.599998474121</ele>
        <time>2011-08-17T08:15:50.000Z</time>
      </trkpt>
      <trkpt lat="44.97559" lon="1.04466">
        <ele>86</ele>
        <time>2011-08-17T08:15:56.000Z</time>
      </trkpt>
      <trkpt lat="44.97557" lon="1.04476">
        <ele>88</ele>
        <time>2011-08-17T08:16:01.000Z</time>
      </trkpt>
      <trkpt lat="44.97553" lon="1.04478">
        <ele>89</ele>
        <time>2011-08-17T08:16:06.000Z</time>
      </trkpt>
      <trkpt lat="44.97549" lon="1.04473">
        <ele>89.400001525879</ele>
        <time>2011-08-17T08:16:09.000Z</time>
      </trkpt>
      <trkpt lat="44.9755" lon="1.04462">
        <ele>90</ele>
        <time>2011-08-17T08:16:14.000Z</time>
      </trkpt>
      <trkpt lat="44.97546" lon="1.04427">
        <ele>90.400001525879</ele>
        <time>2011-08-17T08:16:26.000Z</time>
      </trkpt>
      <trkpt lat="44.97546" lon="1.04425">
        <ele>90.800003051758</ele>
        <time>2011-08-17T08:16:27.000Z</time>
      </trkpt>
      <trkpt lat="44.97546" lon="1.04414">
        <ele>91.400001525879</ele>
        <time>2011-08-17T08:16:31.000Z</time>
      </trkpt>
      <trkpt lat="44.97544" lon="1.0441">
        <ele>92.800003051758</ele>
        <time>2011-08-17T08:16:33.000Z</time>
      </trkpt>
      <trkpt lat="44.9753" lon="1.04394">
        <ele>93.800003051758</ele>
        <time>2011-08-17T08:16:37.000Z</time>
      </trkpt>
      <trkpt lat="44.97519" lon="1.04384">
        <ele>96.199996948242</ele>
        <time>2011-08-17T08:16:42.000Z</time>
      </trkpt>
      <trkpt lat="44.97513" lon="1.04384">
        <ele>97.199996948242</ele>
        <time>2011-08-17T08:16:44.000Z</time>
      </trkpt>
      <trkpt lat="44.97508" lon="1.0439">
        <ele>97.199996948242</ele>
        <time>2011-08-17T08:16:48.000Z</time>
      </trkpt>
      <trkpt lat="44.97497" lon="1.04417">
        <ele>99</ele>
        <time>2011-08-17T08:16:59.000Z</time>
      </trkpt>
      <trkpt lat="44.97492" lon="1.04435">
        <ele>99.599998474121</ele>
        <time>2011-08-17T08:17:05.000Z</time>
      </trkpt>
      <trkpt lat="44.97503" lon="1.04474">
        <ele>99.599998474121</ele>
        <time>2011-08-17T08:17:17.000Z</time>
      </trkpt>
      <trkpt lat="44.97508" lon="1.04505">
        <ele>99.599998474121</ele>
        <time>2011-08-17T08:17:28.000Z</time>
      </trkpt>
      <trkpt lat="44.97511" lon="1.04527">
        <ele>99</ele>
        <time>2011-08-17T08:17:35.000Z</time>
      </trkpt>
      <trkpt lat="44.97513" lon="1.04537">
        <ele>99.599998474121</ele>
        <time>2011-08-17T08:17:38.000Z</time>
      </trkpt>
      <trkpt lat="44.97517" lon="1.04565">
        <ele>100.40000152588</ele>
        <time>2011-08-17T08:17:45.000Z</time>
      </trkpt>
      <trkpt lat="44.97523" lon="1.04601">
        <ele>101.40000152588</ele>
        <time>2011-08-17T08:17:52.000Z</time>
      </trkpt>
      <trkpt lat="44.97524" lon="1.04614">
        <ele>102</ele>
        <time>2011-08-17T08:17:55.000Z</time>
      </trkpt>
      <trkpt lat="44.97525" lon="1.04645">
        <ele>103</ele>
        <time>2011-08-17T08:18:03.000Z</time>
      </trkpt>
      <trkpt lat="44.97521" lon="1.04665">
        <ele>103.40000152588</ele>
        <time>2011-08-17T08:18:09.000Z</time>
      </trkpt>
      <trkpt lat="44.97512" lon="1.04711">
        <ele>104.40000152588</ele>
        <time>2011-08-17T08:18:21.000Z</time>
      </trkpt>
      <trkpt lat="44.97504" lon="1.04741">
        <ele>106.19999694824</ele>
        <time>2011-08-17T08:18:31.000Z</time>
      </trkpt>
      <trkpt lat="44.97503" lon="1.04741">
        <ele>106.80000305176</ele>
        <time>2011-08-17T08:18:32.000Z</time>
      </trkpt>
      <trkpt lat="44.97497" lon="1.04793">
        <ele>108.19999694824</ele>
        <time>2011-08-17T08:18:44.000Z</time>
      </trkpt>
      <trkpt lat="44.97497" lon="1.04804">
        <ele>109.59999847412</ele>
        <time>2011-08-17T08:18:47.000Z</time>
      </trkpt>
      <trkpt lat="44.97499" lon="1.04815">
        <ele>109.59999847412</ele>
        <time>2011-08-17T08:18:50.000Z</time>
      </trkpt>
      <trkpt lat="44.97501" lon="1.04824">
        <ele>110.59999847412</ele>
        <time>2011-08-17T08:18:53.000Z</time>
      </trkpt>
      <trkpt lat="44.97499" lon="1.04833">
        <ele>111</ele>
        <time>2011-08-17T08:18:56.000Z</time>
      </trkpt>
      <trkpt lat="44.97484" lon="1.04867">
        <ele>113</ele>
        <time>2011-08-17T08:19:07.000Z</time>
      </trkpt>
      <trkpt lat="44.97484" lon="1.04906">
        <ele>116.40000152588</ele>
        <time>2011-08-17T08:19:18.000Z</time>
      </trkpt>
      <trkpt lat="44.97483" lon="1.04915">
        <ele>116.80000305176</ele>
        <time>2011-08-17T08:19:20.000Z</time>
      </trkpt>
      <trkpt lat="44.97481" lon="1.04931">
        <ele>118.19999694824</ele>
        <time>2011-08-17T08:19:25.000Z</time>
      </trkpt>
      <trkpt lat="44.97491" lon="1.04946">
        <ele>121.19999694824</ele>
        <time>2011-08-17T08:19:39.000Z</time>
      </trkpt>
      <trkpt lat="44.97493" lon="1.0495">
        <ele>122.19999694824</ele>
        <time>2011-08-17T08:19:47.000Z</time>
      </trkpt>
      <trkpt lat="44.97508" lon="1.04959">
        <ele>124</ele>
        <time>2011-08-17T08:19:58.000Z</time>
      </trkpt>
      <trkpt lat="44.97511" lon="1.04961">
        <ele>124.59999847412</ele>
        <time>2011-08-17T08:20:00.000Z</time>
      </trkpt>
      <trkpt lat="44.97522" lon="1.04969">
        <ele>126</ele>
        <time>2011-08-17T08:20:07.000Z</time>
      </trkpt>
      <trkpt lat="44.97537" lon="1.04977">
        <ele>127.40000152588</ele>
        <time>2011-08-17T08:20:13.000Z</time>
      </trkpt>
      <trkpt lat="44.97563" lon="1.05002">
        <ele>130.80000305176</ele>
        <time>2011-08-17T08:20:27.000Z</time>
      </trkpt>
      <trkpt lat="44.97578" lon="1.05031">
        <ele>132.80000305176</ele>
        <time>2011-08-17T08:20:39.000Z</time>
      </trkpt>
      <trkpt lat="44.97586" lon="1.05072">
        <ele>135.60000610352</ele>
        <time>2011-08-17T08:20:49.000Z</time>
      </trkpt>
      <trkpt lat="44.97589" lon="1.05088">
        <ele>135.60000610352</ele>
        <time>2011-08-17T08:20:58.000Z</time>
      </trkpt>
      <trkpt lat="44.97591" lon="1.05092">
        <ele>134.60000610352</ele>
        <time>2011-08-17T08:21:12.000Z</time>
      </trkpt>
      <trkpt lat="44.97599" lon="1.05113">
        <ele>133.19999694824</ele>
        <time>2011-08-17T08:23:51.000Z</time>
      </trkpt>
      <trkpt lat="44.97601" lon="1.05126">
        <ele>132.19999694824</ele>
        <time>2011-08-17T08:23:53.000Z</time>
      </trkpt>
      <trkpt lat="44.97602" lon="1.05133">
        <ele>131.19999694824</ele>
        <time>2011-08-17T08:23:54.000Z</time>
      </trkpt>
      <trkpt lat="44.97609" lon="1.05153">
        <ele>129.80000305176</ele>
        <time>2011-08-17T08:23:57.000Z</time>
      </trkpt>
      <trkpt lat="44.97628" lon="1.05188">
        <ele>126</ele>
        <time>2011-08-17T08:24:02.000Z</time>
      </trkpt>
      <trkpt lat="44.97641" lon="1.05207">
        <ele>123.59999847412</ele>
        <time>2011-08-17T08:24:05.000Z</time>
      </trkpt>
      <trkpt lat="44.9765" lon="1.0522">
        <ele>122.59999847412</ele>
        <time>2011-08-17T08:24:07.000Z</time>
      </trkpt>
      <trkpt lat="44.97661" lon="1.05239">
        <ele>121.19999694824</ele>
        <time>2011-08-17T08:24:10.000Z</time>
      </trkpt>
      <trkpt lat="44.9767" lon="1.05276">
        <ele>120.19999694824</ele>
        <time>2011-08-17T08:24:15.000Z</time>
      </trkpt>
      <trkpt lat="44.97665" lon="1.05323">
        <ele>118.80000305176</ele>
        <time>2011-08-17T08:24:22.000Z</time>
      </trkpt>
      <trkpt lat="44.97661" lon="1.05352">
        <ele>117.40000152588</ele>
        <time>2011-08-17T08:24:26.000Z</time>
      </trkpt>
      <trkpt lat="44.97654" lon="1.05383">
        <ele>116.80000305176</ele>
        <time>2011-08-17T08:24:30.000Z</time>
      </trkpt>
      <trkpt lat="44.97659" lon="1.05431">
        <ele>116.40000152588</ele>
        <time>2011-08-17T08:24:37.000Z</time>
      </trkpt>
      <trkpt lat="44.97674" lon="1.0545">
        <ele>115.80000305176</ele>
        <time>2011-08-17T08:24:41.000Z</time>
      </trkpt>
      <trkpt lat="44.97694" lon="1.05472">
        <ele>114</ele>
        <time>2011-08-17T08:24:46.000Z</time>
      </trkpt>
      <trkpt lat="44.97703" lon="1.05485">
        <ele>113</ele>
        <time>2011-08-17T08:24:48.000Z</time>
      </trkpt>
      <trkpt lat="44.97716" lon="1.05516">
        <ele>113</ele>
        <time>2011-08-17T08:24:53.000Z</time>
      </trkpt>
      <trkpt lat="44.9772" lon="1.05546">
        <ele>111.59999847412</ele>
        <time>2011-08-17T08:24:58.000Z</time>
      </trkpt>
      <trkpt lat="44.97716" lon="1.05591">
        <ele>111</ele>
        <time>2011-08-17T08:25:05.000Z</time>
      </trkpt>
      <trkpt lat="44.97696" lon="1.05661">
        <ele>109.19999694824</ele>
        <time>2011-08-17T08:25:16.000Z</time>
      </trkpt>
      <trkpt lat="44.97694" lon="1.05669">
        <ele>109.19999694824</ele>
        <time>2011-08-17T08:25:17.000Z</time>
      </trkpt>
      <trkpt lat="44.9769" lon="1.05684">
        <ele>109.19999694824</ele>
        <time>2011-08-17T08:25:19.000Z</time>
      </trkpt>
      <trkpt lat="44.97682" lon="1.05711">
        <ele>109.19999694824</ele>
        <time>2011-08-17T08:25:23.000Z</time>
      </trkpt>
      <trkpt lat="44.97665" lon="1.05777">
        <ele>107.80000305176</ele>
        <time>2011-08-17T08:25:33.000Z</time>
      </trkpt>
      <trkpt lat="44.97647" lon="1.05841">
        <ele>107.80000305176</ele>
        <time>2011-08-17T08:25:44.000Z</time>
      </trkpt>
      <trkpt lat="44.97646" lon="1.05846">
        <ele>107.80000305176</ele>
        <time>2011-08-17T08:25:45.000Z</time>
      </trkpt>
      <trkpt lat="44.97634" lon="1.0587">
        <ele>107.19999694824</ele>
        <time>2011-08-17T08:25:49.000Z</time>
      </trkpt>
      <trkpt lat="44.97621" lon="1.05888">
        <ele>106.19999694824</ele>
        <time>2011-08-17T08:25:54.000Z</time>
      </trkpt>
      <trkpt lat="44.97618" lon="1.05897">
        <ele>105.40000152588</ele>
        <time>2011-08-17T08:25:56.000Z</time>
      </trkpt>
      <trkpt lat="44.97609" lon="1.05928">
        <ele>102.40000152588</ele>
        <time>2011-08-17T08:26:00.000Z</time>
      </trkpt>
      <trkpt lat="44.97594" lon="1.05977">
        <ele>99.599998474121</ele>
        <time>2011-08-17T08:26:06.000Z</time>
      </trkpt>
      <trkpt lat="44.97584" lon="1.06037">
        <ele>95.199996948242</ele>
        <time>2011-08-17T08:26:14.000Z</time>
      </trkpt>
      <trkpt lat="44.97585" lon="1.06048">
        <ele>93.800003051758</ele>
        <time>2011-08-17T08:26:17.000Z</time>
      </trkpt>
      <trkpt lat="44.97585" lon="1.06055">
        <ele>92.400001525879</ele>
        <time>2011-08-17T08:26:19.000Z</time>
      </trkpt>
      <trkpt lat="44.9758" lon="1.06081">
        <ele>91.800003051758</ele>
        <time>2011-08-17T08:26:31.000Z</time>
      </trkpt>
      <trkpt lat="44.9757" lon="1.06102">
        <ele>92.400001525879</ele>
        <time>2011-08-17T08:26:36.000Z</time>
      </trkpt>
      <trkpt lat="44.97565" lon="1.06138">
        <ele>92.400001525879</ele>
        <time>2011-08-17T08:26:47.000Z</time>
      </trkpt>
      <trkpt lat="44.97573" lon="1.0617">
        <ele>92.800003051758</ele>
        <time>2011-08-17T08:26:56.000Z</time>
      </trkpt>
      <trkpt lat="44.97577" lon="1.06177">
        <ele>92.800003051758</ele>
        <time>2011-08-17T08:26:58.000Z</time>
      </trkpt>
      <trkpt lat="44.97581" lon="1.06203">
        <ele>92.800003051758</ele>
        <time>2011-08-17T08:27:08.000Z</time>
      </trkpt>
      <trkpt lat="44.97579" lon="1.0621">
        <ele>93.800003051758</ele>
        <time>2011-08-17T08:27:11.000Z</time>
      </trkpt>
      <trkpt lat="44.9758" lon="1.06221">
        <ele>93.199996948242</ele>
        <time>2011-08-17T08:27:14.000Z</time>
      </trkpt>
      <trkpt lat="44.9759" lon="1.06274">
        <ele>93.199996948242</ele>
        <time>2011-08-17T08:27:27.000Z</time>
      </trkpt>
      <trkpt lat="44.97593" lon="1.0628">
        <ele>93.800003051758</ele>
        <time>2011-08-17T08:27:29.000Z</time>
      </trkpt>
      <trkpt lat="44.97594" lon="1.06289">
        <ele>94.199996948242</ele>
        <time>2011-08-17T08:27:32.000Z</time>
      </trkpt>
      <trkpt lat="44.97605" lon="1.06335">
        <ele>94.800003051758</ele>
        <time>2011-08-17T08:27:45.000Z</time>
      </trkpt>
      <trkpt lat="44.97605" lon="1.06338">
        <ele>95.199996948242</ele>
        <time>2011-08-17T08:27:47.000Z</time>
      </trkpt>
      <trkpt lat="44.97608" lon="1.06349">
        <ele>95.599998474121</ele>
        <time>2011-08-17T08:27:51.000Z</time>
      </trkpt>
      <trkpt lat="44.97614" lon="1.06361">
        <ele>97.199996948242</ele>
        <time>2011-08-17T08:27:56.000Z</time>
      </trkpt>
      <trkpt lat="44.97619" lon="1.06403">
        <ele>98</ele>
        <time>2011-08-17T08:28:06.000Z</time>
      </trkpt>
      <trkpt lat="44.97618" lon="1.06425">
        <ele>99</ele>
        <time>2011-08-17T08:28:12.000Z</time>
      </trkpt>
      <trkpt lat="44.97612" lon="1.06437">
        <ele>99.599998474121</ele>
        <time>2011-08-17T08:28:16.000Z</time>
      </trkpt>
      <trkpt lat="44.97595" lon="1.06476">
        <ele>102</ele>
        <time>2011-08-17T08:28:29.000Z</time>
      </trkpt>
      <trkpt lat="44.97593" lon="1.06486">
        <ele>102</ele>
        <time>2011-08-17T08:28:33.000Z</time>
      </trkpt>
      <trkpt lat="44.97592" lon="1.065">
        <ele>102.40000152588</ele>
        <time>2011-08-17T08:28:37.000Z</time>
      </trkpt>
      <trkpt lat="44.97591" lon="1.06521">
        <ele>103.40000152588</ele>
        <time>2011-08-17T08:28:43.000Z</time>
      </trkpt>
      <trkpt lat="44.97589" lon="1.06529">
        <ele>104.40000152588</ele>
        <time>2011-08-17T08:28:46.000Z</time>
      </trkpt>
      <trkpt lat="44.97571" lon="1.06548">
        <ele>104.40000152588</ele>
        <time>2011-08-17T08:28:55.000Z</time>
      </trkpt>
      <trkpt lat="44.97544" lon="1.06562">
        <ele>106.19999694824</ele>
        <time>2011-08-17T08:29:07.000Z</time>
      </trkpt>
      <trkpt lat="44.97521" lon="1.06575">
        <ele>108.19999694824</ele>
        <time>2011-08-17T08:29:19.000Z</time>
      </trkpt>
      <trkpt lat="44.97502" lon="1.06585">
        <ele>110.59999847412</ele>
        <time>2011-08-17T08:29:29.000Z</time>
      </trkpt>
      <trkpt lat="44.97494" lon="1.06591">
        <ele>111.59999847412</ele>
        <time>2011-08-17T08:29:34.000Z</time>
      </trkpt>
      <trkpt lat="44.97487" lon="1.066">
        <ele>112.59999847412</ele>
        <time>2011-08-17T08:29:37.000Z</time>
      </trkpt>
      <trkpt lat="44.97482" lon="1.06603">
        <ele>112.59999847412</ele>
        <time>2011-08-17T08:29:39.000Z</time>
      </trkpt>
      <trkpt lat="44.97459" lon="1.06622">
        <ele>113.40000152588</ele>
        <time>2011-08-17T08:29:48.000Z</time>
      </trkpt>
      <trkpt lat="44.97446" lon="1.06638">
        <ele>115.40000152588</ele>
        <time>2011-08-17T08:29:58.000Z</time>
      </trkpt>
      <trkpt lat="44.97438" lon="1.06645">
        <ele>115.40000152588</ele>
        <time>2011-08-17T08:30:01.000Z</time>
      </trkpt>
      <trkpt lat="44.97431" lon="1.06651">
        <ele>116.40000152588</ele>
        <time>2011-08-17T08:30:04.000Z</time>
      </trkpt>
      <trkpt lat="44.97411" lon="1.0668">
        <ele>117.80000305176</ele>
        <time>2011-08-17T08:30:14.000Z</time>
      </trkpt>
      <trkpt lat="44.97396" lon="1.06701">
        <ele>118.80000305176</ele>
        <time>2011-08-17T08:30:20.000Z</time>
      </trkpt>
      <trkpt lat="44.9738" lon="1.0673">
        <ele>120.59999847412</ele>
        <time>2011-08-17T08:30:31.000Z</time>
      </trkpt>
      <trkpt lat="44.97376" lon="1.06736">
        <ele>121.19999694824</ele>
        <time>2011-08-17T08:30:33.000Z</time>
      </trkpt>
      <trkpt lat="44.97373" lon="1.06739">
        <ele>122.19999694824</ele>
        <time>2011-08-17T08:30:35.000Z</time>
      </trkpt>
      <trkpt lat="44.97367" lon="1.06747">
        <ele>122.19999694824</ele>
        <time>2011-08-17T08:30:39.000Z</time>
      </trkpt>
      <trkpt lat="44.97351" lon="1.06775">
        <ele>125</ele>
        <time>2011-08-17T08:30:52.000Z</time>
      </trkpt>
      <trkpt lat="44.97341" lon="1.0679">
        <ele>127</ele>
        <time>2011-08-17T08:30:58.000Z</time>
      </trkpt>
      <trkpt lat="44.97327" lon="1.06833">
        <ele>127.80000305176</ele>
        <time>2011-08-17T08:31:09.000Z</time>
      </trkpt>
      <trkpt lat="44.97319" lon="1.06871">
        <ele>129.80000305176</ele>
        <time>2011-08-17T08:31:18.000Z</time>
      </trkpt>
      <trkpt lat="44.97311" lon="1.06888">
        <ele>130.80000305176</ele>
        <time>2011-08-17T08:31:24.000Z</time>
      </trkpt>
      <trkpt lat="44.97305" lon="1.06897">
        <ele>132.19999694824</ele>
        <time>2011-08-17T08:31:29.000Z</time>
      </trkpt>
      <trkpt lat="44.973" lon="1.06919">
        <ele>135</ele>
        <time>2011-08-17T08:31:40.000Z</time>
      </trkpt>
      <trkpt lat="44.97299" lon="1.06923">
        <ele>135</ele>
        <time>2011-08-17T08:31:42.000Z</time>
      </trkpt>
      <trkpt lat="44.97298" lon="1.0694">
        <ele>136</ele>
        <time>2011-08-17T08:31:48.000Z</time>
      </trkpt>
      <trkpt lat="44.97298" lon="1.06946">
        <ele>136.60000610352</ele>
        <time>2011-08-17T08:31:50.000Z</time>
      </trkpt>
      <trkpt lat="44.97297" lon="1.06953">
        <ele>136.60000610352</ele>
        <time>2011-08-17T08:31:52.000Z</time>
      </trkpt>
      <trkpt lat="44.97293" lon="1.06964">
        <ele>138</ele>
        <time>2011-08-17T08:31:56.000Z</time>
      </trkpt>
      <trkpt lat="44.97292" lon="1.06997">
        <ele>139.39999389648</ele>
        <time>2011-08-17T08:32:07.000Z</time>
      </trkpt>
      <trkpt lat="44.97288" lon="1.07011">
        <ele>140.80000305176</ele>
        <time>2011-08-17T08:32:12.000Z</time>
      </trkpt>
      <trkpt lat="44.97288" lon="1.07024">
        <ele>142.39999389648</ele>
        <time>2011-08-17T08:32:17.000Z</time>
      </trkpt>
      <trkpt lat="44.97289" lon="1.07044">
        <ele>143.80000305176</ele>
        <time>2011-08-17T08:32:27.000Z</time>
      </trkpt>
      <trkpt lat="44.9729" lon="1.07054">
        <ele>144.19999694824</ele>
        <time>2011-08-17T08:32:31.000Z</time>
      </trkpt>
      <trkpt lat="44.97288" lon="1.07086">
        <ele>146.19999694824</ele>
        <time>2011-08-17T08:32:40.000Z</time>
      </trkpt>
      <trkpt lat="44.97288" lon="1.07096">
        <ele>147.19999694824</ele>
        <time>2011-08-17T08:32:43.000Z</time>
      </trkpt>
      <trkpt lat="44.97293" lon="1.0712">
        <ele>147.60000610352</ele>
        <time>2011-08-17T08:32:51.000Z</time>
      </trkpt>
      <trkpt lat="44.97297" lon="1.07138">
        <ele>148</ele>
        <time>2011-08-17T08:32:58.000Z</time>
      </trkpt>
      <trkpt lat="44.9729" lon="1.07172">
        <ele>152</ele>
        <time>2011-08-17T08:33:09.000Z</time>
      </trkpt>
      <trkpt lat="44.97288" lon="1.07197">
        <ele>153.39999389648</ele>
        <time>2011-08-17T08:33:20.000Z</time>
      </trkpt>
      <trkpt lat="44.97287" lon="1.07206">
        <ele>154.80000305176</ele>
        <time>2011-08-17T08:33:26.000Z</time>
      </trkpt>
      <trkpt lat="44.97286" lon="1.07216">
        <ele>155.80000305176</ele>
        <time>2011-08-17T08:33:30.000Z</time>
      </trkpt>
      <trkpt lat="44.97276" lon="1.07221">
        <ele>158.60000610352</ele>
        <time>2011-08-17T08:33:39.000Z</time>
      </trkpt>
      <trkpt lat="44.97268" lon="1.07226">
        <ele>161.60000610352</ele>
        <time>2011-08-17T08:33:49.000Z</time>
      </trkpt>
      <trkpt lat="44.9726" lon="1.07211">
        <ele>164</ele>
        <time>2011-08-17T08:34:02.000Z</time>
      </trkpt>
      <trkpt lat="44.97259" lon="1.07209">
        <ele>164</ele>
        <time>2011-08-17T08:34:03.000Z</time>
      </trkpt>
      <trkpt lat="44.97244" lon="1.07188">
        <ele>166.39999389648</ele>
        <time>2011-08-17T08:34:17.000Z</time>
      </trkpt>
      <trkpt lat="44.97241" lon="1.07184">
        <ele>166.80000305176</ele>
        <time>2011-08-17T08:34:19.000Z</time>
      </trkpt>
      <trkpt lat="44.97225" lon="1.07164">
        <ele>169.19999694824</ele>
        <time>2011-08-17T08:34:32.000Z</time>
      </trkpt>
      <trkpt lat="44.97208" lon="1.07147">
        <ele>171.19999694824</ele>
        <time>2011-08-17T08:34:43.000Z</time>
      </trkpt>
      <trkpt lat="44.97191" lon="1.07124">
        <ele>173.60000610352</ele>
        <time>2011-08-17T08:34:55.000Z</time>
      </trkpt>
      <trkpt lat="44.9718" lon="1.07104">
        <ele>176</ele>
        <time>2011-08-17T08:35:06.000Z</time>
      </trkpt>
      <trkpt lat="44.97172" lon="1.07085">
        <ele>177.39999389648</ele>
        <time>2011-08-17T08:35:16.000Z</time>
      </trkpt>
      <trkpt lat="44.97164" lon="1.07073">
        <ele>179.39999389648</ele>
        <time>2011-08-17T08:35:27.000Z</time>
      </trkpt>
      <trkpt lat="44.9716" lon="1.07063">
        <ele>180.19999694824</ele>
        <time>2011-08-17T08:35:32.000Z</time>
      </trkpt>
      <trkpt lat="44.97147" lon="1.07041">
        <ele>181.19999694824</ele>
        <time>2011-08-17T08:35:40.000Z</time>
      </trkpt>
      <trkpt lat="44.97144" lon="1.07038">
        <ele>181.80000305176</ele>
        <time>2011-08-17T08:35:42.000Z</time>
      </trkpt>
      <trkpt lat="44.97137" lon="1.07026">
        <ele>182.60000610352</ele>
        <time>2011-08-17T08:35:46.000Z</time>
      </trkpt>
      <trkpt lat="44.97129" lon="1.0701">
        <ele>184.19999694824</ele>
        <time>2011-08-17T08:35:58.000Z</time>
      </trkpt>
      <trkpt lat="44.97128" lon="1.07009">
        <ele>184.19999694824</ele>
        <time>2011-08-17T08:36:46.000Z</time>
      </trkpt>
      <trkpt lat="44.97128" lon="1.07007">
        <ele>184.60000610352</ele>
        <time>2011-08-17T08:38:38.000Z</time>
      </trkpt>
      <trkpt lat="44.97122" lon="1.07001">
        <ele>186</ele>
        <time>2011-08-17T08:44:25.000Z</time>
      </trkpt>
      <trkpt lat="44.97105" lon="1.06989">
        <ele>189</ele>
        <time>2011-08-17T08:44:36.000Z</time>
      </trkpt>
      <trkpt lat="44.97095" lon="1.06975">
        <ele>191.80000305176</ele>
        <time>2011-08-17T08:44:46.000Z</time>
      </trkpt>
      <trkpt lat="44.97087" lon="1.06961">
        <ele>194.80000305176</ele>
        <time>2011-08-17T08:44:56.000Z</time>
      </trkpt>
      <trkpt lat="44.97086" lon="1.06961">
        <ele>195.19999694824</ele>
        <time>2011-08-17T08:44:57.000Z</time>
      </trkpt>
      <trkpt lat="44.97081" lon="1.06956">
        <ele>196.60000610352</ele>
        <time>2011-08-17T08:45:02.000Z</time>
      </trkpt>
      <trkpt lat="44.97065" lon="1.06948">
        <ele>199.60000610352</ele>
        <time>2011-08-17T08:45:12.000Z</time>
      </trkpt>
      <trkpt lat="44.9706" lon="1.06949">
        <ele>201</ele>
        <time>2011-08-17T08:45:16.000Z</time>
      </trkpt>
      <trkpt lat="44.97051" lon="1.06951">
        <ele>203.80000305176</ele>
        <time>2011-08-17T08:45:24.000Z</time>
      </trkpt>
      <trkpt lat="44.97048" lon="1.06954">
        <ele>197.60000610352</ele>
        <time>2011-08-17T08:45:29.000Z</time>
      </trkpt>
      <trkpt lat="44.97048" lon="1.06954">
        <ele>205.19999694824</ele>
        <time>2011-08-17T08:45:30.000Z</time>
      </trkpt>
      <trkpt lat="44.97039" lon="1.06959">
        <ele>206.80000305176</ele>
        <time>2011-08-17T08:45:42.000Z</time>
      </trkpt>
      <trkpt lat="44.97031" lon="1.06962">
        <ele>208.60000610352</ele>
        <time>2011-08-17T08:45:50.000Z</time>
      </trkpt>
      <trkpt lat="44.97025" lon="1.06963">
        <ele>209.60000610352</ele>
        <time>2011-08-17T08:45:57.000Z</time>
      </trkpt>
      <trkpt lat="44.97015" lon="1.06979">
        <ele>211</ele>
        <time>2011-08-17T08:46:09.000Z</time>
      </trkpt>
      <trkpt lat="44.96998" lon="1.07029">
        <ele>210.60000610352</ele>
        <time>2011-08-17T08:46:21.000Z</time>
      </trkpt>
      <trkpt lat="44.96987" lon="1.07078">
        <ele>208.60000610352</ele>
        <time>2011-08-17T08:46:33.000Z</time>
      </trkpt>
      <trkpt lat="44.96986" lon="1.0708">
        <ele>208.60000610352</ele>
        <time>2011-08-17T08:46:53.000Z</time>
      </trkpt>
      <trkpt lat="44.96986" lon="1.07082">
        <ele>208.60000610352</ele>
        <time>2011-08-17T08:47:07.000Z</time>
      </trkpt>
      <trkpt lat="44.96993" lon="1.07126">
        <ele>208.60000610352</ele>
        <time>2011-08-17T08:47:18.000Z</time>
      </trkpt>
      <trkpt lat="44.97004" lon="1.07185">
        <ele>209.19999694824</ele>
        <time>2011-08-17T08:47:30.000Z</time>
      </trkpt>
      <trkpt lat="44.97019" lon="1.07256">
        <ele>209.19999694824</ele>
        <time>2011-08-17T08:47:44.000Z</time>
      </trkpt>
      <trkpt lat="44.97026" lon="1.07319">
        <ele>210</ele>
        <time>2011-08-17T08:47:56.000Z</time>
      </trkpt>
      <trkpt lat="44.97028" lon="1.07364">
        <ele>211.60000610352</ele>
        <time>2011-08-17T08:48:05.000Z</time>
      </trkpt>
      <trkpt lat="44.97025" lon="1.07379">
        <ele>213</ele>
        <time>2011-08-17T08:48:09.000Z</time>
      </trkpt>
      <trkpt lat="44.97014" lon="1.07436">
        <ele>215.80000305176</ele>
        <time>2011-08-17T08:48:22.000Z</time>
      </trkpt>
      <trkpt lat="44.97" lon="1.07509">
        <ele>219.19999694824</ele>
        <time>2011-08-17T08:48:36.000Z</time>
      </trkpt>
      <trkpt lat="44.96974" lon="1.07563">
        <ele>220.19999694824</ele>
        <time>2011-08-17T08:48:49.000Z</time>
      </trkpt>
      <trkpt lat="44.9697" lon="1.07616">
        <ele>223.60000610352</ele>
        <time>2011-08-17T08:48:59.000Z</time>
      </trkpt>
      <trkpt lat="44.96974" lon="1.07653">
        <ele>226</ele>
        <time>2011-08-17T08:49:06.000Z</time>
      </trkpt>
      <trkpt lat="44.96981" lon="1.07717">
        <ele>227.39999389648</ele>
        <time>2011-08-17T08:49:19.000Z</time>
      </trkpt>
      <trkpt lat="44.96983" lon="1.07737">
        <ele>227.39999389648</ele>
        <time>2011-08-17T08:49:24.000Z</time>
      </trkpt>
      <trkpt lat="44.96975" lon="1.07738">
        <ele>227</ele>
        <time>2011-08-17T08:49:30.000Z</time>
      </trkpt>
      <trkpt lat="44.96944" lon="1.07696">
        <ele>225</ele>
        <time>2011-08-17T08:49:39.000Z</time>
      </trkpt>
      <trkpt lat="44.9691" lon="1.07643">
        <ele>222</ele>
        <time>2011-08-17T08:49:49.000Z</time>
      </trkpt>
      <trkpt lat="44.96901" lon="1.07631">
        <ele>222</ele>
        <time>2011-08-17T08:49:51.000Z</time>
      </trkpt>
      <trkpt lat="44.96858" lon="1.0755">
        <ele>224</ele>
        <time>2011-08-17T08:50:02.000Z</time>
      </trkpt>
      <trkpt lat="44.96821" lon="1.07499">
        <ele>224.60000610352</ele>
        <time>2011-08-17T08:50:16.000Z</time>
      </trkpt>
      <trkpt lat="44.96815" lon="1.07491">
        <ele>224.60000610352</ele>
        <time>2011-08-17T08:50:18.000Z</time>
      </trkpt>
      <trkpt lat="44.96781" lon="1.07487">
        <ele>224</ele>
        <time>2011-08-17T08:50:28.000Z</time>
      </trkpt>
      <trkpt lat="44.96775" lon="1.0749">
        <ele>224</ele>
        <time>2011-08-17T08:50:30.000Z</time>
      </trkpt>
      <trkpt lat="44.96743" lon="1.07505">
        <ele>224</ele>
        <time>2011-08-17T08:50:41.000Z</time>
      </trkpt>
      <trkpt lat="44.96718" lon="1.07511">
        <ele>224.60000610352</ele>
        <time>2011-08-17T08:50:49.000Z</time>
      </trkpt>
      <trkpt lat="44.96695" lon="1.07506">
        <ele>223</ele>
        <time>2011-08-17T08:50:56.000Z</time>
      </trkpt>
      <trkpt lat="44.96663" lon="1.07498">
        <ele>223</ele>
        <time>2011-08-17T08:51:05.000Z</time>
      </trkpt>
      <trkpt lat="44.96641" lon="1.0749">
        <ele>223</ele>
        <time>2011-08-17T08:51:10.000Z</time>
      </trkpt>
      <trkpt lat="44.96589" lon="1.0747">
        <ele>223</ele>
        <time>2011-08-17T08:51:23.000Z</time>
      </trkpt>
      <trkpt lat="44.96576" lon="1.07465">
        <ele>223.60000610352</ele>
        <time>2011-08-17T08:51:27.000Z</time>
      </trkpt>
      <trkpt lat="44.96535" lon="1.07472">
        <ele>224.60000610352</ele>
        <time>2011-08-17T08:51:37.000Z</time>
      </trkpt>
      <trkpt lat="44.96485" lon="1.07468">
        <ele>223.60000610352</ele>
        <time>2011-08-17T08:51:48.000Z</time>
      </trkpt>
      <trkpt lat="44.96474" lon="1.07463">
        <ele>224</ele>
        <time>2011-08-17T08:51:50.000Z</time>
      </trkpt>
      <trkpt lat="44.96443" lon="1.07426">
        <ele>222.60000610352</ele>
        <time>2011-08-17T08:51:58.000Z</time>
      </trkpt>
      <trkpt lat="44.96424" lon="1.07408">
        <ele>221.60000610352</ele>
        <time>2011-08-17T08:52:02.000Z</time>
      </trkpt>
      <trkpt lat="44.96398" lon="1.07391">
        <ele>221.19999694824</ele>
        <time>2011-08-17T08:52:07.000Z</time>
      </trkpt>
      <trkpt lat="44.96375" lon="1.07375">
        <ele>219.19999694824</ele>
        <time>2011-08-17T08:52:11.000Z</time>
      </trkpt>
      <trkpt lat="44.9636" lon="1.07363">
        <ele>218.80000305176</ele>
        <time>2011-08-17T08:52:14.000Z</time>
      </trkpt>
      <trkpt lat="44.96333" lon="1.07339">
        <ele>217.19999694824</ele>
        <time>2011-08-17T08:52:19.000Z</time>
      </trkpt>
      <trkpt lat="44.96315" lon="1.07325">
        <ele>216.80000305176</ele>
        <time>2011-08-17T08:52:22.000Z</time>
      </trkpt>
      <trkpt lat="44.96283" lon="1.07302">
        <ele>219.19999694824</ele>
        <time>2011-08-17T08:52:30.000Z</time>
      </trkpt>
      <trkpt lat="44.96258" lon="1.0731">
        <ele>220.60000610352</ele>
        <time>2011-08-17T08:52:41.000Z</time>
      </trkpt>
      <trkpt lat="44.96235" lon="1.07347">
        <ele>220.19999694824</ele>
        <time>2011-08-17T08:52:52.000Z</time>
      </trkpt>
      <trkpt lat="44.96266" lon="1.07368">
        <ele>218.19999694824</ele>
        <time>2011-08-17T08:53:00.000Z</time>
      </trkpt>
      <trkpt lat="44.96293" lon="1.07383">
        <ele>217.80000305176</ele>
        <time>2011-08-17T08:53:05.000Z</time>
      </trkpt>
      <trkpt lat="44.96312" lon="1.07398">
        <ele>217.19999694824</ele>
        <time>2011-08-17T08:53:10.000Z</time>
      </trkpt>
      <trkpt lat="44.96306" lon="1.07424">
        <ele>214.39999389648</ele>
        <time>2011-08-17T08:53:16.000Z</time>
      </trkpt>
      <trkpt lat="44.96302" lon="1.07426">
        <ele>214.39999389648</ele>
        <time>2011-08-17T08:53:17.000Z</time>
      </trkpt>
      <trkpt lat="44.96286" lon="1.07426">
        <ele>212.39999389648</ele>
        <time>2011-08-17T08:53:20.000Z</time>
      </trkpt>
      <trkpt lat="44.96259" lon="1.07426">
        <ele>208.19999694824</ele>
        <time>2011-08-17T08:53:25.000Z</time>
      </trkpt>
      <trkpt lat="44.96235" lon="1.07438">
        <ele>205.19999694824</ele>
        <time>2011-08-17T08:53:29.000Z</time>
      </trkpt>
      <trkpt lat="44.96225" lon="1.07451">
        <ele>203.80000305176</ele>
        <time>2011-08-17T08:53:31.000Z</time>
      </trkpt>
      <trkpt lat="44.96209" lon="1.07471">
        <ele>203.39999389648</ele>
        <time>2011-08-17T08:53:34.000Z</time>
      </trkpt>
      <trkpt lat="44.96193" lon="1.07496">
        <ele>201</ele>
        <time>2011-08-17T08:53:38.000Z</time>
      </trkpt>
      <trkpt lat="44.96164" lon="1.07517">
        <ele>199</ele>
        <time>2011-08-17T08:53:43.000Z</time>
      </trkpt>
      <trkpt lat="44.96145" lon="1.07533">
        <ele>200.39999389648</ele>
        <time>2011-08-17T08:53:46.000Z</time>
      </trkpt>
      <trkpt lat="44.96129" lon="1.07552">
        <ele>202.80000305176</ele>
        <time>2011-08-17T08:53:50.000Z</time>
      </trkpt>
      <trkpt lat="44.9612" lon="1.07567">
        <ele>202.39999389648</ele>
        <time>2011-08-17T08:53:53.000Z</time>
      </trkpt>
      <trkpt lat="44.96107" lon="1.07586">
        <ele>201</ele>
        <time>2011-08-17T08:53:56.000Z</time>
      </trkpt>
      <trkpt lat="44.96095" lon="1.07609">
        <ele>198</ele>
        <time>2011-08-17T08:53:59.000Z</time>
      </trkpt>
      <trkpt lat="44.96083" lon="1.07658">
        <ele>193.80000305176</ele>
        <time>2011-08-17T08:54:04.000Z</time>
      </trkpt>
      <trkpt lat="44.96076" lon="1.07677">
        <ele>192.80000305176</ele>
        <time>2011-08-17T08:54:06.000Z</time>
      </trkpt>
      <trkpt lat="44.96069" lon="1.07699">
        <ele>191.39999389648</ele>
        <time>2011-08-17T08:54:08.000Z</time>
      </trkpt>
      <trkpt lat="44.96059" lon="1.07731">
        <ele>190</ele>
        <time>2011-08-17T08:54:11.000Z</time>
      </trkpt>
      <trkpt lat="44.96042" lon="1.07773">
        <ele>188.39999389648</ele>
        <time>2011-08-17T08:54:15.000Z</time>
      </trkpt>
      <trkpt lat="44.96027" lon="1.07823">
        <ele>188</ele>
        <time>2011-08-17T08:54:20.000Z</time>
      </trkpt>
      <trkpt lat="44.96017" lon="1.07839">
        <ele>188</ele>
        <time>2011-08-17T08:54:22.000Z</time>
      </trkpt>
      <trkpt lat="44.96006" lon="1.07853">
        <ele>187.39999389648</ele>
        <time>2011-08-17T08:54:24.000Z</time>
      </trkpt>
      <trkpt lat="44.95987" lon="1.07878">
        <ele>186.60000610352</ele>
        <time>2011-08-17T08:54:28.000Z</time>
      </trkpt>
      <trkpt lat="44.95967" lon="1.07893">
        <ele>183.60000610352</ele>
        <time>2011-08-17T08:54:32.000Z</time>
      </trkpt>
      <trkpt lat="44.95962" lon="1.07893">
        <ele>183.19999694824</ele>
        <time>2011-08-17T08:54:33.000Z</time>
      </trkpt>
      <trkpt lat="44.95949" lon="1.07888">
        <ele>181.80000305176</ele>
        <time>2011-08-17T08:54:35.000Z</time>
      </trkpt>
      <trkpt lat="44.95935" lon="1.07885">
        <ele>179.80000305176</ele>
        <time>2011-08-17T08:54:37.000Z</time>
      </trkpt>
      <trkpt lat="44.95895" lon="1.07884">
        <ele>178.80000305176</ele>
        <time>2011-08-17T08:54:42.000Z</time>
      </trkpt>
      <trkpt lat="44.95866" lon="1.07875">
        <ele>181.80000305176</ele>
        <time>2011-08-17T08:54:46.000Z</time>
      </trkpt>
      <trkpt lat="44.95856" lon="1.07867">
        <ele>182.60000610352</ele>
        <time>2011-08-17T08:54:48.000Z</time>
      </trkpt>
      <trkpt lat="44.95825" lon="1.07833">
        <ele>185.60000610352</ele>
        <time>2011-08-17T08:54:58.000Z</time>
      </trkpt>
      <trkpt lat="44.95801" lon="1.07805">
        <ele>187.39999389648</ele>
        <time>2011-08-17T08:55:08.000Z</time>
      </trkpt>
      <trkpt lat="44.95779" lon="1.07799">
        <ele>190</ele>
        <time>2011-08-17T08:55:18.000Z</time>
      </trkpt>
      <trkpt lat="44.95776" lon="1.07798">
        <ele>190.39999389648</ele>
        <time>2011-08-17T08:55:19.000Z</time>
      </trkpt>
      <trkpt lat="44.95756" lon="1.07779">
        <ele>191.80000305176</ele>
        <time>2011-08-17T08:55:31.000Z</time>
      </trkpt>
      <trkpt lat="44.95751" lon="1.07769">
        <ele>191.80000305176</ele>
        <time>2011-08-17T08:55:41.000Z</time>
      </trkpt>
      <trkpt lat="44.95749" lon="1.07766">
        <ele>192.19999694824</ele>
        <time>2011-08-17T08:57:35.000Z</time>
      </trkpt>
      <trkpt lat="44.95735" lon="1.07741">
        <ele>192.19999694824</ele>
        <time>2011-08-17T09:01:00.000Z</time>
      </trkpt>
      <trkpt lat="44.95729" lon="1.07719">
        <ele>190.39999389648</ele>
        <time>2011-08-17T09:01:04.000Z</time>
      </trkpt>
      <trkpt lat="44.95715" lon="1.07687">
        <ele>186.60000610352</ele>
        <time>2011-08-17T09:01:09.000Z</time>
      </trkpt>
      <trkpt lat="44.95712" lon="1.07682">
        <ele>186.60000610352</ele>
        <time>2011-08-17T09:01:10.000Z</time>
      </trkpt>
      <trkpt lat="44.95702" lon="1.07679">
        <ele>184.19999694824</ele>
        <time>2011-08-17T09:01:13.000Z</time>
      </trkpt>
      <trkpt lat="44.95694" lon="1.07674">
        <ele>181.80000305176</ele>
        <time>2011-08-17T09:01:18.000Z</time>
      </trkpt>
      <trkpt lat="44.95693" lon="1.0766">
        <ele>180.19999694824</ele>
        <time>2011-08-17T09:01:21.000Z</time>
      </trkpt>
      <trkpt lat="44.95694" lon="1.07637">
        <ele>178.80000305176</ele>
        <time>2011-08-17T09:01:24.000Z</time>
      </trkpt>
      <trkpt lat="44.95693" lon="1.07599">
        <ele>176</ele>
        <time>2011-08-17T09:01:28.000Z</time>
      </trkpt>
      <trkpt lat="44.95692" lon="1.07562">
        <ele>172.60000610352</ele>
        <time>2011-08-17T09:01:32.000Z</time>
      </trkpt>
      <trkpt lat="44.95692" lon="1.07546">
        <ele>170.60000610352</ele>
        <time>2011-08-17T09:01:34.000Z</time>
      </trkpt>
      <trkpt lat="44.95692" lon="1.07534">
        <ele>169.80000305176</ele>
        <time>2011-08-17T09:01:36.000Z</time>
      </trkpt>
      <trkpt lat="44.95677" lon="1.07514">
        <ele>166.80000305176</ele>
        <time>2011-08-17T09:01:40.000Z</time>
      </trkpt>
      <trkpt lat="44.95661" lon="1.07488">
        <ele>166.39999389648</ele>
        <time>2011-08-17T09:01:44.000Z</time>
      </trkpt>
      <trkpt lat="44.95647" lon="1.07472">
        <ele>169.19999694824</ele>
        <time>2011-08-17T09:01:48.000Z</time>
      </trkpt>
      <trkpt lat="44.95641" lon="1.0747">
        <ele>169.80000305176</ele>
        <time>2011-08-17T09:01:50.000Z</time>
      </trkpt>
      <trkpt lat="44.95631" lon="1.07465">
        <ele>170.60000610352</ele>
        <time>2011-08-17T09:01:54.000Z</time>
      </trkpt>
      <trkpt lat="44.95617" lon="1.07463">
        <ele>172.19999694824</ele>
        <time>2011-08-17T09:02:01.000Z</time>
      </trkpt>
      <trkpt lat="44.95604" lon="1.07459">
        <ele>174</ele>
        <time>2011-08-17T09:02:07.000Z</time>
      </trkpt>
      <trkpt lat="44.95579" lon="1.07457">
        <ele>177.80000305176</ele>
        <time>2011-08-17T09:02:18.000Z</time>
      </trkpt>
      <trkpt lat="44.95555" lon="1.07444">
        <ele>181.19999694824</ele>
        <time>2011-08-17T09:02:30.000Z</time>
      </trkpt>
      <trkpt lat="44.95545" lon="1.07437">
        <ele>182.60000610352</ele>
        <time>2011-08-17T09:02:35.000Z</time>
      </trkpt>
      <trkpt lat="44.95524" lon="1.07426">
        <ele>183.60000610352</ele>
        <time>2011-08-17T09:02:45.000Z</time>
      </trkpt>
      <trkpt lat="44.95512" lon="1.0743">
        <ele>182.60000610352</ele>
        <time>2011-08-17T09:02:49.000Z</time>
      </trkpt>
      <trkpt lat="44.95488" lon="1.07438">
        <ele>180.80000305176</ele>
        <time>2011-08-17T09:02:53.000Z</time>
      </trkpt>
      <trkpt lat="44.95471" lon="1.07442">
        <ele>180.80000305176</ele>
        <time>2011-08-17T09:02:56.000Z</time>
      </trkpt>
      <trkpt lat="44.95444" lon="1.07437">
        <ele>182.19999694824</ele>
        <time>2011-08-17T09:03:02.000Z</time>
      </trkpt>
      <trkpt lat="44.9541" lon="1.07419">
        <ele>184.60000610352</ele>
        <time>2011-08-17T09:03:14.000Z</time>
      </trkpt>
      <trkpt lat="44.95408" lon="1.07412">
        <ele>185</ele>
        <time>2011-08-17T09:03:17.000Z</time>
      </trkpt>
      <trkpt lat="44.9541" lon="1.07398">
        <ele>185.60000610352</ele>
        <time>2011-08-17T09:03:21.000Z</time>
      </trkpt>
      <trkpt lat="44.95415" lon="1.07353">
        <ele>187.39999389648</ele>
        <time>2011-08-17T09:03:34.000Z</time>
      </trkpt>
      <trkpt lat="44.95427" lon="1.07326">
        <ele>190</ele>
        <time>2011-08-17T09:03:46.000Z</time>
      </trkpt>
      <trkpt lat="44.9542" lon="1.07309">
        <ele>189.39999389648</ele>
        <time>2011-08-17T09:03:53.000Z</time>
      </trkpt>
      <trkpt lat="44.95406" lon="1.07277">
        <ele>186.60000610352</ele>
        <time>2011-08-17T09:03:58.000Z</time>
      </trkpt>
      <trkpt lat="44.95395" lon="1.07254">
        <ele>184.19999694824</ele>
        <time>2011-08-17T09:04:01.000Z</time>
      </trkpt>
      <trkpt lat="44.95363" lon="1.07234">
        <ele>179.39999389648</ele>
        <time>2011-08-17T09:04:06.000Z</time>
      </trkpt>
      <trkpt lat="44.9534" lon="1.07241">
        <ele>176.39999389648</ele>
        <time>2011-08-17T09:04:09.000Z</time>
      </trkpt>
      <trkpt lat="44.95333" lon="1.07246">
        <ele>175.39999389648</ele>
        <time>2011-08-17T09:04:10.000Z</time>
      </trkpt>
      <trkpt lat="44.95309" lon="1.07265">
        <ele>172.60000610352</ele>
        <time>2011-08-17T09:04:13.000Z</time>
      </trkpt>
      <trkpt lat="44.95272" lon="1.0727">
        <ele>168.19999694824</ele>
        <time>2011-08-17T09:04:17.000Z</time>
      </trkpt>
      <trkpt lat="44.95243" lon="1.0725">
        <ele>165.39999389648</ele>
        <time>2011-08-17T09:04:21.000Z</time>
      </trkpt>
      <trkpt lat="44.95227" lon="1.07191">
        <ele>158.19999694824</ele>
        <time>2011-08-17T09:04:27.000Z</time>
      </trkpt>
      <trkpt lat="44.95234" lon="1.07172">
        <ele>156.80000305176</ele>
        <time>2011-08-17T09:04:29.000Z</time>
      </trkpt>
      <trkpt lat="44.95242" lon="1.07154">
        <ele>153.80000305176</ele>
        <time>2011-08-17T09:04:31.000Z</time>
      </trkpt>
      <trkpt lat="44.95239" lon="1.07118">
        <ele>150.39999389648</ele>
        <time>2011-08-17T09:04:35.000Z</time>
      </trkpt>
      <trkpt lat="44.95219" lon="1.07068">
        <ele>146.19999694824</ele>
        <time>2011-08-17T09:04:40.000Z</time>
      </trkpt>
      <trkpt lat="44.95215" lon="1.07058">
        <ele>144.80000305176</ele>
        <time>2011-08-17T09:04:41.000Z</time>
      </trkpt>
      <trkpt lat="44.95188" lon="1.07021">
        <ele>140.80000305176</ele>
        <time>2011-08-17T09:04:46.000Z</time>
      </trkpt>
      <trkpt lat="44.95181" lon="1.07014">
        <ele>140</ele>
        <time>2011-08-17T09:04:47.000Z</time>
      </trkpt>
      <trkpt lat="44.95166" lon="1.07002">
        <ele>138.39999389648</ele>
        <time>2011-08-17T09:04:49.000Z</time>
      </trkpt>
      <trkpt lat="44.95148" lon="1.06992">
        <ele>136</ele>
        <time>2011-08-17T09:04:52.000Z</time>
      </trkpt>
      <trkpt lat="44.9514" lon="1.06986">
        <ele>135</ele>
        <time>2011-08-17T09:04:59.000Z</time>
      </trkpt>
      <trkpt lat="44.95136" lon="1.06985">
        <ele>134.19999694824</ele>
        <time>2011-08-17T09:05:12.000Z</time>
      </trkpt>
      <trkpt lat="44.95136" lon="1.06985">
        <ele>133.19999694824</ele>
        <time>2011-08-17T09:05:23.000Z</time>
      </trkpt>
      <trkpt lat="44.95136" lon="1.06985">
        <ele>133.60000610352</ele>
        <time>2011-08-17T09:06:18.000Z</time>
      </trkpt>
      <trkpt lat="44.95137" lon="1.06987">
        <ele>133.19999694824</ele>
        <time>2011-08-17T09:08:57.000Z</time>
      </trkpt>
      <trkpt lat="44.95134" lon="1.06984">
        <ele>134.60000610352</ele>
        <time>2011-08-17T09:16:40.000Z</time>
      </trkpt>
      <trkpt lat="44.95111" lon="1.06972">
        <ele>133.19999694824</ele>
        <time>2011-08-17T09:16:48.000Z</time>
      </trkpt>
      <trkpt lat="44.951" lon="1.06968">
        <ele>132.19999694824</ele>
        <time>2011-08-17T09:16:50.000Z</time>
      </trkpt>
      <trkpt lat="44.9509" lon="1.06966">
        <ele>131.19999694824</ele>
        <time>2011-08-17T09:16:52.000Z</time>
      </trkpt>
      <trkpt lat="44.95063" lon="1.0696">
        <ele>128.39999389648</ele>
        <time>2011-08-17T09:16:56.000Z</time>
      </trkpt>
      <trkpt lat="44.95031" lon="1.06956">
        <ele>125.40000152588</ele>
        <time>2011-08-17T09:17:01.000Z</time>
      </trkpt>
      <trkpt lat="44.95015" lon="1.06952">
        <ele>123.59999847412</ele>
        <time>2011-08-17T09:17:04.000Z</time>
      </trkpt>
      <trkpt lat="44.9499" lon="1.06937">
        <ele>121.59999847412</ele>
        <time>2011-08-17T09:17:08.000Z</time>
      </trkpt>
      <trkpt lat="44.94968" lon="1.06926">
        <ele>119.80000305176</ele>
        <time>2011-08-17T09:17:12.000Z</time>
      </trkpt>
      <trkpt lat="44.94957" lon="1.06918">
        <ele>118.80000305176</ele>
        <time>2011-08-17T09:17:14.000Z</time>
      </trkpt>
      <trkpt lat="44.94948" lon="1.06909">
        <ele>117.40000152588</ele>
        <time>2011-08-17T09:17:16.000Z</time>
      </trkpt>
      <trkpt lat="44.94935" lon="1.06901">
        <ele>115.80000305176</ele>
        <time>2011-08-17T09:17:19.000Z</time>
      </trkpt>
      <trkpt lat="44.94925" lon="1.06893">
        <ele>114</ele>
        <time>2011-08-17T09:17:21.000Z</time>
      </trkpt>
      <trkpt lat="44.94892" lon="1.06869">
        <ele>110.19999694824</ele>
        <time>2011-08-17T09:17:27.000Z</time>
      </trkpt>
      <trkpt lat="44.94881" lon="1.06865">
        <ele>108.59999847412</ele>
        <time>2011-08-17T09:17:30.000Z</time>
      </trkpt>
      <trkpt lat="44.94865" lon="1.06863">
        <ele>106.19999694824</ele>
        <time>2011-08-17T09:17:35.000Z</time>
      </trkpt>
      <trkpt lat="44.94854" lon="1.0686">
        <ele>103.40000152588</ele>
        <time>2011-08-17T09:17:40.000Z</time>
      </trkpt>
      <trkpt lat="44.94837" lon="1.06862">
        <ele>99.599998474121</ele>
        <time>2011-08-17T09:17:46.000Z</time>
      </trkpt>
      <trkpt lat="44.94822" lon="1.0686">
        <ele>99.599998474121</ele>
        <time>2011-08-17T09:18:07.000Z</time>
      </trkpt>
      <trkpt lat="44.94815" lon="1.06858">
        <ele>100</ele>
        <time>2011-08-17T09:18:35.000Z</time>
      </trkpt>
      <trkpt lat="44.94814" lon="1.06858">
        <ele>101</ele>
        <time>2011-08-17T09:19:26.000Z</time>
      </trkpt>
      <trkpt lat="44.94796" lon="1.06858">
        <ele>103.40000152588</ele>
        <time>2011-08-17T09:21:11.000Z</time>
      </trkpt>
      <trkpt lat="44.9479" lon="1.06857">
        <ele>103.40000152588</ele>
        <time>2011-08-17T09:22:25.000Z</time>
      </trkpt>
      <trkpt lat="44.9479" lon="1.06857">
        <ele>104.40000152588</ele>
        <time>2011-08-17T09:22:50.000Z</time>
      </trkpt>
      <trkpt lat="44.94788" lon="1.06857">
        <ele>105.40000152588</ele>
        <time>2011-08-17T09:24:43.000Z</time>
      </trkpt>
      <trkpt lat="44.94786" lon="1.06856">
        <ele>108.59999847412</ele>
        <time>2011-08-17T09:28:15.000Z</time>
      </trkpt>
      <trkpt lat="44.94784" lon="1.06856">
        <ele>108.19999694824</ele>
        <time>2011-08-17T09:28:34.000Z</time>
      </trkpt>
      <trkpt lat="44.94785" lon="1.06856">
        <ele>108.59999847412</ele>
        <time>2011-08-17T09:29:03.000Z</time>
      </trkpt>
      <trkpt lat="44.94784" lon="1.06857">
        <ele>109.19999694824</ele>
        <time>2011-08-17T09:30:28.000Z</time>
      </trkpt>
      <trkpt lat="44.9477" lon="1.06859">
        <ele>109.59999847412</ele>
        <time>2011-08-17T09:31:47.000Z</time>
      </trkpt>
      <trkpt lat="44.94766" lon="1.06857">
        <ele>109.19999694824</ele>
        <time>2011-08-17T09:31:48.000Z</time>
      </trkpt>
      <trkpt lat="44.94756" lon="1.06854">
        <ele>108.19999694824</ele>
        <time>2011-08-17T09:31:50.000Z</time>
      </trkpt>
      <trkpt lat="44.94677" lon="1.06871">
        <ele>104.80000305176</ele>
        <time>2011-08-17T09:32:01.000Z</time>
      </trkpt>
      <trkpt lat="44.94579" lon="1.06893">
        <ele>104.40000152588</ele>
        <time>2011-08-17T09:32:15.000Z</time>
      </trkpt>
      <trkpt lat="44.9457" lon="1.06896">
        <ele>105.40000152588</ele>
        <time>2011-08-17T09:32:18.000Z</time>
      </trkpt>
      <trkpt lat="44.94568" lon="1.06902">
        <ele>105.40000152588</ele>
        <time>2011-08-17T09:32:32.000Z</time>
      </trkpt>
      <trkpt lat="44.94569" lon="1.06901">
        <ele>105.40000152588</ele>
        <time>2011-08-17T09:34:00.000Z</time>
      </trkpt>
      <trkpt lat="44.9457" lon="1.06916">
        <ele>104.80000305176</ele>
        <time>2011-08-17T09:34:05.000Z</time>
      </trkpt>
      <trkpt lat="44.94577" lon="1.06938">
        <ele>104.40000152588</ele>
        <time>2011-08-17T09:34:09.000Z</time>
      </trkpt>
      <trkpt lat="44.94581" lon="1.06968">
        <ele>103.40000152588</ele>
        <time>2011-08-17T09:34:13.000Z</time>
      </trkpt>
      <trkpt lat="44.94577" lon="1.07004">
        <ele>103.40000152588</ele>
        <time>2011-08-17T09:34:18.000Z</time>
      </trkpt>
      <trkpt lat="44.94569" lon="1.07046">
        <ele>103.40000152588</ele>
        <time>2011-08-17T09:34:26.000Z</time>
      </trkpt>
      <trkpt lat="44.94545" lon="1.07129">
        <ele>103.80000305176</ele>
        <time>2011-08-17T09:34:40.000Z</time>
      </trkpt>
      <trkpt lat="44.94538" lon="1.07159">
        <ele>103.40000152588</ele>
        <time>2011-08-17T09:34:45.000Z</time>
      </trkpt>
      <trkpt lat="44.94532" lon="1.07175">
        <ele>103.80000305176</ele>
        <time>2011-08-17T09:34:48.000Z</time>
      </trkpt>
      <trkpt lat="44.94516" lon="1.07268">
        <ele>104.40000152588</ele>
        <time>2011-08-17T09:35:02.000Z</time>
      </trkpt>
      <trkpt lat="44.94515" lon="1.07274">
        <ele>103.80000305176</ele>
        <time>2011-08-17T09:35:03.000Z</time>
      </trkpt>
      <trkpt lat="44.94506" lon="1.07334">
        <ele>104.80000305176</ele>
        <time>2011-08-17T09:35:12.000Z</time>
      </trkpt>
      <trkpt lat="44.94499" lon="1.07374">
        <ele>105.40000152588</ele>
        <time>2011-08-17T09:35:18.000Z</time>
      </trkpt>
      <trkpt lat="44.94496" lon="1.07418">
        <ele>106.19999694824</ele>
        <time>2011-08-17T09:35:25.000Z</time>
      </trkpt>
      <trkpt lat="44.94494" lon="1.07471">
        <ele>107.19999694824</ele>
        <time>2011-08-17T09:35:33.000Z</time>
      </trkpt>
      <trkpt lat="44.94483" lon="1.07528">
        <ele>110.19999694824</ele>
        <time>2011-08-17T09:35:43.000Z</time>
      </trkpt>
      <trkpt lat="44.94456" lon="1.07617">
        <ele>109.59999847412</ele>
        <time>2011-08-17T09:35:57.000Z</time>
      </trkpt>
      <trkpt lat="44.94447" lon="1.07649">
        <ele>109.59999847412</ele>
        <time>2011-08-17T09:36:01.000Z</time>
      </trkpt>
      <trkpt lat="44.94443" lon="1.07673">
        <ele>109.19999694824</ele>
        <time>2011-08-17T09:36:04.000Z</time>
      </trkpt>
      <trkpt lat="44.94442" lon="1.07696">
        <ele>109.19999694824</ele>
        <time>2011-08-17T09:36:07.000Z</time>
      </trkpt>
      <trkpt lat="44.94451" lon="1.07768">
        <ele>109.59999847412</ele>
        <time>2011-08-17T09:36:16.000Z</time>
      </trkpt>
      <trkpt lat="44.94457" lon="1.0782">
        <ele>110.19999694824</ele>
        <time>2011-08-17T09:36:23.000Z</time>
      </trkpt>
      <trkpt lat="44.94458" lon="1.0785">
        <ele>110.19999694824</ele>
        <time>2011-08-17T09:36:27.000Z</time>
      </trkpt>
      <trkpt lat="44.94469" lon="1.07918">
        <ele>110.59999847412</ele>
        <time>2011-08-17T09:36:37.000Z</time>
      </trkpt>
      <trkpt lat="44.94479" lon="1.07945">
        <ele>109.59999847412</ele>
        <time>2011-08-17T09:36:41.000Z</time>
      </trkpt>
      <trkpt lat="44.94487" lon="1.0796">
        <ele>109.19999694824</ele>
        <time>2011-08-17T09:36:43.000Z</time>
      </trkpt>
      <trkpt lat="44.94498" lon="1.07974">
        <ele>108.19999694824</ele>
        <time>2011-08-17T09:36:45.000Z</time>
      </trkpt>
      <trkpt lat="44.94528" lon="1.08011">
        <ele>106.80000305176</ele>
        <time>2011-08-17T09:36:50.000Z</time>
      </trkpt>
      <trkpt lat="44.94546" lon="1.0806">
        <ele>104.80000305176</ele>
        <time>2011-08-17T09:36:55.000Z</time>
      </trkpt>
      <trkpt lat="44.94545" lon="1.08083">
        <ele>104.40000152588</ele>
        <time>2011-08-17T09:36:57.000Z</time>
      </trkpt>
      <trkpt lat="44.94528" lon="1.08157">
        <ele>104.40000152588</ele>
        <time>2011-08-17T09:37:04.000Z</time>
      </trkpt>
      <trkpt lat="44.94514" lon="1.08268">
        <ele>103.80000305176</ele>
        <time>2011-08-17T09:37:17.000Z</time>
      </trkpt>
      <trkpt lat="44.94504" lon="1.08376">
        <ele>105.40000152588</ele>
        <time>2011-08-17T09:37:30.000Z</time>
      </trkpt>
      <trkpt lat="44.94498" lon="1.08413">
        <ele>104.80000305176</ele>
        <time>2011-08-17T09:37:35.000Z</time>
      </trkpt>
      <trkpt lat="44.9449" lon="1.08495">
        <ele>104.80000305176</ele>
        <time>2011-08-17T09:37:48.000Z</time>
      </trkpt>
      <trkpt lat="44.9449" lon="1.08498">
        <ele>105.40000152588</ele>
        <time>2011-08-17T09:37:49.000Z</time>
      </trkpt>
      <trkpt lat="44.94476" lon="1.08497">
        <ele>106.80000305176</ele>
        <time>2011-08-17T09:37:57.000Z</time>
      </trkpt>
      <trkpt lat="44.94456" lon="1.08486">
        <ele>108.19999694824</ele>
        <time>2011-08-17T09:38:09.000Z</time>
      </trkpt>
      <trkpt lat="44.94451" lon="1.08484">
        <ele>108.59999847412</ele>
        <time>2011-08-17T09:38:11.000Z</time>
      </trkpt>
      <trkpt lat="44.94447" lon="1.0848">
        <ele>109.19999694824</ele>
        <time>2011-08-17T09:38:14.000Z</time>
      </trkpt>
      <trkpt lat="44.94425" lon="1.08472">
        <ele>110.59999847412</ele>
        <time>2011-08-17T09:38:25.000Z</time>
      </trkpt>
      <trkpt lat="44.94395" lon="1.08456">
        <ele>113.40000152588</ele>
        <time>2011-08-17T09:38:37.000Z</time>
      </trkpt>
      <trkpt lat="44.94388" lon="1.08459">
        <ele>115</ele>
        <time>2011-08-17T09:38:42.000Z</time>
      </trkpt>
      <trkpt lat="44.94358" lon="1.08458">
        <ele>117.40000152588</ele>
        <time>2011-08-17T09:38:53.000Z</time>
      </trkpt>
      <trkpt lat="44.94352" lon="1.08459">
        <ele>118.19999694824</ele>
        <time>2011-08-17T09:38:55.000Z</time>
      </trkpt>
      <trkpt lat="44.94346" lon="1.08461">
        <ele>118.80000305176</ele>
        <time>2011-08-17T09:38:58.000Z</time>
      </trkpt>
      <trkpt lat="44.94337" lon="1.08465">
        <ele>119.80000305176</ele>
        <time>2011-08-17T09:39:02.000Z</time>
      </trkpt>
      <trkpt lat="44.9433" lon="1.08468">
        <ele>120.59999847412</ele>
        <time>2011-08-17T09:39:05.000Z</time>
      </trkpt>
      <trkpt lat="44.94323" lon="1.08473">
        <ele>122.19999694824</ele>
        <time>2011-08-17T09:39:11.000Z</time>
      </trkpt>
      <trkpt lat="44.94325" lon="1.08477">
        <ele>122.59999847412</ele>
        <time>2011-08-17T09:39:15.000Z</time>
      </trkpt>
      <trkpt lat="44.94329" lon="1.08481">
        <ele>123.59999847412</ele>
        <time>2011-08-17T09:39:19.000Z</time>
      </trkpt>
      <trkpt lat="44.94331" lon="1.08482">
        <ele>124.59999847412</ele>
        <time>2011-08-17T09:39:22.000Z</time>
      </trkpt>
      <trkpt lat="44.94329" lon="1.08487">
        <ele>124.59999847412</ele>
        <time>2011-08-17T09:39:25.000Z</time>
      </trkpt>
      <trkpt lat="44.94324" lon="1.0849">
        <ele>125.40000152588</ele>
        <time>2011-08-17T09:39:29.000Z</time>
      </trkpt>
      <trkpt lat="44.94317" lon="1.08494">
        <ele>126.40000152588</ele>
        <time>2011-08-17T09:39:34.000Z</time>
      </trkpt>
      <trkpt lat="44.94307" lon="1.08498">
        <ele>128.39999389648</ele>
        <time>2011-08-17T09:39:42.000Z</time>
      </trkpt>
      <trkpt lat="44.94303" lon="1.08497">
        <ele>128.39999389648</ele>
        <time>2011-08-17T09:39:45.000Z</time>
      </trkpt>
      <trkpt lat="44.94287" lon="1.08497">
        <ele>131.19999694824</ele>
        <time>2011-08-17T09:39:58.000Z</time>
      </trkpt>
      <trkpt lat="44.94274" lon="1.08493">
        <ele>133.19999694824</ele>
        <time>2011-08-17T09:40:08.000Z</time>
      </trkpt>
      <trkpt lat="44.94265" lon="1.08489">
        <ele>134.60000610352</ele>
        <time>2011-08-17T09:40:16.000Z</time>
      </trkpt>
      <trkpt lat="44.94256" lon="1.08486">
        <ele>136</ele>
        <time>2011-08-17T09:40:23.000Z</time>
      </trkpt>
      <trkpt lat="44.94253" lon="1.08489">
        <ele>137</ele>
        <time>2011-08-17T09:40:27.000Z</time>
      </trkpt>
      <trkpt lat="44.94253" lon="1.08497">
        <ele>137.60000610352</ele>
        <time>2011-08-17T09:40:31.000Z</time>
      </trkpt>
      <trkpt lat="44.94261" lon="1.08512">
        <ele>140</ele>
        <time>2011-08-17T09:40:43.000Z</time>
      </trkpt>
      <trkpt lat="44.94262" lon="1.08514">
        <ele>140.39999389648</ele>
        <time>2011-08-17T09:40:44.000Z</time>
      </trkpt>
      <trkpt lat="44.94267" lon="1.08534">
        <ele>142.39999389648</ele>
        <time>2011-08-17T09:40:54.000Z</time>
      </trkpt>
      <trkpt lat="44.94267" lon="1.08537">
        <ele>142.39999389648</ele>
        <time>2011-08-17T09:40:55.000Z</time>
      </trkpt>
      <trkpt lat="44.94267" lon="1.08543">
        <ele>142.39999389648</ele>
        <time>2011-08-17T09:40:57.000Z</time>
      </trkpt>
      <trkpt lat="44.94278" lon="1.08571">
        <ele>145.19999694824</ele>
        <time>2011-08-17T09:41:09.000Z</time>
      </trkpt>
      <trkpt lat="44.94287" lon="1.08576">
        <ele>146.19999694824</ele>
        <time>2011-08-17T09:41:14.000Z</time>
      </trkpt>
      <trkpt lat="44.94297" lon="1.08597">
        <ele>148.60000610352</ele>
        <time>2011-08-17T09:41:24.000Z</time>
      </trkpt>
      <trkpt lat="44.94304" lon="1.08612">
        <ele>150</ele>
        <time>2011-08-17T09:41:32.000Z</time>
      </trkpt>
      <trkpt lat="44.9431" lon="1.08638">
        <ele>153.39999389648</ele>
        <time>2011-08-17T09:41:43.000Z</time>
      </trkpt>
      <trkpt lat="44.94314" lon="1.08652">
        <ele>153.39999389648</ele>
        <time>2011-08-17T09:41:48.000Z</time>
      </trkpt>
      <trkpt lat="44.94312" lon="1.087">
        <ele>153.39999389648</ele>
        <time>2011-08-17T09:41:59.000Z</time>
      </trkpt>
      <trkpt lat="44.94311" lon="1.08708">
        <ele>153.39999389648</ele>
        <time>2011-08-17T09:42:02.000Z</time>
      </trkpt>
      <trkpt lat="44.94305" lon="1.08707">
        <ele>155.19999694824</ele>
        <time>2011-08-17T09:42:12.000Z</time>
      </trkpt>
      <trkpt lat="44.94304" lon="1.08706">
        <ele>155.80000305176</ele>
        <time>2011-08-17T09:42:13.000Z</time>
      </trkpt>
      <trkpt lat="44.943" lon="1.08702">
        <ele>156.80000305176</ele>
        <time>2011-08-17T09:42:17.000Z</time>
      </trkpt>
      <trkpt lat="44.94287" lon="1.08681">
        <ele>159.60000610352</ele>
        <time>2011-08-17T09:42:31.000Z</time>
      </trkpt>
      <trkpt lat="44.94272" lon="1.08663">
        <ele>160.60000610352</ele>
        <time>2011-08-17T09:42:40.000Z</time>
      </trkpt>
      <trkpt lat="44.94267" lon="1.08659">
        <ele>161</ele>
        <time>2011-08-17T09:42:43.000Z</time>
      </trkpt>
      <trkpt lat="44.94255" lon="1.08665">
        <ele>164</ele>
        <time>2011-08-17T09:42:54.000Z</time>
      </trkpt>
      <trkpt lat="44.94244" lon="1.08668">
        <ele>165.80000305176</ele>
        <time>2011-08-17T09:43:04.000Z</time>
      </trkpt>
      <trkpt lat="44.94228" lon="1.08679">
        <ele>168.80000305176</ele>
        <time>2011-08-17T09:43:15.000Z</time>
      </trkpt>
      <trkpt lat="44.94227" lon="1.0868">
        <ele>168.80000305176</ele>
        <time>2011-08-17T09:43:16.000Z</time>
      </trkpt>
      <trkpt lat="44.9421" lon="1.08691">
        <ele>171.60000610352</ele>
        <time>2011-08-17T09:43:31.000Z</time>
      </trkpt>
      <trkpt lat="44.94207" lon="1.08694">
        <ele>172.19999694824</ele>
        <time>2011-08-17T09:43:33.000Z</time>
      </trkpt>
      <trkpt lat="44.942" lon="1.08699">
        <ele>173.60000610352</ele>
        <time>2011-08-17T09:43:40.000Z</time>
      </trkpt>
      <trkpt lat="44.94189" lon="1.08706">
        <ele>175</ele>
        <time>2011-08-17T09:43:51.000Z</time>
      </trkpt>
      <trkpt lat="44.94178" lon="1.08714">
        <ele>177.39999389648</ele>
        <time>2011-08-17T09:44:02.000Z</time>
      </trkpt>
      <trkpt lat="44.94165" lon="1.08726">
        <ele>179.39999389648</ele>
        <time>2011-08-17T09:44:14.000Z</time>
      </trkpt>
      <trkpt lat="44.94158" lon="1.08732">
        <ele>180.19999694824</ele>
        <time>2011-08-17T09:44:20.000Z</time>
      </trkpt>
      <trkpt lat="44.94141" lon="1.08745">
        <ele>183.19999694824</ele>
        <time>2011-08-17T09:44:32.000Z</time>
      </trkpt>
      <trkpt lat="44.94128" lon="1.08756">
        <ele>185</ele>
        <time>2011-08-17T09:44:42.000Z</time>
      </trkpt>
      <trkpt lat="44.94109" lon="1.08773">
        <ele>188.39999389648</ele>
        <time>2011-08-17T09:44:55.000Z</time>
      </trkpt>
      <trkpt lat="44.94108" lon="1.08776">
        <ele>189</ele>
        <time>2011-08-17T09:44:57.000Z</time>
      </trkpt>
      <trkpt lat="44.94102" lon="1.08781">
        <ele>189.39999389648</ele>
        <time>2011-08-17T09:45:01.000Z</time>
      </trkpt>
      <trkpt lat="44.94093" lon="1.08787">
        <ele>190.39999389648</ele>
        <time>2011-08-17T09:45:14.000Z</time>
      </trkpt>
      <trkpt lat="44.94093" lon="1.08787">
        <ele>190.39999389648</ele>
        <time>2011-08-17T09:46:18.000Z</time>
      </trkpt>
      <trkpt lat="44.94093" lon="1.08787">
        <ele>190</ele>
        <time>2011-08-17T09:47:40.000Z</time>
      </trkpt>
      <trkpt lat="44.94082" lon="1.08787">
        <ele>190.39999389648</ele>
        <time>2011-08-17T09:48:44.000Z</time>
      </trkpt>
      <trkpt lat="44.94039" lon="1.08782">
        <ele>192.80000305176</ele>
        <time>2011-08-17T09:48:59.000Z</time>
      </trkpt>
      <trkpt lat="44.93997" lon="1.08758">
        <ele>194.80000305176</ele>
        <time>2011-08-17T09:49:15.000Z</time>
      </trkpt>
      <trkpt lat="44.93971" lon="1.08738">
        <ele>195.60000610352</ele>
        <time>2011-08-17T09:49:25.000Z</time>
      </trkpt>
      <trkpt lat="44.93937" lon="1.08713">
        <ele>197.60000610352</ele>
        <time>2011-08-17T09:49:38.000Z</time>
      </trkpt>
      <trkpt lat="44.939" lon="1.08681">
        <ele>198.60000610352</ele>
        <time>2011-08-17T09:49:50.000Z</time>
      </trkpt>
      <trkpt lat="44.93867" lon="1.08639">
        <ele>202</ele>
        <time>2011-08-17T09:50:03.000Z</time>
      </trkpt>
      <trkpt lat="44.9385" lon="1.0861">
        <ele>203.80000305176</ele>
        <time>2011-08-17T09:50:13.000Z</time>
      </trkpt>
      <trkpt lat="44.93842" lon="1.08616">
        <ele>204.39999389648</ele>
        <time>2011-08-17T09:50:17.000Z</time>
      </trkpt>
      <trkpt lat="44.93836" lon="1.08628">
        <ele>203.80000305176</ele>
        <time>2011-08-17T09:50:20.000Z</time>
      </trkpt>
      <trkpt lat="44.93824" lon="1.08654">
        <ele>202.39999389648</ele>
        <time>2011-08-17T09:50:25.000Z</time>
      </trkpt>
      <trkpt lat="44.93819" lon="1.08664">
        <ele>202</ele>
        <time>2011-08-17T09:50:27.000Z</time>
      </trkpt>
      <trkpt lat="44.93813" lon="1.08674">
        <ele>201</ele>
        <time>2011-08-17T09:50:29.000Z</time>
      </trkpt>
      <trkpt lat="44.93805" lon="1.0868">
        <ele>199.60000610352</ele>
        <time>2011-08-17T09:50:31.000Z</time>
      </trkpt>
      <trkpt lat="44.93783" lon="1.08682">
        <ele>195.60000610352</ele>
        <time>2011-08-17T09:50:35.000Z</time>
      </trkpt>
      <trkpt lat="44.93743" lon="1.08683">
        <ele>190</ele>
        <time>2011-08-17T09:50:41.000Z</time>
      </trkpt>
      <trkpt lat="44.93703" lon="1.08704">
        <ele>188.39999389648</ele>
        <time>2011-08-17T09:50:47.000Z</time>
      </trkpt>
      <trkpt lat="44.93686" lon="1.08719">
        <ele>184.60000610352</ele>
        <time>2011-08-17T09:50:51.000Z</time>
      </trkpt>
      <trkpt lat="44.93683" lon="1.08727">
        <ele>184.60000610352</ele>
        <time>2011-08-17T09:50:52.000Z</time>
      </trkpt>
      <trkpt lat="44.9368" lon="1.08771">
        <ele>182.60000610352</ele>
        <time>2011-08-17T09:50:57.000Z</time>
      </trkpt>
      <trkpt lat="44.93683" lon="1.08797">
        <ele>181.80000305176</ele>
        <time>2011-08-17T09:51:00.000Z</time>
      </trkpt>
      <trkpt lat="44.93681" lon="1.08835">
        <ele>180.80000305176</ele>
        <time>2011-08-17T09:51:05.000Z</time>
      </trkpt>
      <trkpt lat="44.93677" lon="1.08858">
        <ele>179.39999389648</ele>
        <time>2011-08-17T09:51:08.000Z</time>
      </trkpt>
      <trkpt lat="44.93674" lon="1.0888">
        <ele>178.39999389648</ele>
        <time>2011-08-17T09:51:15.000Z</time>
      </trkpt>
      <trkpt lat="44.93674" lon="1.08899">
        <ele>175.39999389648</ele>
        <time>2011-08-17T09:51:19.000Z</time>
      </trkpt>
      <trkpt lat="44.9368" lon="1.08919">
        <ele>171.60000610352</ele>
        <time>2011-08-17T09:51:23.000Z</time>
      </trkpt>
      <trkpt lat="44.93682" lon="1.08924">
        <ele>171.60000610352</ele>
        <time>2011-08-17T09:51:24.000Z</time>
      </trkpt>
      <trkpt lat="44.93683" lon="1.08933">
        <ele>170.19999694824</ele>
        <time>2011-08-17T09:51:26.000Z</time>
      </trkpt>
      <trkpt lat="44.93684" lon="1.08937">
        <ele>170.19999694824</ele>
        <time>2011-08-17T09:51:27.000Z</time>
      </trkpt>
      <trkpt lat="44.93687" lon="1.08953">
        <ele>167.80000305176</ele>
        <time>2011-08-17T09:51:31.000Z</time>
      </trkpt>
      <trkpt lat="44.93693" lon="1.08962">
        <ele>166.39999389648</ele>
        <time>2011-08-17T09:51:34.000Z</time>
      </trkpt>
      <trkpt lat="44.93695" lon="1.08965">
        <ele>165.80000305176</ele>
        <time>2011-08-17T09:51:36.000Z</time>
      </trkpt>
      <trkpt lat="44.9371" lon="1.0898">
        <ele>164</ele>
        <time>2011-08-17T09:51:41.000Z</time>
      </trkpt>
      <trkpt lat="44.93716" lon="1.08984">
        <ele>164</ele>
        <time>2011-08-17T09:51:43.000Z</time>
      </trkpt>
      <trkpt lat="44.93737" lon="1.08987">
        <ele>162</ele>
        <time>2011-08-17T09:51:48.000Z</time>
      </trkpt>
      <trkpt lat="44.93753" lon="1.08994">
        <ele>159.19999694824</ele>
        <time>2011-08-17T09:51:53.000Z</time>
      </trkpt>
      <trkpt lat="44.93765" lon="1.08998">
        <ele>157.60000610352</ele>
        <time>2011-08-17T09:51:57.000Z</time>
      </trkpt>
      <trkpt lat="44.93786" lon="1.09012">
        <ele>153.80000305176</ele>
        <time>2011-08-17T09:52:02.000Z</time>
      </trkpt>
      <trkpt lat="44.93808" lon="1.09027">
        <ele>150.39999389648</ele>
        <time>2011-08-17T09:52:07.000Z</time>
      </trkpt>
      <trkpt lat="44.93812" lon="1.0903">
        <ele>150.39999389648</ele>
        <time>2011-08-17T09:52:08.000Z</time>
      </trkpt>
      <trkpt lat="44.93832" lon="1.09082">
        <ele>148</ele>
        <time>2011-08-17T09:52:20.000Z</time>
      </trkpt>
      <trkpt lat="44.93891" lon="1.09163">
        <ele>146.60000610352</ele>
        <time>2011-08-17T09:52:30.000Z</time>
      </trkpt>
      <trkpt lat="44.93926" lon="1.09207">
        <ele>145.19999694824</ele>
        <time>2011-08-17T09:52:36.000Z</time>
      </trkpt>
      <trkpt lat="44.93955" lon="1.09229">
        <ele>140.80000305176</ele>
        <time>2011-08-17T09:52:42.000Z</time>
      </trkpt>
      <trkpt lat="44.93959" lon="1.09234">
        <ele>140.39999389648</ele>
        <time>2011-08-17T09:52:43.000Z</time>
      </trkpt>
      <trkpt lat="44.93972" lon="1.09246">
        <ele>138</ele>
        <time>2011-08-17T09:52:46.000Z</time>
      </trkpt>
      <trkpt lat="44.93973" lon="1.09268">
        <ele>136</ele>
        <time>2011-08-17T09:52:52.000Z</time>
      </trkpt>
      <trkpt lat="44.93968" lon="1.09279">
        <ele>134.60000610352</ele>
        <time>2011-08-17T09:52:55.000Z</time>
      </trkpt>
      <trkpt lat="44.9396" lon="1.09286">
        <ele>133.60000610352</ele>
        <time>2011-08-17T09:52:57.000Z</time>
      </trkpt>
      <trkpt lat="44.93954" lon="1.09297">
        <ele>132.80000305176</ele>
        <time>2011-08-17T09:53:00.000Z</time>
      </trkpt>
      <trkpt lat="44.93953" lon="1.09306">
        <ele>132.19999694824</ele>
        <time>2011-08-17T09:53:02.000Z</time>
      </trkpt>
      <trkpt lat="44.93954" lon="1.09312">
        <ele>132.19999694824</ele>
        <time>2011-08-17T09:53:16.000Z</time>
      </trkpt>
      <trkpt lat="44.93954" lon="1.0932">
        <ele>131.19999694824</ele>
        <time>2011-08-17T09:53:37.000Z</time>
      </trkpt>
      <trkpt lat="44.93959" lon="1.09327">
        <ele>129.80000305176</ele>
        <time>2011-08-17T09:53:40.000Z</time>
      </trkpt>
      <trkpt lat="44.93962" lon="1.0933">
        <ele>128.80000305176</ele>
        <time>2011-08-17T09:53:41.000Z</time>
      </trkpt>
      <trkpt lat="44.93979" lon="1.0934">
        <ele>129.80000305176</ele>
        <time>2011-08-17T09:53:45.000Z</time>
      </trkpt>
      <trkpt lat="44.94021" lon="1.09356">
        <ele>132.80000305176</ele>
        <time>2011-08-17T09:53:55.000Z</time>
      </trkpt>
      <trkpt lat="44.94032" lon="1.09356">
        <ele>133.60000610352</ele>
        <time>2011-08-17T09:53:59.000Z</time>
      </trkpt>
      <trkpt lat="44.94052" lon="1.0937">
        <ele>136</ele>
        <time>2011-08-17T09:54:10.000Z</time>
      </trkpt>
      <trkpt lat="44.94064" lon="1.09388">
        <ele>139</ele>
        <time>2011-08-17T09:54:20.000Z</time>
      </trkpt>
      <trkpt lat="44.94068" lon="1.09391">
        <ele>139.39999389648</ele>
        <time>2011-08-17T09:54:23.000Z</time>
      </trkpt>
      <trkpt lat="44.94099" lon="1.09396">
        <ele>140.80000305176</ele>
        <time>2011-08-17T09:54:38.000Z</time>
      </trkpt>
      <trkpt lat="44.94132" lon="1.09401">
        <ele>141.39999389648</ele>
        <time>2011-08-17T09:54:51.000Z</time>
      </trkpt>
      <trkpt lat="44.94146" lon="1.09398">
        <ele>141.80000305176</ele>
        <time>2011-08-17T09:54:56.000Z</time>
      </trkpt>
      <trkpt lat="44.94181" lon="1.09406">
        <ele>140.80000305176</ele>
        <time>2011-08-17T09:55:07.000Z</time>
      </trkpt>
      <trkpt lat="44.94199" lon="1.09413">
        <ele>140.39999389648</ele>
        <time>2011-08-17T09:55:12.000Z</time>
      </trkpt>
      <trkpt lat="44.94231" lon="1.09427">
        <ele>138.39999389648</ele>
        <time>2011-08-17T09:55:20.000Z</time>
      </trkpt>
      <trkpt lat="44.94247" lon="1.09436">
        <ele>137</ele>
        <time>2011-08-17T09:55:24.000Z</time>
      </trkpt>
      <trkpt lat="44.94264" lon="1.0945">
        <ele>132.80000305176</ele>
        <time>2011-08-17T09:55:28.000Z</time>
      </trkpt>
      <trkpt lat="44.94273" lon="1.09461">
        <ele>130.80000305176</ele>
        <time>2011-08-17T09:55:31.000Z</time>
      </trkpt>
      <trkpt lat="44.94289" lon="1.09474">
        <ele>129.39999389648</ele>
        <time>2011-08-17T09:55:40.000Z</time>
      </trkpt>
      <trkpt lat="44.94303" lon="1.09501">
        <ele>127.40000152588</ele>
        <time>2011-08-17T09:55:52.000Z</time>
      </trkpt>
      <trkpt lat="44.94304" lon="1.09507">
        <ele>127</ele>
        <time>2011-08-17T09:55:54.000Z</time>
      </trkpt>
      <trkpt lat="44.94323" lon="1.09529">
        <ele>124.59999847412</ele>
        <time>2011-08-17T09:56:00.000Z</time>
      </trkpt>
      <trkpt lat="44.94331" lon="1.0953">
        <ele>123.59999847412</ele>
        <time>2011-08-17T09:56:02.000Z</time>
      </trkpt>
      <trkpt lat="44.94346" lon="1.09535">
        <ele>122.19999694824</ele>
        <time>2011-08-17T09:56:05.000Z</time>
      </trkpt>
      <trkpt lat="44.94362" lon="1.09536">
        <ele>118.80000305176</ele>
        <time>2011-08-17T09:56:08.000Z</time>
      </trkpt>
      <trkpt lat="44.94372" lon="1.09536">
        <ele>115.80000305176</ele>
        <time>2011-08-17T09:56:11.000Z</time>
      </trkpt>
      <trkpt lat="44.94376" lon="1.0954">
        <ele>114.40000152588</ele>
        <time>2011-08-17T09:56:14.000Z</time>
      </trkpt>
      <trkpt lat="44.94382" lon="1.09546">
        <ele>111.59999847412</ele>
        <time>2011-08-17T09:56:18.000Z</time>
      </trkpt>
      <trkpt lat="44.94387" lon="1.09551">
        <ele>109.59999847412</ele>
        <time>2011-08-17T09:56:21.000Z</time>
      </trkpt>
      <trkpt lat="44.94389" lon="1.09553">
        <ele>108.19999694824</ele>
        <time>2011-08-17T09:56:23.000Z</time>
      </trkpt>
      <trkpt lat="44.94393" lon="1.0956">
        <ele>106.80000305176</ele>
        <time>2011-08-17T09:56:26.000Z</time>
      </trkpt>
      <trkpt lat="44.94393" lon="1.09574">
        <ele>103.80000305176</ele>
        <time>2011-08-17T09:56:33.000Z</time>
      </trkpt>
      <trkpt lat="44.94394" lon="1.09581">
        <ele>101.40000152588</ele>
        <time>2011-08-17T09:56:39.000Z</time>
      </trkpt>
      <trkpt lat="44.94394" lon="1.09581">
        <ele>100.40000152588</ele>
        <time>2011-08-17T09:56:40.000Z</time>
      </trkpt>
      <trkpt lat="44.94395" lon="1.09587">
        <ele>100.40000152588</ele>
        <time>2011-08-17T09:56:42.000Z</time>
      </trkpt>
      <trkpt lat="44.9439" lon="1.09603">
        <ele>100.40000152588</ele>
        <time>2011-08-17T09:56:46.000Z</time>
      </trkpt>
      <trkpt lat="44.94387" lon="1.09612">
        <ele>100.40000152588</ele>
        <time>2011-08-17T09:56:50.000Z</time>
      </trkpt>
      <trkpt lat="44.94385" lon="1.09629">
        <ele>100.40000152588</ele>
        <time>2011-08-17T09:56:56.000Z</time>
      </trkpt>
      <trkpt lat="44.94377" lon="1.09649">
        <ele>100.40000152588</ele>
        <time>2011-08-17T09:57:05.000Z</time>
      </trkpt>
      <trkpt lat="44.94375" lon="1.09661">
        <ele>101</ele>
        <time>2011-08-17T09:57:14.000Z</time>
      </trkpt>
      <trkpt lat="44.9437" lon="1.09676">
        <ele>101</ele>
        <time>2011-08-17T09:57:27.000Z</time>
      </trkpt>
      <trkpt lat="44.94361" lon="1.09692">
        <ele>100.40000152588</ele>
        <time>2011-08-17T09:57:39.000Z</time>
      </trkpt>
      <trkpt lat="44.9435" lon="1.09711">
        <ele>101.40000152588</ele>
        <time>2011-08-17T09:57:49.000Z</time>
      </trkpt>
      <trkpt lat="44.9433" lon="1.09749">
        <ele>101</ele>
        <time>2011-08-17T09:57:57.000Z</time>
      </trkpt>
      <trkpt lat="44.94317" lon="1.09771">
        <ele>101</ele>
        <time>2011-08-17T09:58:08.000Z</time>
      </trkpt>
      <trkpt lat="44.94314" lon="1.09786">
        <ele>100.40000152588</ele>
        <time>2011-08-17T09:58:13.000Z</time>
      </trkpt>
      <trkpt lat="44.94303" lon="1.09811">
        <ele>100.40000152588</ele>
        <time>2011-08-17T09:58:20.000Z</time>
      </trkpt>
      <trkpt lat="44.94296" lon="1.09828">
        <ele>101.40000152588</ele>
        <time>2011-08-17T09:58:29.000Z</time>
      </trkpt>
      <trkpt lat="44.94293" lon="1.09881">
        <ele>101</ele>
        <time>2011-08-17T09:58:42.000Z</time>
      </trkpt>
      <trkpt lat="44.94292" lon="1.09899">
        <ele>100.40000152588</ele>
        <time>2011-08-17T09:58:46.000Z</time>
      </trkpt>
      <trkpt lat="44.94246" lon="1.10018">
        <ele>100.40000152588</ele>
        <time>2011-08-17T09:58:54.000Z</time>
      </trkpt>
      <trkpt lat="44.94237" lon="1.10062">
        <ele>100.40000152588</ele>
        <time>2011-08-17T09:59:06.000Z</time>
      </trkpt>
      <trkpt lat="44.94231" lon="1.1011">
        <ele>100.40000152588</ele>
        <time>2011-08-17T09:59:17.000Z</time>
      </trkpt>
      <trkpt lat="44.94229" lon="1.10161">
        <ele>101</ele>
        <time>2011-08-17T09:59:30.000Z</time>
      </trkpt>
      <trkpt lat="44.94231" lon="1.10188">
        <ele>101</ele>
        <time>2011-08-17T09:59:38.000Z</time>
      </trkpt>
      <trkpt lat="44.94246" lon="1.10203">
        <ele>101</ele>
        <time>2011-08-17T09:59:46.000Z</time>
      </trkpt>
      <trkpt lat="44.94289" lon="1.10191">
        <ele>100</ele>
        <time>2011-08-17T09:59:58.000Z</time>
      </trkpt>
      <trkpt lat="44.94327" lon="1.10186">
        <ele>99.599998474121</ele>
        <time>2011-08-17T10:00:09.000Z</time>
      </trkpt>
      <trkpt lat="44.94331" lon="1.10185">
        <ele>100</ele>
        <time>2011-08-17T10:00:11.000Z</time>
      </trkpt>
      <trkpt lat="44.94333" lon="1.10182">
        <ele>99.599998474121</ele>
        <time>2011-08-17T10:00:23.000Z</time>
      </trkpt>
      <trkpt lat="44.94333" lon="1.10182">
        <ele>99.599998474121</ele>
        <time>2011-08-17T10:00:46.000Z</time>
      </trkpt>
      <trkpt lat="44.94333" lon="1.10182">
        <ele>99.599998474121</ele>
        <time>2011-08-17T10:01:12.000Z</time>
      </trkpt>
      <trkpt lat="44.94312" lon="1.10187">
        <ele>99</ele>
        <time>2011-08-17T10:01:22.000Z</time>
      </trkpt>
      <trkpt lat="44.94263" lon="1.10198">
        <ele>100</ele>
        <time>2011-08-17T10:01:37.000Z</time>
      </trkpt>
      <trkpt lat="44.9422" lon="1.10211">
        <ele>101</ele>
        <time>2011-08-17T10:01:53.000Z</time>
      </trkpt>
      <trkpt lat="44.94191" lon="1.10231">
        <ele>103</ele>
        <time>2011-08-17T10:02:08.000Z</time>
      </trkpt>
      <trkpt lat="44.94189" lon="1.10231">
        <ele>103.40000152588</ele>
        <time>2011-08-17T10:02:10.000Z</time>
      </trkpt>
      <trkpt lat="44.94187" lon="1.10232">
        <ele>103</ele>
        <time>2011-08-17T10:02:13.000Z</time>
      </trkpt>
      <trkpt lat="44.94186" lon="1.10234">
        <ele>103.40000152588</ele>
        <time>2011-08-17T10:02:15.000Z</time>
      </trkpt>
      <trkpt lat="44.94183" lon="1.10236">
        <ele>103.40000152588</ele>
        <time>2011-08-17T10:02:18.000Z</time>
      </trkpt>
      <trkpt lat="44.94172" lon="1.10264">
        <ele>103.80000305176</ele>
        <time>2011-08-17T10:02:32.000Z</time>
      </trkpt>
      <trkpt lat="44.94169" lon="1.10285">
        <ele>103.40000152588</ele>
        <time>2011-08-17T10:02:44.000Z</time>
      </trkpt>
      <trkpt lat="44.9417" lon="1.10294">
        <ele>103.40000152588</ele>
        <time>2011-08-17T10:02:54.000Z</time>
      </trkpt>
      <trkpt lat="44.9417" lon="1.10294">
        <ele>103.80000305176</ele>
        <time>2011-08-17T10:03:17.000Z</time>
      </trkpt>
      <trkpt lat="44.94167" lon="1.10309">
        <ele>103</ele>
        <time>2011-08-17T10:14:46.000Z</time>
      </trkpt>
      <trkpt lat="44.94167" lon="1.1031">
        <ele>103</ele>
        <time>2011-08-17T10:14:47.000Z</time>
      </trkpt>
      <trkpt lat="44.94165" lon="1.10313">
        <ele>103</ele>
        <time>2011-08-17T10:14:49.000Z</time>
      </trkpt>
      <trkpt lat="44.94143" lon="1.10319">
        <ele>103.80000305176</ele>
        <time>2011-08-17T10:15:01.000Z</time>
      </trkpt>
      <trkpt lat="44.94129" lon="1.10317">
        <ele>104.40000152588</ele>
        <time>2011-08-17T10:15:09.000Z</time>
      </trkpt>
      <trkpt lat="44.94112" lon="1.10324">
        <ele>105.40000152588</ele>
        <time>2011-08-17T10:15:17.000Z</time>
      </trkpt>
      <trkpt lat="44.94096" lon="1.10329">
        <ele>106.19999694824</ele>
        <time>2011-08-17T10:15:27.000Z</time>
      </trkpt>
      <trkpt lat="44.94083" lon="1.1034">
        <ele>107.19999694824</ele>
        <time>2011-08-17T10:15:36.000Z</time>
      </trkpt>
      <trkpt lat="44.9408" lon="1.10344">
        <ele>107.80000305176</ele>
        <time>2011-08-17T10:15:39.000Z</time>
      </trkpt>
      <trkpt lat="44.94072" lon="1.10358">
        <ele>109.19999694824</ele>
        <time>2011-08-17T10:15:47.000Z</time>
      </trkpt>
      <trkpt lat="44.94065" lon="1.10367">
        <ele>109.59999847412</ele>
        <time>2011-08-17T10:15:52.000Z</time>
      </trkpt>
      <trkpt lat="44.94057" lon="1.10375">
        <ele>111</ele>
        <time>2011-08-17T10:15:56.000Z</time>
      </trkpt>
      <trkpt lat="44.94053" lon="1.10381">
        <ele>111.59999847412</ele>
        <time>2011-08-17T10:15:59.000Z</time>
      </trkpt>
      <trkpt lat="44.94041" lon="1.10408">
        <ele>115</ele>
        <time>2011-08-17T10:16:11.000Z</time>
      </trkpt>
      <trkpt lat="44.9402" lon="1.10427">
        <ele>116.40000152588</ele>
        <time>2011-08-17T10:16:22.000Z</time>
      </trkpt>
      <trkpt lat="44.94014" lon="1.10433">
        <ele>117.40000152588</ele>
        <time>2011-08-17T10:16:27.000Z</time>
      </trkpt>
      <trkpt lat="44.94006" lon="1.10437">
        <ele>118.19999694824</ele>
        <time>2011-08-17T10:16:31.000Z</time>
      </trkpt>
      <trkpt lat="44.93995" lon="1.10448">
        <ele>120.19999694824</ele>
        <time>2011-08-17T10:16:39.000Z</time>
      </trkpt>
      <trkpt lat="44.93985" lon="1.10485">
        <ele>121.19999694824</ele>
        <time>2011-08-17T10:16:51.000Z</time>
      </trkpt>
      <trkpt lat="44.93983" lon="1.10492">
        <ele>121.19999694824</ele>
        <time>2011-08-17T10:16:53.000Z</time>
      </trkpt>
      <trkpt lat="44.93978" lon="1.10519">
        <ele>123</ele>
        <time>2011-08-17T10:17:05.000Z</time>
      </trkpt>
      <trkpt lat="44.93978" lon="1.10526">
        <ele>124.59999847412</ele>
        <time>2011-08-17T10:17:08.000Z</time>
      </trkpt>
      <trkpt lat="44.93978" lon="1.10531">
        <ele>126</ele>
        <time>2011-08-17T10:17:12.000Z</time>
      </trkpt>
      <trkpt lat="44.93979" lon="1.10525">
        <ele>127</ele>
        <time>2011-08-17T10:17:16.000Z</time>
      </trkpt>
      <trkpt lat="44.93982" lon="1.10523">
        <ele>128.80000305176</ele>
        <time>2011-08-17T10:17:28.000Z</time>
      </trkpt>
      <trkpt lat="44.93987" lon="1.10516">
        <ele>130.19999694824</ele>
        <time>2011-08-17T10:17:39.000Z</time>
      </trkpt>
      <trkpt lat="44.93988" lon="1.10513">
        <ele>130.19999694824</ele>
        <time>2011-08-17T10:17:40.000Z</time>
      </trkpt>
      <trkpt lat="44.94005" lon="1.10485">
        <ele>130.80000305176</ele>
        <time>2011-08-17T10:17:50.000Z</time>
      </trkpt>
      <trkpt lat="44.94023" lon="1.10463">
        <ele>130.80000305176</ele>
        <time>2011-08-17T10:17:59.000Z</time>
      </trkpt>
      <trkpt lat="44.94043" lon="1.10437">
        <ele>130.80000305176</ele>
        <time>2011-08-17T10:18:10.000Z</time>
      </trkpt>
      <trkpt lat="44.94051" lon="1.10432">
        <ele>131.19999694824</ele>
        <time>2011-08-17T10:18:13.000Z</time>
      </trkpt>
      <trkpt lat="44.94085" lon="1.10398">
        <ele>129.39999389648</ele>
        <time>2011-08-17T10:18:25.000Z</time>
      </trkpt>
      <trkpt lat="44.94092" lon="1.10394">
        <ele>129.39999389648</ele>
        <time>2011-08-17T10:18:27.000Z</time>
      </trkpt>
      <trkpt lat="44.9411" lon="1.1039">
        <ele>129.39999389648</ele>
        <time>2011-08-17T10:18:31.000Z</time>
      </trkpt>
      <trkpt lat="44.94136" lon="1.10389">
        <ele>128.80000305176</ele>
        <time>2011-08-17T10:18:39.000Z</time>
      </trkpt>
      <trkpt lat="44.94139" lon="1.10385">
        <ele>128.39999389648</ele>
        <time>2011-08-17T10:18:41.000Z</time>
      </trkpt>
      <trkpt lat="44.94156" lon="1.10373">
        <ele>128.39999389648</ele>
        <time>2011-08-17T10:18:49.000Z</time>
      </trkpt>
      <trkpt lat="44.94168" lon="1.10365">
        <ele>127.80000305176</ele>
        <time>2011-08-17T10:18:53.000Z</time>
      </trkpt>
      <trkpt lat="44.94181" lon="1.10353">
        <ele>127.80000305176</ele>
        <time>2011-08-17T10:18:58.000Z</time>
      </trkpt>
      <trkpt lat="44.94196" lon="1.10351">
        <ele>127.40000152588</ele>
        <time>2011-08-17T10:19:01.000Z</time>
      </trkpt>
      <trkpt lat="44.94221" lon="1.1035">
        <ele>127.40000152588</ele>
        <time>2011-08-17T10:19:06.000Z</time>
      </trkpt>
      <trkpt lat="44.94257" lon="1.10361">
        <ele>127.40000152588</ele>
        <time>2011-08-17T10:19:14.000Z</time>
      </trkpt>
      <trkpt lat="44.94269" lon="1.10398">
        <ele>127.80000305176</ele>
        <time>2011-08-17T10:19:23.000Z</time>
      </trkpt>
      <trkpt lat="44.94279" lon="1.1042">
        <ele>127.40000152588</ele>
        <time>2011-08-17T10:19:27.000Z</time>
      </trkpt>
      <trkpt lat="44.94282" lon="1.10432">
        <ele>127</ele>
        <time>2011-08-17T10:19:29.000Z</time>
      </trkpt>
      <trkpt lat="44.94299" lon="1.10473">
        <ele>126</ele>
        <time>2011-08-17T10:19:37.000Z</time>
      </trkpt>
      <trkpt lat="44.94307" lon="1.10489">
        <ele>125.40000152588</ele>
        <time>2011-08-17T10:19:40.000Z</time>
      </trkpt>
      <trkpt lat="44.94326" lon="1.10526">
        <ele>125.40000152588</ele>
        <time>2011-08-17T10:19:47.000Z</time>
      </trkpt>
      <trkpt lat="44.9433" lon="1.10531">
        <ele>124.59999847412</ele>
        <time>2011-08-17T10:19:49.000Z</time>
      </trkpt>
      <trkpt lat="44.94335" lon="1.10541">
        <ele>124</ele>
        <time>2011-08-17T10:19:51.000Z</time>
      </trkpt>
      <trkpt lat="44.94342" lon="1.10568">
        <ele>125.40000152588</ele>
        <time>2011-08-17T10:19:55.000Z</time>
      </trkpt>
      <trkpt lat="44.94354" lon="1.1063">
        <ele>128.39999389648</ele>
        <time>2011-08-17T10:20:08.000Z</time>
      </trkpt>
      <trkpt lat="44.94364" lon="1.10654">
        <ele>128.80000305176</ele>
        <time>2011-08-17T10:20:15.000Z</time>
      </trkpt>
      <trkpt lat="44.94375" lon="1.10683">
        <ele>127.80000305176</ele>
        <time>2011-08-17T10:20:21.000Z</time>
      </trkpt>
      <trkpt lat="44.94394" lon="1.10723">
        <ele>127.80000305176</ele>
        <time>2011-08-17T10:20:30.000Z</time>
      </trkpt>
      <trkpt lat="44.94415" lon="1.10761">
        <ele>129.80000305176</ele>
        <time>2011-08-17T10:20:40.000Z</time>
      </trkpt>
      <trkpt lat="44.94431" lon="1.10781">
        <ele>129.39999389648</ele>
        <time>2011-08-17T10:20:46.000Z</time>
      </trkpt>
      <trkpt lat="44.94459" lon="1.10822">
        <ele>125.40000152588</ele>
        <time>2011-08-17T10:20:56.000Z</time>
      </trkpt>
      <trkpt lat="44.94458" lon="1.10838">
        <ele>123</ele>
        <time>2011-08-17T10:20:59.000Z</time>
      </trkpt>
      <trkpt lat="44.94458" lon="1.10846">
        <ele>121.59999847412</ele>
        <time>2011-08-17T10:21:01.000Z</time>
      </trkpt>
      <trkpt lat="44.94458" lon="1.10856">
        <ele>120.59999847412</ele>
        <time>2011-08-17T10:21:04.000Z</time>
      </trkpt>
      <trkpt lat="44.94471" lon="1.10866">
        <ele>122.59999847412</ele>
        <time>2011-08-17T10:21:14.000Z</time>
      </trkpt>
      <trkpt lat="44.94496" lon="1.10875">
        <ele>124</ele>
        <time>2011-08-17T10:21:25.000Z</time>
      </trkpt>
      <trkpt lat="44.94504" lon="1.10877">
        <ele>124.59999847412</ele>
        <time>2011-08-17T10:21:27.000Z</time>
      </trkpt>
      <trkpt lat="44.94534" lon="1.10872">
        <ele>124</ele>
        <time>2011-08-17T10:21:37.000Z</time>
      </trkpt>
      <trkpt lat="44.94536" lon="1.10871">
        <ele>123.59999847412</ele>
        <time>2011-08-17T10:21:38.000Z</time>
      </trkpt>
      <trkpt lat="44.94538" lon="1.10863">
        <ele>122.59999847412</ele>
        <time>2011-08-17T10:21:42.000Z</time>
      </trkpt>
      <trkpt lat="44.9453" lon="1.1086">
        <ele>121.19999694824</ele>
        <time>2011-08-17T10:21:46.000Z</time>
      </trkpt>
      <trkpt lat="44.94509" lon="1.10861">
        <ele>118.19999694824</ele>
        <time>2011-08-17T10:21:51.000Z</time>
      </trkpt>
      <trkpt lat="44.94505" lon="1.10858">
        <ele>116.80000305176</ele>
        <time>2011-08-17T10:21:54.000Z</time>
      </trkpt>
      <trkpt lat="44.94506" lon="1.10849">
        <ele>114.40000152588</ele>
        <time>2011-08-17T10:21:57.000Z</time>
      </trkpt>
      <trkpt lat="44.94513" lon="1.10833">
        <ele>112</ele>
        <time>2011-08-17T10:22:00.000Z</time>
      </trkpt>
      <trkpt lat="44.94545" lon="1.10769">
        <ele>108.59999847412</ele>
        <time>2011-08-17T10:22:07.000Z</time>
      </trkpt>
      <trkpt lat="44.94546" lon="1.10765">
        <ele>108.19999694824</ele>
        <time>2011-08-17T10:22:08.000Z</time>
      </trkpt>
      <trkpt lat="44.9453" lon="1.10719">
        <ele>105.80000305176</ele>
        <time>2011-08-17T10:22:18.000Z</time>
      </trkpt>
      <trkpt lat="44.94518" lon="1.10703">
        <ele>105.80000305176</ele>
        <time>2011-08-17T10:22:21.000Z</time>
      </trkpt>
      <trkpt lat="44.94498" lon="1.10674">
        <ele>105.80000305176</ele>
        <time>2011-08-17T10:22:27.000Z</time>
      </trkpt>
      <trkpt lat="44.94502" lon="1.10667">
        <ele>103.80000305176</ele>
        <time>2011-08-17T10:22:32.000Z</time>
      </trkpt>
      <trkpt lat="44.94505" lon="1.1067">
        <ele>103</ele>
        <time>2011-08-17T10:22:33.000Z</time>
      </trkpt>
      <trkpt lat="44.94542" lon="1.10701">
        <ele>98.599998474121</ele>
        <time>2011-08-17T10:22:40.000Z</time>
      </trkpt>
      <trkpt lat="44.94572" lon="1.10737">
        <ele>99</ele>
        <time>2011-08-17T10:22:47.000Z</time>
      </trkpt>
      <trkpt lat="44.94592" lon="1.1074">
        <ele>98</ele>
        <time>2011-08-17T10:22:52.000Z</time>
      </trkpt>
      <trkpt lat="44.9462" lon="1.10702">
        <ele>97.199996948242</ele>
        <time>2011-08-17T10:23:01.000Z</time>
      </trkpt>
      <trkpt lat="44.94631" lon="1.10659">
        <ele>97.199996948242</ele>
        <time>2011-08-17T10:23:13.000Z</time>
      </trkpt>
      <trkpt lat="44.94642" lon="1.10646">
        <ele>97.599998474121</ele>
        <time>2011-08-17T10:23:19.000Z</time>
      </trkpt>
      <trkpt lat="44.94654" lon="1.10632">
        <ele>97.199996948242</ele>
        <time>2011-08-17T10:23:28.000Z</time>
      </trkpt>
      <trkpt lat="44.94657" lon="1.10628">
        <ele>97.599998474121</ele>
        <time>2011-08-17T10:23:30.000Z</time>
      </trkpt>
      <trkpt lat="44.94668" lon="1.10617">
        <ele>97.199996948242</ele>
        <time>2011-08-17T10:23:36.000Z</time>
      </trkpt>
      <trkpt lat="44.9468" lon="1.10603">
        <ele>98.599998474121</ele>
        <time>2011-08-17T10:23:48.000Z</time>
      </trkpt>
      <trkpt lat="44.94689" lon="1.10589">
        <ele>100</ele>
        <time>2011-08-17T10:23:56.000Z</time>
      </trkpt>
      <trkpt lat="44.947" lon="1.10586">
        <ele>101</ele>
        <time>2011-08-17T10:24:00.000Z</time>
      </trkpt>
      <trkpt lat="44.94709" lon="1.10584">
        <ele>101.40000152588</ele>
        <time>2011-08-17T10:24:03.000Z</time>
      </trkpt>
      <trkpt lat="44.94731" lon="1.10582">
        <ele>103.80000305176</ele>
        <time>2011-08-17T10:24:16.000Z</time>
      </trkpt>
      <trkpt lat="44.94745" lon="1.10575">
        <ele>105.80000305176</ele>
        <time>2011-08-17T10:24:28.000Z</time>
      </trkpt>
      <trkpt lat="44.94755" lon="1.1057">
        <ele>107.19999694824</ele>
        <time>2011-08-17T10:24:39.000Z</time>
      </trkpt>
      <trkpt lat="44.94759" lon="1.10567">
        <ele>109.19999694824</ele>
        <time>2011-08-17T10:24:47.000Z</time>
      </trkpt>
      <trkpt lat="44.94767" lon="1.10562">
        <ele>110.59999847412</ele>
        <time>2011-08-17T10:24:57.000Z</time>
      </trkpt>
      <trkpt lat="44.94773" lon="1.10556">
        <ele>112</ele>
        <time>2011-08-17T10:25:07.000Z</time>
      </trkpt>
      <trkpt lat="44.94782" lon="1.10549">
        <ele>114.40000152588</ele>
        <time>2011-08-17T10:25:18.000Z</time>
      </trkpt>
      <trkpt lat="44.94788" lon="1.10547">
        <ele>114.40000152588</ele>
        <time>2011-08-17T10:25:21.000Z</time>
      </trkpt>
      <trkpt lat="44.94791" lon="1.10546">
        <ele>115.40000152588</ele>
        <time>2011-08-17T10:25:24.000Z</time>
      </trkpt>
      <trkpt lat="44.94797" lon="1.10545">
        <ele>116.80000305176</ele>
        <time>2011-08-17T10:25:29.000Z</time>
      </trkpt>
      <trkpt lat="44.94811" lon="1.10544">
        <ele>118.80000305176</ele>
        <time>2011-08-17T10:25:40.000Z</time>
      </trkpt>
      <trkpt lat="44.94815" lon="1.10536">
        <ele>119.80000305176</ele>
        <time>2011-08-17T10:25:46.000Z</time>
      </trkpt>
      <trkpt lat="44.94814" lon="1.10523">
        <ele>122.19999694824</ele>
        <time>2011-08-17T10:25:55.000Z</time>
      </trkpt>
      <trkpt lat="44.94813" lon="1.10516">
        <ele>124</ele>
        <time>2011-08-17T10:26:04.000Z</time>
      </trkpt>
      <trkpt lat="44.94818" lon="1.10526">
        <ele>123.59999847412</ele>
        <time>2011-08-17T10:26:14.000Z</time>
      </trkpt>
      <trkpt lat="44.94825" lon="1.10537">
        <ele>123.59999847412</ele>
        <time>2011-08-17T10:26:25.000Z</time>
      </trkpt>
      <trkpt lat="44.94825" lon="1.10537">
        <ele>123</ele>
        <time>2011-08-17T10:26:40.000Z</time>
      </trkpt>
      <trkpt lat="44.9482" lon="1.10549">
        <ele>123.59999847412</ele>
        <time>2011-08-17T10:26:47.000Z</time>
      </trkpt>
      <trkpt lat="44.94825" lon="1.10556">
        <ele>125.40000152588</ele>
        <time>2011-08-17T10:26:55.000Z</time>
      </trkpt>
      <trkpt lat="44.94838" lon="1.10564">
        <ele>128.80000305176</ele>
        <time>2011-08-17T10:27:04.000Z</time>
      </trkpt>
      <trkpt lat="44.94858" lon="1.10565">
        <ele>130.80000305176</ele>
        <time>2011-08-17T10:27:17.000Z</time>
      </trkpt>
      <trkpt lat="44.94872" lon="1.10568">
        <ele>132.19999694824</ele>
        <time>2011-08-17T10:27:26.000Z</time>
      </trkpt>
      <trkpt lat="44.94873" lon="1.10568">
        <ele>132.19999694824</ele>
        <time>2011-08-17T10:27:27.000Z</time>
      </trkpt>
      <trkpt lat="44.94874" lon="1.10571">
        <ele>133.19999694824</ele>
        <time>2011-08-17T10:27:29.000Z</time>
      </trkpt>
      <trkpt lat="44.94889" lon="1.1058">
        <ele>133.60000610352</ele>
        <time>2011-08-17T10:27:36.000Z</time>
      </trkpt>
      <trkpt lat="44.94901" lon="1.10588">
        <ele>136</ele>
        <time>2011-08-17T10:27:44.000Z</time>
      </trkpt>
      <trkpt lat="44.94906" lon="1.10593">
        <ele>136</ele>
        <time>2011-08-17T10:27:48.000Z</time>
      </trkpt>
      <trkpt lat="44.94933" lon="1.1059">
        <ele>136.60000610352</ele>
        <time>2011-08-17T10:27:59.000Z</time>
      </trkpt>
      <trkpt lat="44.94942" lon="1.1059">
        <ele>137.60000610352</ele>
        <time>2011-08-17T10:28:03.000Z</time>
      </trkpt>
      <trkpt lat="44.94951" lon="1.1059">
        <ele>137.60000610352</ele>
        <time>2011-08-17T10:28:08.000Z</time>
      </trkpt>
      <trkpt lat="44.94955" lon="1.10586">
        <ele>137.60000610352</ele>
        <time>2011-08-17T10:28:10.000Z</time>
      </trkpt>
      <trkpt lat="44.94984" lon="1.10579">
        <ele>140</ele>
        <time>2011-08-17T10:28:21.000Z</time>
      </trkpt>
      <trkpt lat="44.94989" lon="1.10575">
        <ele>140</ele>
        <time>2011-08-17T10:28:24.000Z</time>
      </trkpt>
      <trkpt lat="44.94995" lon="1.10572">
        <ele>140</ele>
        <time>2011-08-17T10:28:27.000Z</time>
      </trkpt>
      <trkpt lat="44.95016" lon="1.10565">
        <ele>142.80000305176</ele>
        <time>2011-08-17T10:28:35.000Z</time>
      </trkpt>
      <trkpt lat="44.95026" lon="1.10553">
        <ele>143.19999694824</ele>
        <time>2011-08-17T10:28:40.000Z</time>
      </trkpt>
      <trkpt lat="44.95052" lon="1.1054">
        <ele>144.80000305176</ele>
        <time>2011-08-17T10:28:52.000Z</time>
      </trkpt>
      <trkpt lat="44.95056" lon="1.10537">
        <ele>145.19999694824</ele>
        <time>2011-08-17T10:28:54.000Z</time>
      </trkpt>
      <trkpt lat="44.95059" lon="1.10535">
        <ele>145.19999694824</ele>
        <time>2011-08-17T10:28:57.000Z</time>
      </trkpt>
      <trkpt lat="44.95074" lon="1.10526">
        <ele>146.19999694824</ele>
        <time>2011-08-17T10:29:01.000Z</time>
      </trkpt>
      <trkpt lat="44.95079" lon="1.10523">
        <ele>146.19999694824</ele>
        <time>2011-08-17T10:29:03.000Z</time>
      </trkpt>
      <trkpt lat="44.95108" lon="1.10509">
        <ele>148</ele>
        <time>2011-08-17T10:29:14.000Z</time>
      </trkpt>
      <trkpt lat="44.95115" lon="1.10504">
        <ele>149</ele>
        <time>2011-08-17T10:29:18.000Z</time>
      </trkpt>
      <trkpt lat="44.95127" lon="1.10496">
        <ele>150</ele>
        <time>2011-08-17T10:29:25.000Z</time>
      </trkpt>
      <trkpt lat="44.95148" lon="1.10492">
        <ele>151.39999389648</ele>
        <time>2011-08-17T10:29:34.000Z</time>
      </trkpt>
      <trkpt lat="44.95151" lon="1.10492">
        <ele>152</ele>
        <time>2011-08-17T10:29:36.000Z</time>
      </trkpt>
      <trkpt lat="44.95198" lon="1.10486">
        <ele>153.80000305176</ele>
        <time>2011-08-17T10:29:50.000Z</time>
      </trkpt>
      <trkpt lat="44.95242" lon="1.10496">
        <ele>156.80000305176</ele>
        <time>2011-08-17T10:30:06.000Z</time>
      </trkpt>
      <trkpt lat="44.95277" lon="1.10502">
        <ele>158.60000610352</ele>
        <time>2011-08-17T10:30:19.000Z</time>
      </trkpt>
      <trkpt lat="44.95292" lon="1.10511">
        <ele>160.60000610352</ele>
        <time>2011-08-17T10:30:27.000Z</time>
      </trkpt>
      <trkpt lat="44.95302" lon="1.10514">
        <ele>160.60000610352</ele>
        <time>2011-08-17T10:30:33.000Z</time>
      </trkpt>
      <trkpt lat="44.95321" lon="1.10517">
        <ele>162</ele>
        <time>2011-08-17T10:30:42.000Z</time>
      </trkpt>
      <trkpt lat="44.95342" lon="1.10517">
        <ele>164</ele>
        <time>2011-08-17T10:30:51.000Z</time>
      </trkpt>
      <trkpt lat="44.95344" lon="1.10517">
        <ele>164.39999389648</ele>
        <time>2011-08-17T10:30:52.000Z</time>
      </trkpt>
      <trkpt lat="44.95362" lon="1.1052">
        <ele>166.39999389648</ele>
        <time>2011-08-17T10:31:00.000Z</time>
      </trkpt>
      <trkpt lat="44.95384" lon="1.10522">
        <ele>167.80000305176</ele>
        <time>2011-08-17T10:31:09.000Z</time>
      </trkpt>
      <trkpt lat="44.95391" lon="1.10523">
        <ele>169.19999694824</ele>
        <time>2011-08-17T10:31:13.000Z</time>
      </trkpt>
      <trkpt lat="44.95399" lon="1.10522">
        <ele>169.80000305176</ele>
        <time>2011-08-17T10:31:17.000Z</time>
      </trkpt>
      <trkpt lat="44.95408" lon="1.10518">
        <ele>169.80000305176</ele>
        <time>2011-08-17T10:31:21.000Z</time>
      </trkpt>
      <trkpt lat="44.95414" lon="1.10518">
        <ele>170.19999694824</ele>
        <time>2011-08-17T10:31:25.000Z</time>
      </trkpt>
      <trkpt lat="44.95421" lon="1.10515">
        <ele>170.60000610352</ele>
        <time>2011-08-17T10:31:29.000Z</time>
      </trkpt>
      <trkpt lat="44.95446" lon="1.10495">
        <ele>171.19999694824</ele>
        <time>2011-08-17T10:31:41.000Z</time>
      </trkpt>
      <trkpt lat="44.95457" lon="1.10487">
        <ele>171.60000610352</ele>
        <time>2011-08-17T10:31:44.000Z</time>
      </trkpt>
      <trkpt lat="44.95485" lon="1.10506">
        <ele>171.60000610352</ele>
        <time>2011-08-17T10:31:55.000Z</time>
      </trkpt>
      <trkpt lat="44.95532" lon="1.10518">
        <ele>172.60000610352</ele>
        <time>2011-08-17T10:32:09.000Z</time>
      </trkpt>
      <trkpt lat="44.95566" lon="1.10527">
        <ele>176</ele>
        <time>2011-08-17T10:32:22.000Z</time>
      </trkpt>
      <trkpt lat="44.95593" lon="1.10533">
        <ele>179.39999389648</ele>
        <time>2011-08-17T10:32:33.000Z</time>
      </trkpt>
      <trkpt lat="44.95596" lon="1.10534">
        <ele>179.39999389648</ele>
        <time>2011-08-17T10:32:34.000Z</time>
      </trkpt>
      <trkpt lat="44.95619" lon="1.10544">
        <ele>182.19999694824</ele>
        <time>2011-08-17T10:32:44.000Z</time>
      </trkpt>
      <trkpt lat="44.95633" lon="1.10546">
        <ele>184.60000610352</ele>
        <time>2011-08-17T10:32:50.000Z</time>
      </trkpt>
      <trkpt lat="44.95641" lon="1.10529">
        <ele>185.60000610352</ele>
        <time>2011-08-17T10:32:56.000Z</time>
      </trkpt>
      <trkpt lat="44.95654" lon="1.10483">
        <ele>187</ele>
        <time>2011-08-17T10:33:09.000Z</time>
      </trkpt>
      <trkpt lat="44.95659" lon="1.10469">
        <ele>187.39999389648</ele>
        <time>2011-08-17T10:33:13.000Z</time>
      </trkpt>
      <trkpt lat="44.95676" lon="1.10424">
        <ele>189.39999389648</ele>
        <time>2011-08-17T10:33:27.000Z</time>
      </trkpt>
      <trkpt lat="44.9569" lon="1.10386">
        <ele>190.80000305176</ele>
        <time>2011-08-17T10:33:39.000Z</time>
      </trkpt>
      <trkpt lat="44.95704" lon="1.10336">
        <ele>192.80000305176</ele>
        <time>2011-08-17T10:33:53.000Z</time>
      </trkpt>
      <trkpt lat="44.95711" lon="1.10266">
        <ele>194.80000305176</ele>
        <time>2011-08-17T10:34:10.000Z</time>
      </trkpt>
      <trkpt lat="44.95716" lon="1.10203">
        <ele>196.60000610352</ele>
        <time>2011-08-17T10:34:25.000Z</time>
      </trkpt>
      <trkpt lat="44.95722" lon="1.10192">
        <ele>197.60000610352</ele>
        <time>2011-08-17T10:34:29.000Z</time>
      </trkpt>
      <trkpt lat="44.95748" lon="1.1021">
        <ele>200</ele>
        <time>2011-08-17T10:34:40.000Z</time>
      </trkpt>
      <trkpt lat="44.9578" lon="1.10243">
        <ele>202.80000305176</ele>
        <time>2011-08-17T10:34:53.000Z</time>
      </trkpt>
      <trkpt lat="44.95813" lon="1.10281">
        <ele>206.19999694824</ele>
        <time>2011-08-17T10:35:06.000Z</time>
      </trkpt>
      <trkpt lat="44.95853" lon="1.10329">
        <ele>207.60000610352</ele>
        <time>2011-08-17T10:35:24.000Z</time>
      </trkpt>
      <trkpt lat="44.95876" lon="1.10356">
        <ele>208.19999694824</ele>
        <time>2011-08-17T10:35:32.000Z</time>
      </trkpt>
      <trkpt lat="44.95924" lon="1.10412">
        <ele>207.60000610352</ele>
        <time>2011-08-17T10:35:48.000Z</time>
      </trkpt>
      <trkpt lat="44.95972" lon="1.10446">
        <ele>208.60000610352</ele>
        <time>2011-08-17T10:36:02.000Z</time>
      </trkpt>
      <trkpt lat="44.96015" lon="1.10461">
        <ele>211.60000610352</ele>
        <time>2011-08-17T10:36:15.000Z</time>
      </trkpt>
      <trkpt lat="44.96062" lon="1.10476">
        <ele>214.39999389648</ele>
        <time>2011-08-17T10:36:30.000Z</time>
      </trkpt>
      <trkpt lat="44.96107" lon="1.1049">
        <ele>216.39999389648</ele>
        <time>2011-08-17T10:36:44.000Z</time>
      </trkpt>
      <trkpt lat="44.96133" lon="1.10498">
        <ele>217.80000305176</ele>
        <time>2011-08-17T10:36:53.000Z</time>
      </trkpt>
      <trkpt lat="44.96158" lon="1.10532">
        <ele>217.19999694824</ele>
        <time>2011-08-17T10:37:03.000Z</time>
      </trkpt>
      <trkpt lat="44.96174" lon="1.1054">
        <ele>216.39999389648</ele>
        <time>2011-08-17T10:37:07.000Z</time>
      </trkpt>
      <trkpt lat="44.96192" lon="1.10548">
        <ele>216.39999389648</ele>
        <time>2011-08-17T10:37:11.000Z</time>
      </trkpt>
      <trkpt lat="44.9624" lon="1.10585">
        <ele>216.39999389648</ele>
        <time>2011-08-17T10:37:23.000Z</time>
      </trkpt>
      <trkpt lat="44.96302" lon="1.10616">
        <ele>216.39999389648</ele>
        <time>2011-08-17T10:37:35.000Z</time>
      </trkpt>
      <trkpt lat="44.96306" lon="1.10619">
        <ele>216.39999389648</ele>
        <time>2011-08-17T10:37:36.000Z</time>
      </trkpt>
      <trkpt lat="44.96371" lon="1.1065">
        <ele>216.39999389648</ele>
        <time>2011-08-17T10:37:51.000Z</time>
      </trkpt>
      <trkpt lat="44.96413" lon="1.1067">
        <ele>214</ele>
        <time>2011-08-17T10:37:59.000Z</time>
      </trkpt>
      <trkpt lat="44.96434" lon="1.10706">
        <ele>213</ele>
        <time>2011-08-17T10:38:05.000Z</time>
      </trkpt>
      <trkpt lat="44.96451" lon="1.10713">
        <ele>212.39999389648</ele>
        <time>2011-08-17T10:38:10.000Z</time>
      </trkpt>
      <trkpt lat="44.96458" lon="1.10707">
        <ele>213</ele>
        <time>2011-08-17T10:38:12.000Z</time>
      </trkpt>
      <trkpt lat="44.96475" lon="1.10706">
        <ele>213.39999389648</ele>
        <time>2011-08-17T10:38:16.000Z</time>
      </trkpt>
      <trkpt lat="44.96506" lon="1.1072">
        <ele>214.80000305176</ele>
        <time>2011-08-17T10:38:24.000Z</time>
      </trkpt>
      <trkpt lat="44.96545" lon="1.10739">
        <ele>215.39999389648</ele>
        <time>2011-08-17T10:38:35.000Z</time>
      </trkpt>
      <trkpt lat="44.96577" lon="1.10763">
        <ele>218.19999694824</ele>
        <time>2011-08-17T10:38:45.000Z</time>
      </trkpt>
      <trkpt lat="44.96606" lon="1.10787">
        <ele>220.19999694824</ele>
        <time>2011-08-17T10:38:56.000Z</time>
      </trkpt>
      <trkpt lat="44.9664" lon="1.10813">
        <ele>222.60000610352</ele>
        <time>2011-08-17T10:39:08.000Z</time>
      </trkpt>
      <trkpt lat="44.96667" lon="1.10839">
        <ele>224.60000610352</ele>
        <time>2011-08-17T10:39:18.000Z</time>
      </trkpt>
      <trkpt lat="44.96679" lon="1.10849">
        <ele>225</ele>
        <time>2011-08-17T10:39:23.000Z</time>
      </trkpt>
      <trkpt lat="44.96719" lon="1.10878">
        <ele>226.39999389648</ele>
        <time>2011-08-17T10:39:35.000Z</time>
      </trkpt>
      <trkpt lat="44.9676" lon="1.10924">
        <ele>226</ele>
        <time>2011-08-17T10:39:47.000Z</time>
      </trkpt>
      <trkpt lat="44.96763" lon="1.10928">
        <ele>226</ele>
        <time>2011-08-17T10:39:48.000Z</time>
      </trkpt>
      <trkpt lat="44.96808" lon="1.10986">
        <ele>227.39999389648</ele>
        <time>2011-08-17T10:40:03.000Z</time>
      </trkpt>
      <trkpt lat="44.96825" lon="1.11002">
        <ele>228.39999389648</ele>
        <time>2011-08-17T10:40:09.000Z</time>
      </trkpt>
      <trkpt lat="44.96869" lon="1.11032">
        <ele>229.39999389648</ele>
        <time>2011-08-17T10:40:23.000Z</time>
      </trkpt>
      <trkpt lat="44.96896" lon="1.11051">
        <ele>228.80000305176</ele>
        <time>2011-08-17T10:40:32.000Z</time>
      </trkpt>
      <trkpt lat="44.96911" lon="1.11062">
        <ele>227.39999389648</ele>
        <time>2011-08-17T10:40:36.000Z</time>
      </trkpt>
      <trkpt lat="44.96924" lon="1.1107">
        <ele>227.39999389648</ele>
        <time>2011-08-17T10:40:39.000Z</time>
      </trkpt>
      <trkpt lat="44.96951" lon="1.11089">
        <ele>226</ele>
        <time>2011-08-17T10:40:45.000Z</time>
      </trkpt>
      <trkpt lat="44.9696" lon="1.11105">
        <ele>224.60000610352</ele>
        <time>2011-08-17T10:40:48.000Z</time>
      </trkpt>
      <trkpt lat="44.96964" lon="1.11109">
        <ele>224</ele>
        <time>2011-08-17T10:40:49.000Z</time>
      </trkpt>
      <trkpt lat="44.96985" lon="1.11132">
        <ele>222</ele>
        <time>2011-08-17T10:40:54.000Z</time>
      </trkpt>
      <trkpt lat="44.97007" lon="1.11154">
        <ele>222.60000610352</ele>
        <time>2011-08-17T10:40:59.000Z</time>
      </trkpt>
      <trkpt lat="44.97029" lon="1.1118">
        <ele>223.60000610352</ele>
        <time>2011-08-17T10:41:09.000Z</time>
      </trkpt>
      <trkpt lat="44.97031" lon="1.11181">
        <ele>222.60000610352</ele>
        <time>2011-08-17T10:41:25.000Z</time>
      </trkpt>
      <trkpt lat="44.97032" lon="1.11181">
        <ele>223</ele>
        <time>2011-08-17T10:43:01.000Z</time>
      </trkpt>
      <trkpt lat="44.97033" lon="1.11181">
        <ele>223.60000610352</ele>
        <time>2011-08-17T10:43:58.000Z</time>
      </trkpt>
      <trkpt lat="44.97034" lon="1.11182">
        <ele>223.60000610352</ele>
        <time>2011-08-17T10:44:16.000Z</time>
      </trkpt>
      <trkpt lat="44.97037" lon="1.11187">
        <ele>223.60000610352</ele>
        <time>2011-08-17T10:44:28.000Z</time>
      </trkpt>
      <trkpt lat="44.97038" lon="1.11185">
        <ele>223.60000610352</ele>
        <time>2011-08-17T10:44:43.000Z</time>
      </trkpt>
      <trkpt lat="44.97036" lon="1.11185">
        <ele>222.60000610352</ele>
        <time>2011-08-17T10:44:52.000Z</time>
      </trkpt>
      <trkpt lat="44.97037" lon="1.11184">
        <ele>223.60000610352</ele>
        <time>2011-08-17T10:48:42.000Z</time>
      </trkpt>
      <trkpt lat="44.97037" lon="1.11182">
        <ele>224</ele>
        <time>2011-08-17T10:51:44.000Z</time>
      </trkpt>
      <trkpt lat="44.97037" lon="1.11182">
        <ele>225</ele>
        <time>2011-08-17T10:52:12.000Z</time>
      </trkpt>
      <trkpt lat="44.97037" lon="1.11182">
        <ele>225</ele>
        <time>2011-08-17T10:53:06.000Z</time>
      </trkpt>
      <trkpt lat="44.97041" lon="1.11193">
        <ele>226</ele>
        <time>2011-08-17T10:54:24.000Z</time>
      </trkpt>
      <trkpt lat="44.97044" lon="1.11198">
        <ele>226.39999389648</ele>
        <time>2011-08-17T10:54:27.000Z</time>
      </trkpt>
      <trkpt lat="44.97053" lon="1.11226">
        <ele>227.39999389648</ele>
        <time>2011-08-17T10:54:35.000Z</time>
      </trkpt>
      <trkpt lat="44.97066" lon="1.11263">
        <ele>230.80000305176</ele>
        <time>2011-08-17T10:54:45.000Z</time>
      </trkpt>
      <trkpt lat="44.9709" lon="1.11302">
        <ele>234.19999694824</ele>
        <time>2011-08-17T10:54:57.000Z</time>
      </trkpt>
      <trkpt lat="44.97112" lon="1.1134">
        <ele>237</ele>
        <time>2011-08-17T10:55:09.000Z</time>
      </trkpt>
      <trkpt lat="44.97143" lon="1.11364">
        <ele>239.39999389648</ele>
        <time>2011-08-17T10:55:23.000Z</time>
      </trkpt>
      <trkpt lat="44.97174" lon="1.11383">
        <ele>242.19999694824</ele>
        <time>2011-08-17T10:55:36.000Z</time>
      </trkpt>
      <trkpt lat="44.97198" lon="1.11411">
        <ele>244.19999694824</ele>
        <time>2011-08-17T10:55:48.000Z</time>
      </trkpt>
      <trkpt lat="44.97233" lon="1.11441">
        <ele>246.19999694824</ele>
        <time>2011-08-17T10:56:02.000Z</time>
      </trkpt>
      <trkpt lat="44.97245" lon="1.11454">
        <ele>246.19999694824</ele>
        <time>2011-08-17T10:56:06.000Z</time>
      </trkpt>
      <trkpt lat="44.9727" lon="1.11483">
        <ele>245.60000610352</ele>
        <time>2011-08-17T10:56:13.000Z</time>
      </trkpt>
      <trkpt lat="44.97294" lon="1.11495">
        <ele>246.19999694824</ele>
        <time>2011-08-17T10:56:22.000Z</time>
      </trkpt>
      <trkpt lat="44.97294" lon="1.11492">
        <ele>245.60000610352</ele>
        <time>2011-08-17T10:56:23.000Z</time>
      </trkpt>
      <trkpt lat="44.97278" lon="1.11456">
        <ele>245.60000610352</ele>
        <time>2011-08-17T10:56:34.000Z</time>
      </trkpt>
      <trkpt lat="44.97272" lon="1.11445">
        <ele>245.60000610352</ele>
        <time>2011-08-17T10:56:37.000Z</time>
      </trkpt>
      <trkpt lat="44.97268" lon="1.11425">
        <ele>245.60000610352</ele>
        <time>2011-08-17T10:56:43.000Z</time>
      </trkpt>
      <trkpt lat="44.97254" lon="1.11386">
        <ele>244.60000610352</ele>
        <time>2011-08-17T10:56:55.000Z</time>
      </trkpt>
      <trkpt lat="44.97249" lon="1.11375">
        <ele>244.19999694824</ele>
        <time>2011-08-17T10:56:58.000Z</time>
      </trkpt>
      <trkpt lat="44.97241" lon="1.11345">
        <ele>242.80000305176</ele>
        <time>2011-08-17T10:57:07.000Z</time>
      </trkpt>
      <trkpt lat="44.97243" lon="1.11316">
        <ele>239.39999389648</ele>
        <time>2011-08-17T10:57:13.000Z</time>
      </trkpt>
      <trkpt lat="44.97245" lon="1.1131">
        <ele>239</ele>
        <time>2011-08-17T10:57:14.000Z</time>
      </trkpt>
      <trkpt lat="44.97256" lon="1.11292">
        <ele>237.39999389648</ele>
        <time>2011-08-17T10:57:17.000Z</time>
      </trkpt>
      <trkpt lat="44.97273" lon="1.11263">
        <ele>234.60000610352</ele>
        <time>2011-08-17T10:57:22.000Z</time>
      </trkpt>
      <trkpt lat="44.97286" lon="1.11253">
        <ele>233.60000610352</ele>
        <time>2011-08-17T10:57:25.000Z</time>
      </trkpt>
      <trkpt lat="44.97294" lon="1.1123">
        <ele>231.19999694824</ele>
        <time>2011-08-17T10:57:29.000Z</time>
      </trkpt>
      <trkpt lat="44.97294" lon="1.11187">
        <ele>228.80000305176</ele>
        <time>2011-08-17T10:57:35.000Z</time>
      </trkpt>
      <trkpt lat="44.97302" lon="1.11149">
        <ele>226</ele>
        <time>2011-08-17T10:57:40.000Z</time>
      </trkpt>
      <trkpt lat="44.97312" lon="1.11108">
        <ele>224</ele>
        <time>2011-08-17T10:57:46.000Z</time>
      </trkpt>
      <trkpt lat="44.9732" lon="1.11088">
        <ele>224</ele>
        <time>2011-08-17T10:57:49.000Z</time>
      </trkpt>
      <trkpt lat="44.97332" lon="1.1106">
        <ele>222.60000610352</ele>
        <time>2011-08-17T10:57:53.000Z</time>
      </trkpt>
      <trkpt lat="44.97342" lon="1.11029">
        <ele>221.60000610352</ele>
        <time>2011-08-17T10:57:57.000Z</time>
      </trkpt>
      <trkpt lat="44.97363" lon="1.10989">
        <ele>218.80000305176</ele>
        <time>2011-08-17T10:58:03.000Z</time>
      </trkpt>
      <trkpt lat="44.97379" lon="1.10956">
        <ele>215.39999389648</ele>
        <time>2011-08-17T10:58:08.000Z</time>
      </trkpt>
      <trkpt lat="44.97376" lon="1.10941">
        <ele>214</ele>
        <time>2011-08-17T10:58:15.000Z</time>
      </trkpt>
      <trkpt lat="44.97341" lon="1.10956">
        <ele>214.39999389648</ele>
        <time>2011-08-17T10:58:28.000Z</time>
      </trkpt>
      <trkpt lat="44.97314" lon="1.10961">
        <ele>215.39999389648</ele>
        <time>2011-08-17T10:58:37.000Z</time>
      </trkpt>
      <trkpt lat="44.97301" lon="1.10973">
        <ele>215.39999389648</ele>
        <time>2011-08-17T10:58:42.000Z</time>
      </trkpt>
      <trkpt lat="44.97271" lon="1.10979">
        <ele>214.39999389648</ele>
        <time>2011-08-17T10:58:51.000Z</time>
      </trkpt>
      <trkpt lat="44.97254" lon="1.10966">
        <ele>210</ele>
        <time>2011-08-17T10:58:55.000Z</time>
      </trkpt>
      <trkpt lat="44.9724" lon="1.10952">
        <ele>207.19999694824</ele>
        <time>2011-08-17T10:58:58.000Z</time>
      </trkpt>
      <trkpt lat="44.97224" lon="1.10933">
        <ele>204.39999389648</ele>
        <time>2011-08-17T10:59:01.000Z</time>
      </trkpt>
      <trkpt lat="44.97216" lon="1.10921">
        <ele>202.39999389648</ele>
        <time>2011-08-17T10:59:03.000Z</time>
      </trkpt>
      <trkpt lat="44.97202" lon="1.10899">
        <ele>199</ele>
        <time>2011-08-17T10:59:06.000Z</time>
      </trkpt>
      <trkpt lat="44.97189" lon="1.10871">
        <ele>195.19999694824</ele>
        <time>2011-08-17T10:59:09.000Z</time>
      </trkpt>
      <trkpt lat="44.97195" lon="1.10823">
        <ele>191.80000305176</ele>
        <time>2011-08-17T10:59:15.000Z</time>
      </trkpt>
      <trkpt lat="44.97205" lon="1.10805">
        <ele>189.39999389648</ele>
        <time>2011-08-17T10:59:17.000Z</time>
      </trkpt>
      <trkpt lat="44.97226" lon="1.10762">
        <ele>187</ele>
        <time>2011-08-17T10:59:21.000Z</time>
      </trkpt>
      <trkpt lat="44.97237" lon="1.10732">
        <ele>184.19999694824</ele>
        <time>2011-08-17T10:59:24.000Z</time>
      </trkpt>
      <trkpt lat="44.9725" lon="1.107">
        <ele>181.80000305176</ele>
        <time>2011-08-17T10:59:28.000Z</time>
      </trkpt>
      <trkpt lat="44.97252" lon="1.1069">
        <ele>181.19999694824</ele>
        <time>2011-08-17T10:59:29.000Z</time>
      </trkpt>
      <trkpt lat="44.97263" lon="1.10638">
        <ele>178.80000305176</ele>
        <time>2011-08-17T10:59:35.000Z</time>
      </trkpt>
      <trkpt lat="44.9727" lon="1.106">
        <ele>176</ele>
        <time>2011-08-17T10:59:40.000Z</time>
      </trkpt>
      <trkpt lat="44.97274" lon="1.10586">
        <ele>174.60000610352</ele>
        <time>2011-08-17T10:59:42.000Z</time>
      </trkpt>
      <trkpt lat="44.97339" lon="1.10578">
        <ele>172.19999694824</ele>
        <time>2011-08-17T10:59:45.000Z</time>
      </trkpt>
      <trkpt lat="44.97345" lon="1.10574">
        <ele>172.19999694824</ele>
        <time>2011-08-17T10:59:46.000Z</time>
      </trkpt>
      <trkpt lat="44.97369" lon="1.10554">
        <ele>169.19999694824</ele>
        <time>2011-08-17T10:59:49.000Z</time>
      </trkpt>
      <trkpt lat="44.97376" lon="1.10548">
        <ele>166.80000305176</ele>
        <time>2011-08-17T10:59:50.000Z</time>
      </trkpt>
      <trkpt lat="44.97394" lon="1.1054">
        <ele>165.39999389648</ele>
        <time>2011-08-17T10:59:52.000Z</time>
      </trkpt>
      <trkpt lat="44.97416" lon="1.10516">
        <ele>164</ele>
        <time>2011-08-17T10:59:55.000Z</time>
      </trkpt>
      <trkpt lat="44.97432" lon="1.10486">
        <ele>162.60000610352</ele>
        <time>2011-08-17T10:59:58.000Z</time>
      </trkpt>
      <trkpt lat="44.97446" lon="1.10459">
        <ele>160.60000610352</ele>
        <time>2011-08-17T11:00:01.000Z</time>
      </trkpt>
      <trkpt lat="44.97455" lon="1.1041">
        <ele>157.19999694824</ele>
        <time>2011-08-17T11:00:07.000Z</time>
      </trkpt>
      <trkpt lat="44.97478" lon="1.10369">
        <ele>154.39999389648</ele>
        <time>2011-08-17T11:00:12.000Z</time>
      </trkpt>
      <trkpt lat="44.97508" lon="1.10306">
        <ele>150.39999389648</ele>
        <time>2011-08-17T11:00:18.000Z</time>
      </trkpt>
      <trkpt lat="44.97513" lon="1.10295">
        <ele>150</ele>
        <time>2011-08-17T11:00:19.000Z</time>
      </trkpt>
      <trkpt lat="44.97536" lon="1.10251">
        <ele>146.60000610352</ele>
        <time>2011-08-17T11:00:23.000Z</time>
      </trkpt>
      <trkpt lat="44.9754" lon="1.10244">
        <ele>146.60000610352</ele>
        <time>2011-08-17T11:00:24.000Z</time>
      </trkpt>
      <trkpt lat="44.97548" lon="1.10233">
        <ele>145.60000610352</ele>
        <time>2011-08-17T11:00:26.000Z</time>
      </trkpt>
      <trkpt lat="44.97561" lon="1.10218">
        <ele>145.19999694824</ele>
        <time>2011-08-17T11:00:31.000Z</time>
      </trkpt>
      <trkpt lat="44.97572" lon="1.102">
        <ele>145.60000610352</ele>
        <time>2011-08-17T11:00:43.000Z</time>
      </trkpt>
      <trkpt lat="44.97574" lon="1.10198">
        <ele>145.60000610352</ele>
        <time>2011-08-17T11:00:46.000Z</time>
      </trkpt>
      <trkpt lat="44.97579" lon="1.10192">
        <ele>145.60000610352</ele>
        <time>2011-08-17T11:00:50.000Z</time>
      </trkpt>
      <trkpt lat="44.97588" lon="1.10173">
        <ele>146.60000610352</ele>
        <time>2011-08-17T11:00:58.000Z</time>
      </trkpt>
      <trkpt lat="44.97592" lon="1.10156">
        <ele>147.19999694824</ele>
        <time>2011-08-17T11:01:03.000Z</time>
      </trkpt>
      <trkpt lat="44.976" lon="1.10131">
        <ele>148.60000610352</ele>
        <time>2011-08-17T11:01:13.000Z</time>
      </trkpt>
      <trkpt lat="44.97604" lon="1.10126">
        <ele>148.60000610352</ele>
        <time>2011-08-17T11:01:15.000Z</time>
      </trkpt>
      <trkpt lat="44.97607" lon="1.1012">
        <ele>149</ele>
        <time>2011-08-17T11:01:18.000Z</time>
      </trkpt>
      <trkpt lat="44.97615" lon="1.10111">
        <ele>149.60000610352</ele>
        <time>2011-08-17T11:01:23.000Z</time>
      </trkpt>
      <trkpt lat="44.97622" lon="1.10103">
        <ele>150.39999389648</ele>
        <time>2011-08-17T11:01:29.000Z</time>
      </trkpt>
      <trkpt lat="44.9763" lon="1.10087">
        <ele>152</ele>
        <time>2011-08-17T11:01:36.000Z</time>
      </trkpt>
      <trkpt lat="44.97642" lon="1.10073">
        <ele>153.39999389648</ele>
        <time>2011-08-17T11:01:43.000Z</time>
      </trkpt>
      <trkpt lat="44.97645" lon="1.10064">
        <ele>154.39999389648</ele>
        <time>2011-08-17T11:01:47.000Z</time>
      </trkpt>
      <trkpt lat="44.97641" lon="1.10051">
        <ele>155.19999694824</ele>
        <time>2011-08-17T11:01:52.000Z</time>
      </trkpt>
      <trkpt lat="44.9764" lon="1.10047">
        <ele>155.80000305176</ele>
        <time>2011-08-17T11:01:54.000Z</time>
      </trkpt>
      <trkpt lat="44.97644" lon="1.10036">
        <ele>156.19999694824</ele>
        <time>2011-08-17T11:01:58.000Z</time>
      </trkpt>
      <trkpt lat="44.97652" lon="1.10019">
        <ele>157.60000610352</ele>
        <time>2011-08-17T11:02:05.000Z</time>
      </trkpt>
      <trkpt lat="44.97656" lon="1.10013">
        <ele>158.19999694824</ele>
        <time>2011-08-17T11:02:07.000Z</time>
      </trkpt>
      <trkpt lat="44.9766" lon="1.10007">
        <ele>157.60000610352</ele>
        <time>2011-08-17T11:02:09.000Z</time>
      </trkpt>
      <trkpt lat="44.97673" lon="1.0998">
        <ele>160</ele>
        <time>2011-08-17T11:02:17.000Z</time>
      </trkpt>
      <trkpt lat="44.97678" lon="1.09969">
        <ele>160.60000610352</ele>
        <time>2011-08-17T11:02:21.000Z</time>
      </trkpt>
      <trkpt lat="44.97684" lon="1.09958">
        <ele>161</ele>
        <time>2011-08-17T11:02:26.000Z</time>
      </trkpt>
      <trkpt lat="44.97688" lon="1.09952">
        <ele>162</ele>
        <time>2011-08-17T11:02:29.000Z</time>
      </trkpt>
      <trkpt lat="44.97694" lon="1.09935">
        <ele>162.60000610352</ele>
        <time>2011-08-17T11:02:34.000Z</time>
      </trkpt>
      <trkpt lat="44.97696" lon="1.09927">
        <ele>163</ele>
        <time>2011-08-17T11:02:36.000Z</time>
      </trkpt>
      <trkpt lat="44.97696" lon="1.09919">
        <ele>163.39999389648</ele>
        <time>2011-08-17T11:02:38.000Z</time>
      </trkpt>
      <trkpt lat="44.97694" lon="1.09913">
        <ele>164</ele>
        <time>2011-08-17T11:02:41.000Z</time>
      </trkpt>
      <trkpt lat="44.97692" lon="1.099">
        <ele>165</ele>
        <time>2011-08-17T11:02:45.000Z</time>
      </trkpt>
      <trkpt lat="44.97688" lon="1.09889">
        <ele>166.39999389648</ele>
        <time>2011-08-17T11:02:50.000Z</time>
      </trkpt>
      <trkpt lat="44.97686" lon="1.09866">
        <ele>169.19999694824</ele>
        <time>2011-08-17T11:03:01.000Z</time>
      </trkpt>
      <trkpt lat="44.97685" lon="1.09858">
        <ele>169.19999694824</ele>
        <time>2011-08-17T11:03:04.000Z</time>
      </trkpt>
      <trkpt lat="44.97681" lon="1.09834">
        <ele>171.60000610352</ele>
        <time>2011-08-17T11:03:14.000Z</time>
      </trkpt>
      <trkpt lat="44.9768" lon="1.09806">
        <ele>172.60000610352</ele>
        <time>2011-08-17T11:03:24.000Z</time>
      </trkpt>
      <trkpt lat="44.97678" lon="1.09763">
        <ele>174.60000610352</ele>
        <time>2011-08-17T11:03:33.000Z</time>
      </trkpt>
      <trkpt lat="44.97684" lon="1.09737">
        <ele>175</ele>
        <time>2011-08-17T11:03:39.000Z</time>
      </trkpt>
      <trkpt lat="44.9768" lon="1.09702">
        <ele>177.39999389648</ele>
        <time>2011-08-17T11:03:50.000Z</time>
      </trkpt>
      <trkpt lat="44.9768" lon="1.097">
        <ele>177.39999389648</ele>
        <time>2011-08-17T11:03:51.000Z</time>
      </trkpt>
      <trkpt lat="44.97679" lon="1.0969">
        <ele>178.39999389648</ele>
        <time>2011-08-17T11:03:55.000Z</time>
      </trkpt>
      <trkpt lat="44.97677" lon="1.09681">
        <ele>178.80000305176</ele>
        <time>2011-08-17T11:03:59.000Z</time>
      </trkpt>
      <trkpt lat="44.97678" lon="1.09677">
        <ele>179.80000305176</ele>
        <time>2011-08-17T11:04:02.000Z</time>
      </trkpt>
      <trkpt lat="44.97674" lon="1.09669">
        <ele>180.80000305176</ele>
        <time>2011-08-17T11:04:06.000Z</time>
      </trkpt>
      <trkpt lat="44.97662" lon="1.09643">
        <ele>183.19999694824</ele>
        <time>2011-08-17T11:04:17.000Z</time>
      </trkpt>
      <trkpt lat="44.97659" lon="1.09632">
        <ele>183.60000610352</ele>
        <time>2011-08-17T11:04:22.000Z</time>
      </trkpt>
      <trkpt lat="44.97659" lon="1.09626">
        <ele>184.60000610352</ele>
        <time>2011-08-17T11:04:25.000Z</time>
      </trkpt>
      <trkpt lat="44.97648" lon="1.09601">
        <ele>186.60000610352</ele>
        <time>2011-08-17T11:04:37.000Z</time>
      </trkpt>
      <trkpt lat="44.97644" lon="1.09584">
        <ele>189.39999389648</ele>
        <time>2011-08-17T11:04:49.000Z</time>
      </trkpt>
      <trkpt lat="44.97634" lon="1.09564">
        <ele>191.80000305176</ele>
        <time>2011-08-17T11:04:59.000Z</time>
      </trkpt>
      <trkpt lat="44.97631" lon="1.09558">
        <ele>192.19999694824</ele>
        <time>2011-08-17T11:05:02.000Z</time>
      </trkpt>
      <trkpt lat="44.97629" lon="1.0955">
        <ele>193.19999694824</ele>
        <time>2011-08-17T11:05:07.000Z</time>
      </trkpt>
      <trkpt lat="44.97623" lon="1.09535">
        <ele>195.19999694824</ele>
        <time>2011-08-17T11:05:18.000Z</time>
      </trkpt>
      <trkpt lat="44.97614" lon="1.09516">
        <ele>197.60000610352</ele>
        <time>2011-08-17T11:05:28.000Z</time>
      </trkpt>
      <trkpt lat="44.97606" lon="1.09507">
        <ele>198</ele>
        <time>2011-08-17T11:05:33.000Z</time>
      </trkpt>
      <trkpt lat="44.97606" lon="1.09476">
        <ele>199.60000610352</ele>
        <time>2011-08-17T11:05:43.000Z</time>
      </trkpt>
      <trkpt lat="44.97614" lon="1.09436">
        <ele>201</ele>
        <time>2011-08-17T11:05:55.000Z</time>
      </trkpt>
      <trkpt lat="44.9762" lon="1.09412">
        <ele>202.80000305176</ele>
        <time>2011-08-17T11:06:04.000Z</time>
      </trkpt>
      <trkpt lat="44.97636" lon="1.09417">
        <ele>204.39999389648</ele>
        <time>2011-08-17T11:06:14.000Z</time>
      </trkpt>
      <trkpt lat="44.9765" lon="1.09423">
        <ele>206.19999694824</ele>
        <time>2011-08-17T11:06:25.000Z</time>
      </trkpt>
      <trkpt lat="44.97652" lon="1.0942">
        <ele>206.80000305176</ele>
        <time>2011-08-17T11:06:27.000Z</time>
      </trkpt>
      <trkpt lat="44.9766" lon="1.09396">
        <ele>209.19999694824</ele>
        <time>2011-08-17T11:06:38.000Z</time>
      </trkpt>
      <trkpt lat="44.97659" lon="1.0939">
        <ele>209.19999694824</ele>
        <time>2011-08-17T11:06:40.000Z</time>
      </trkpt>
      <trkpt lat="44.97659" lon="1.09385">
        <ele>209.60000610352</ele>
        <time>2011-08-17T11:06:42.000Z</time>
      </trkpt>
      <trkpt lat="44.97661" lon="1.09376">
        <ele>210</ele>
        <time>2011-08-17T11:06:46.000Z</time>
      </trkpt>
      <trkpt lat="44.97663" lon="1.09364">
        <ele>211</ele>
        <time>2011-08-17T11:06:51.000Z</time>
      </trkpt>
      <trkpt lat="44.97666" lon="1.09357">
        <ele>211.60000610352</ele>
        <time>2011-08-17T11:06:55.000Z</time>
      </trkpt>
      <trkpt lat="44.97676" lon="1.09345">
        <ele>214.39999389648</ele>
        <time>2011-08-17T11:07:04.000Z</time>
      </trkpt>
      <trkpt lat="44.97687" lon="1.09339">
        <ele>215.80000305176</ele>
        <time>2011-08-17T11:07:13.000Z</time>
      </trkpt>
      <trkpt lat="44.97696" lon="1.09336">
        <ele>217.19999694824</ele>
        <time>2011-08-17T11:07:19.000Z</time>
      </trkpt>
      <trkpt lat="44.97708" lon="1.09328">
        <ele>218.80000305176</ele>
        <time>2011-08-17T11:07:29.000Z</time>
      </trkpt>
      <trkpt lat="44.97721" lon="1.09311">
        <ele>221.60000610352</ele>
        <time>2011-08-17T11:07:42.000Z</time>
      </trkpt>
      <trkpt lat="44.97728" lon="1.09301">
        <ele>223</ele>
        <time>2011-08-17T11:07:49.000Z</time>
      </trkpt>
      <trkpt lat="44.97731" lon="1.09295">
        <ele>224</ele>
        <time>2011-08-17T11:07:53.000Z</time>
      </trkpt>
      <trkpt lat="44.97741" lon="1.09278">
        <ele>225.39999389648</ele>
        <time>2011-08-17T11:08:03.000Z</time>
      </trkpt>
      <trkpt lat="44.97759" lon="1.09247">
        <ele>227.39999389648</ele>
        <time>2011-08-17T11:08:19.000Z</time>
      </trkpt>
      <trkpt lat="44.97763" lon="1.09238">
        <ele>228.39999389648</ele>
        <time>2011-08-17T11:08:24.000Z</time>
      </trkpt>
      <trkpt lat="44.9777" lon="1.09223">
        <ele>230.19999694824</ele>
        <time>2011-08-17T11:08:34.000Z</time>
      </trkpt>
      <trkpt lat="44.97778" lon="1.09205">
        <ele>231.80000305176</ele>
        <time>2011-08-17T11:08:44.000Z</time>
      </trkpt>
      <trkpt lat="44.97788" lon="1.09181">
        <ele>234.19999694824</ele>
        <time>2011-08-17T11:08:56.000Z</time>
      </trkpt>
      <trkpt lat="44.97792" lon="1.09174">
        <ele>235</ele>
        <time>2011-08-17T11:09:00.000Z</time>
      </trkpt>
      <trkpt lat="44.97794" lon="1.09168">
        <ele>236</ele>
        <time>2011-08-17T11:09:04.000Z</time>
      </trkpt>
      <trkpt lat="44.97807" lon="1.09154">
        <ele>238.39999389648</ele>
        <time>2011-08-17T11:09:16.000Z</time>
      </trkpt>
      <trkpt lat="44.97822" lon="1.09134">
        <ele>240.39999389648</ele>
        <time>2011-08-17T11:09:28.000Z</time>
      </trkpt>
      <trkpt lat="44.97825" lon="1.09129">
        <ele>240.80000305176</ele>
        <time>2011-08-17T11:09:31.000Z</time>
      </trkpt>
      <trkpt lat="44.97823" lon="1.09121">
        <ele>242.80000305176</ele>
        <time>2011-08-17T11:09:42.000Z</time>
      </trkpt>
      <trkpt lat="44.97822" lon="1.09121">
        <ele>242.19999694824</ele>
        <time>2011-08-17T11:10:17.000Z</time>
      </trkpt>
      <trkpt lat="44.97822" lon="1.0912">
        <ele>243.19999694824</ele>
        <time>2011-08-17T11:12:59.000Z</time>
      </trkpt>
      <trkpt lat="44.97822" lon="1.0912">
        <ele>240.39999389648</ele>
        <time>2011-08-17T11:13:33.000Z</time>
      </trkpt>
      <trkpt lat="44.97822" lon="1.09121">
        <ele>243.19999694824</ele>
        <time>2011-08-17T11:14:10.000Z</time>
      </trkpt>
      <trkpt lat="44.97821" lon="1.0912">
        <ele>243.80000305176</ele>
        <time>2011-08-17T11:17:15.000Z</time>
      </trkpt>
      <trkpt lat="44.97822" lon="1.09118">
        <ele>243.19999694824</ele>
        <time>2011-08-17T11:17:27.000Z</time>
      </trkpt>
      <trkpt lat="44.97843" lon="1.09091">
        <ele>246.19999694824</ele>
        <time>2011-08-17T11:17:41.000Z</time>
      </trkpt>
      <trkpt lat="44.97868" lon="1.09051">
        <ele>249</ele>
        <time>2011-08-17T11:17:56.000Z</time>
      </trkpt>
      <trkpt lat="44.97895" lon="1.09014">
        <ele>251.39999389648</ele>
        <time>2011-08-17T11:18:11.000Z</time>
      </trkpt>
      <trkpt lat="44.97927" lon="1.08979">
        <ele>253.80000305176</ele>
        <time>2011-08-17T11:18:25.000Z</time>
      </trkpt>
      <trkpt lat="44.97955" lon="1.08953">
        <ele>256.79998779297</ele>
        <time>2011-08-17T11:18:38.000Z</time>
      </trkpt>
      <trkpt lat="44.97962" lon="1.0895">
        <ele>257.60000610352</ele>
        <time>2011-08-17T11:18:41.000Z</time>
      </trkpt>
      <trkpt lat="44.97973" lon="1.08961">
        <ele>257.60000610352</ele>
        <time>2011-08-17T11:18:45.000Z</time>
      </trkpt>
      <trkpt lat="44.97998" lon="1.08992">
        <ele>257.60000610352</ele>
        <time>2011-08-17T11:18:54.000Z</time>
      </trkpt>
      <trkpt lat="44.98028" lon="1.09027">
        <ele>256.20001220703</ele>
        <time>2011-08-17T11:19:04.000Z</time>
      </trkpt>
      <trkpt lat="44.98045" lon="1.0902">
        <ele>255.19999694824</ele>
        <time>2011-08-17T11:19:13.000Z</time>
      </trkpt>
      <trkpt lat="44.98053" lon="1.09027">
        <ele>255.19999694824</ele>
        <time>2011-08-17T11:19:16.000Z</time>
      </trkpt>
      <trkpt lat="44.98075" lon="1.09047">
        <ele>254.39999389648</ele>
        <time>2011-08-17T11:19:22.000Z</time>
      </trkpt>
      <trkpt lat="44.9809" lon="1.09061">
        <ele>253.39999389648</ele>
        <time>2011-08-17T11:19:26.000Z</time>
      </trkpt>
      <trkpt lat="44.98102" lon="1.09062">
        <ele>252</ele>
        <time>2011-08-17T11:19:30.000Z</time>
      </trkpt>
      <trkpt lat="44.98149" lon="1.09078">
        <ele>248.60000610352</ele>
        <time>2011-08-17T11:19:42.000Z</time>
      </trkpt>
      <trkpt lat="44.98167" lon="1.09084">
        <ele>245.60000610352</ele>
        <time>2011-08-17T11:19:45.000Z</time>
      </trkpt>
      <trkpt lat="44.98206" lon="1.09097">
        <ele>241.80000305176</ele>
        <time>2011-08-17T11:19:51.000Z</time>
      </trkpt>
      <trkpt lat="44.9821" lon="1.09099">
        <ele>240.80000305176</ele>
        <time>2011-08-17T11:19:52.000Z</time>
      </trkpt>
      <trkpt lat="44.9822" lon="1.09108">
        <ele>239</ele>
        <time>2011-08-17T11:19:55.000Z</time>
      </trkpt>
      <trkpt lat="44.98234" lon="1.09115">
        <ele>236</ele>
        <time>2011-08-17T11:19:58.000Z</time>
      </trkpt>
      <trkpt lat="44.98245" lon="1.09117">
        <ele>234.19999694824</ele>
        <time>2011-08-17T11:20:00.000Z</time>
      </trkpt>
      <trkpt lat="44.98266" lon="1.09118">
        <ele>234.19999694824</ele>
        <time>2011-08-17T11:20:04.000Z</time>
      </trkpt>
      <trkpt lat="44.98307" lon="1.09114">
        <ele>235</ele>
        <time>2011-08-17T11:20:12.000Z</time>
      </trkpt>
      <trkpt lat="44.98321" lon="1.0911">
        <ele>237.39999389648</ele>
        <time>2011-08-17T11:20:16.000Z</time>
      </trkpt>
      <trkpt lat="44.98353" lon="1.09089">
        <ele>239.39999389648</ele>
        <time>2011-08-17T11:20:25.000Z</time>
      </trkpt>
      <trkpt lat="44.98363" lon="1.09084">
        <ele>240.39999389648</ele>
        <time>2011-08-17T11:20:27.000Z</time>
      </trkpt>
      <trkpt lat="44.98379" lon="1.09078">
        <ele>241.80000305176</ele>
        <time>2011-08-17T11:20:30.000Z</time>
      </trkpt>
      <trkpt lat="44.98394" lon="1.09069">
        <ele>241.39999389648</ele>
        <time>2011-08-17T11:20:35.000Z</time>
      </trkpt>
      <trkpt lat="44.98424" lon="1.09065">
        <ele>243.19999694824</ele>
        <time>2011-08-17T11:20:44.000Z</time>
      </trkpt>
      <trkpt lat="44.98438" lon="1.09063">
        <ele>243.19999694824</ele>
        <time>2011-08-17T11:20:51.000Z</time>
      </trkpt>
      <trkpt lat="44.98446" lon="1.09058">
        <ele>243.80000305176</ele>
        <time>2011-08-17T11:20:55.000Z</time>
      </trkpt>
      <trkpt lat="44.98456" lon="1.09057">
        <ele>243.80000305176</ele>
        <time>2011-08-17T11:21:02.000Z</time>
      </trkpt>
      <trkpt lat="44.98463" lon="1.09055">
        <ele>243.80000305176</ele>
        <time>2011-08-17T11:21:05.000Z</time>
      </trkpt>
      <trkpt lat="44.98471" lon="1.09049">
        <ele>243.80000305176</ele>
        <time>2011-08-17T11:21:13.000Z</time>
      </trkpt>
      <trkpt lat="44.98473" lon="1.09048">
        <ele>244.19999694824</ele>
        <time>2011-08-17T11:21:14.000Z</time>
      </trkpt>
      <trkpt lat="44.98501" lon="1.09027">
        <ele>245.19999694824</ele>
        <time>2011-08-17T11:21:23.000Z</time>
      </trkpt>
      <trkpt lat="44.98511" lon="1.09017">
        <ele>246.19999694824</ele>
        <time>2011-08-17T11:21:27.000Z</time>
      </trkpt>
      <trkpt lat="44.98513" lon="1.09013">
        <ele>246.60000610352</ele>
        <time>2011-08-17T11:21:29.000Z</time>
      </trkpt>
      <trkpt lat="44.98546" lon="1.08975">
        <ele>248</ele>
        <time>2011-08-17T11:21:42.000Z</time>
      </trkpt>
      <trkpt lat="44.98572" lon="1.08938">
        <ele>248</ele>
        <time>2011-08-17T11:21:53.000Z</time>
      </trkpt>
      <trkpt lat="44.98579" lon="1.08922">
        <ele>248.60000610352</ele>
        <time>2011-08-17T11:21:57.000Z</time>
      </trkpt>
      <trkpt lat="44.98587" lon="1.08901">
        <ele>249</ele>
        <time>2011-08-17T11:22:02.000Z</time>
      </trkpt>
      <trkpt lat="44.98602" lon="1.08859">
        <ele>249.60000610352</ele>
        <time>2011-08-17T11:22:10.000Z</time>
      </trkpt>
      <trkpt lat="44.98614" lon="1.08828">
        <ele>249.60000610352</ele>
        <time>2011-08-17T11:22:16.000Z</time>
      </trkpt>
      <trkpt lat="44.98635" lon="1.08775">
        <ele>250</ele>
        <time>2011-08-17T11:22:29.000Z</time>
      </trkpt>
      <trkpt lat="44.98656" lon="1.0874">
        <ele>249.60000610352</ele>
        <time>2011-08-17T11:22:40.000Z</time>
      </trkpt>
      <trkpt lat="44.98662" lon="1.0873">
        <ele>249</ele>
        <time>2011-08-17T11:22:42.000Z</time>
      </trkpt>
      <trkpt lat="44.98668" lon="1.0872">
        <ele>249</ele>
        <time>2011-08-17T11:22:44.000Z</time>
      </trkpt>
      <trkpt lat="44.98687" lon="1.08681">
        <ele>247</ele>
        <time>2011-08-17T11:22:50.000Z</time>
      </trkpt>
      <trkpt lat="44.98692" lon="1.08666">
        <ele>246.60000610352</ele>
        <time>2011-08-17T11:22:52.000Z</time>
      </trkpt>
      <trkpt lat="44.98701" lon="1.08643">
        <ele>245.19999694824</ele>
        <time>2011-08-17T11:22:55.000Z</time>
      </trkpt>
      <trkpt lat="44.98725" lon="1.08596">
        <ele>241.80000305176</ele>
        <time>2011-08-17T11:23:01.000Z</time>
      </trkpt>
      <trkpt lat="44.98729" lon="1.08589">
        <ele>240.39999389648</ele>
        <time>2011-08-17T11:23:02.000Z</time>
      </trkpt>
      <trkpt lat="44.98757" lon="1.0856">
        <ele>235.60000610352</ele>
        <time>2011-08-17T11:23:07.000Z</time>
      </trkpt>
      <trkpt lat="44.98783" lon="1.08545">
        <ele>232.60000610352</ele>
        <time>2011-08-17T11:23:11.000Z</time>
      </trkpt>
      <trkpt lat="44.98798" lon="1.0854">
        <ele>232.19999694824</ele>
        <time>2011-08-17T11:23:13.000Z</time>
      </trkpt>
      <trkpt lat="44.98826" lon="1.08527">
        <ele>228.80000305176</ele>
        <time>2011-08-17T11:23:17.000Z</time>
      </trkpt>
      <trkpt lat="44.9884" lon="1.08527">
        <ele>228.39999389648</ele>
        <time>2011-08-17T11:23:19.000Z</time>
      </trkpt>
      <trkpt lat="44.98878" lon="1.08519">
        <ele>224.60000610352</ele>
        <time>2011-08-17T11:23:24.000Z</time>
      </trkpt>
      <trkpt lat="44.98885" lon="1.08517">
        <ele>224</ele>
        <time>2011-08-17T11:23:25.000Z</time>
      </trkpt>
      <trkpt lat="44.98925" lon="1.08489">
        <ele>219.80000305176</ele>
        <time>2011-08-17T11:23:31.000Z</time>
      </trkpt>
      <trkpt lat="44.98957" lon="1.0847">
        <ele>215.39999389648</ele>
        <time>2011-08-17T11:23:36.000Z</time>
      </trkpt>
      <trkpt lat="44.98981" lon="1.08455">
        <ele>212.39999389648</ele>
        <time>2011-08-17T11:23:40.000Z</time>
      </trkpt>
      <trkpt lat="44.99018" lon="1.08447">
        <ele>208.60000610352</ele>
        <time>2011-08-17T11:23:45.000Z</time>
      </trkpt>
      <trkpt lat="44.99048" lon="1.08454">
        <ele>205.80000305176</ele>
        <time>2011-08-17T11:23:49.000Z</time>
      </trkpt>
      <trkpt lat="44.99062" lon="1.08455">
        <ele>204.39999389648</ele>
        <time>2011-08-17T11:23:51.000Z</time>
      </trkpt>
      <trkpt lat="44.99076" lon="1.08454">
        <ele>202.39999389648</ele>
        <time>2011-08-17T11:23:53.000Z</time>
      </trkpt>
      <trkpt lat="44.99088" lon="1.08451">
        <ele>200.39999389648</ele>
        <time>2011-08-17T11:23:55.000Z</time>
      </trkpt>
      <trkpt lat="44.99104" lon="1.0845">
        <ele>198</ele>
        <time>2011-08-17T11:23:58.000Z</time>
      </trkpt>
      <trkpt lat="44.99124" lon="1.08454">
        <ele>195.60000610352</ele>
        <time>2011-08-17T11:24:02.000Z</time>
      </trkpt>
      <trkpt lat="44.99149" lon="1.08452">
        <ele>191.39999389648</ele>
        <time>2011-08-17T11:24:07.000Z</time>
      </trkpt>
      <trkpt lat="44.9917" lon="1.08454">
        <ele>188.39999389648</ele>
        <time>2011-08-17T11:24:10.000Z</time>
      </trkpt>
      <trkpt lat="44.99178" lon="1.08457">
        <ele>188.39999389648</ele>
        <time>2011-08-17T11:24:11.000Z</time>
      </trkpt>
      <trkpt lat="44.99203" lon="1.08466">
        <ele>186.60000610352</ele>
        <time>2011-08-17T11:24:15.000Z</time>
      </trkpt>
      <trkpt lat="44.99215" lon="1.08459">
        <ele>186</ele>
        <time>2011-08-17T11:24:18.000Z</time>
      </trkpt>
      <trkpt lat="44.99224" lon="1.08447">
        <ele>184.60000610352</ele>
        <time>2011-08-17T11:24:21.000Z</time>
      </trkpt>
      <trkpt lat="44.99248" lon="1.0842">
        <ele>181.19999694824</ele>
        <time>2011-08-17T11:24:26.000Z</time>
      </trkpt>
      <trkpt lat="44.99276" lon="1.08402">
        <ele>177.80000305176</ele>
        <time>2011-08-17T11:24:30.000Z</time>
      </trkpt>
      <trkpt lat="44.99297" lon="1.08387">
        <ele>176.39999389648</ele>
        <time>2011-08-17T11:24:33.000Z</time>
      </trkpt>
      <trkpt lat="44.99331" lon="1.08363">
        <ele>171.60000610352</ele>
        <time>2011-08-17T11:24:38.000Z</time>
      </trkpt>
      <trkpt lat="44.99344" lon="1.08353">
        <ele>170.19999694824</ele>
        <time>2011-08-17T11:24:40.000Z</time>
      </trkpt>
      <trkpt lat="44.99371" lon="1.08335">
        <ele>166.39999389648</ele>
        <time>2011-08-17T11:24:44.000Z</time>
      </trkpt>
      <trkpt lat="44.99393" lon="1.08319">
        <ele>162.60000610352</ele>
        <time>2011-08-17T11:24:48.000Z</time>
      </trkpt>
      <trkpt lat="44.99408" lon="1.08307">
        <ele>160.60000610352</ele>
        <time>2011-08-17T11:24:51.000Z</time>
      </trkpt>
      <trkpt lat="44.99424" lon="1.08286">
        <ele>155.80000305176</ele>
        <time>2011-08-17T11:24:55.000Z</time>
      </trkpt>
      <trkpt lat="44.99428" lon="1.08282">
        <ele>155.80000305176</ele>
        <time>2011-08-17T11:24:56.000Z</time>
      </trkpt>
      <trkpt lat="44.9944" lon="1.0827">
        <ele>152.39999389648</ele>
        <time>2011-08-17T11:24:59.000Z</time>
      </trkpt>
      <trkpt lat="44.9946" lon="1.08246">
        <ele>148</ele>
        <time>2011-08-17T11:25:03.000Z</time>
      </trkpt>
      <trkpt lat="44.99479" lon="1.08227">
        <ele>143.19999694824</ele>
        <time>2011-08-17T11:25:07.000Z</time>
      </trkpt>
      <trkpt lat="44.99484" lon="1.08222">
        <ele>142.39999389648</ele>
        <time>2011-08-17T11:25:08.000Z</time>
      </trkpt>
      <trkpt lat="44.99506" lon="1.082">
        <ele>138</ele>
        <time>2011-08-17T11:25:13.000Z</time>
      </trkpt>
      <trkpt lat="44.99514" lon="1.08191">
        <ele>136</ele>
        <time>2011-08-17T11:25:16.000Z</time>
      </trkpt>
      <trkpt lat="44.99516" lon="1.08188">
        <ele>135.60000610352</ele>
        <time>2011-08-17T11:25:25.000Z</time>
      </trkpt>
      <trkpt lat="44.99516" lon="1.08187">
        <ele>135</ele>
        <time>2011-08-17T11:25:34.000Z</time>
      </trkpt>
      <trkpt lat="44.99509" lon="1.08175">
        <ele>135</ele>
        <time>2011-08-17T11:25:40.000Z</time>
      </trkpt>
      <trkpt lat="44.99499" lon="1.08166">
        <ele>134.60000610352</ele>
        <time>2011-08-17T11:25:43.000Z</time>
      </trkpt>
      <trkpt lat="44.99487" lon="1.08159">
        <ele>134.60000610352</ele>
        <time>2011-08-17T11:25:46.000Z</time>
      </trkpt>
      <trkpt lat="44.99432" lon="1.08139">
        <ele>133.60000610352</ele>
        <time>2011-08-17T11:25:58.000Z</time>
      </trkpt>
      <trkpt lat="44.99395" lon="1.08132">
        <ele>133.60000610352</ele>
        <time>2011-08-17T11:26:06.000Z</time>
      </trkpt>
      <trkpt lat="44.99362" lon="1.08139">
        <ele>133.60000610352</ele>
        <time>2011-08-17T11:26:13.000Z</time>
      </trkpt>
      <trkpt lat="44.99342" lon="1.08139">
        <ele>134.19999694824</ele>
        <time>2011-08-17T11:26:17.000Z</time>
      </trkpt>
      <trkpt lat="44.99332" lon="1.08136">
        <ele>134.19999694824</ele>
        <time>2011-08-17T11:26:19.000Z</time>
      </trkpt>
      <trkpt lat="44.99318" lon="1.08132">
        <ele>134.60000610352</ele>
        <time>2011-08-17T11:26:22.000Z</time>
      </trkpt>
      <trkpt lat="44.99287" lon="1.0812">
        <ele>134.60000610352</ele>
        <time>2011-08-17T11:26:30.000Z</time>
      </trkpt>
      <trkpt lat="44.9928" lon="1.08116">
        <ele>134.60000610352</ele>
        <time>2011-08-17T11:26:32.000Z</time>
      </trkpt>
      <trkpt lat="44.9926" lon="1.08106">
        <ele>134.60000610352</ele>
        <time>2011-08-17T11:26:37.000Z</time>
      </trkpt>
      <trkpt lat="44.99252" lon="1.08102">
        <ele>134.19999694824</ele>
        <time>2011-08-17T11:26:39.000Z</time>
      </trkpt>
      <trkpt lat="44.99243" lon="1.08097">
        <ele>133.60000610352</ele>
        <time>2011-08-17T11:26:41.000Z</time>
      </trkpt>
      <trkpt lat="44.99199" lon="1.08071">
        <ele>134.19999694824</ele>
        <time>2011-08-17T11:26:52.000Z</time>
      </trkpt>
      <trkpt lat="44.99186" lon="1.08069">
        <ele>134.19999694824</ele>
        <time>2011-08-17T11:26:55.000Z</time>
      </trkpt>
      <trkpt lat="44.99168" lon="1.0807">
        <ele>134.60000610352</ele>
        <time>2011-08-17T11:26:59.000Z</time>
      </trkpt>
      <trkpt lat="44.99136" lon="1.08075">
        <ele>135.60000610352</ele>
        <time>2011-08-17T11:27:06.000Z</time>
      </trkpt>
      <trkpt lat="44.99109" lon="1.0808">
        <ele>136</ele>
        <time>2011-08-17T11:27:13.000Z</time>
      </trkpt>
      <trkpt lat="44.9908" lon="1.08064">
        <ele>138</ele>
        <time>2011-08-17T11:27:23.000Z</time>
      </trkpt>
      <trkpt lat="44.99069" lon="1.08053">
        <ele>139</ele>
        <time>2011-08-17T11:27:28.000Z</time>
      </trkpt>
      <trkpt lat="44.99063" lon="1.08043">
        <ele>138.39999389648</ele>
        <time>2011-08-17T11:27:32.000Z</time>
      </trkpt>
      <trkpt lat="44.99066" lon="1.0802">
        <ele>135</ele>
        <time>2011-08-17T11:27:37.000Z</time>
      </trkpt>
      <trkpt lat="44.99067" lon="1.07992">
        <ele>132.19999694824</ele>
        <time>2011-08-17T11:27:41.000Z</time>
      </trkpt>
      <trkpt lat="44.99068" lon="1.07964">
        <ele>129.39999389648</ele>
        <time>2011-08-17T11:27:45.000Z</time>
      </trkpt>
      <trkpt lat="44.99063" lon="1.07942">
        <ele>127</ele>
        <time>2011-08-17T11:27:50.000Z</time>
      </trkpt>
      <trkpt lat="44.99058" lon="1.07938">
        <ele>127</ele>
        <time>2011-08-17T11:28:01.000Z</time>
      </trkpt>
      <trkpt lat="44.99058" lon="1.07938">
        <ele>122.19999694824</ele>
        <time>2011-08-17T11:28:28.000Z</time>
      </trkpt>
      <trkpt lat="44.99058" lon="1.07938">
        <ele>128.80000305176</ele>
        <time>2011-08-17T11:28:29.000Z</time>
      </trkpt>
      <trkpt lat="44.99058" lon="1.07939">
        <ele>126.40000152588</ele>
        <time>2011-08-17T11:28:32.000Z</time>
      </trkpt>
      <trkpt lat="44.99058" lon="1.07939">
        <ele>126</ele>
        <time>2011-08-17T11:28:50.000Z</time>
      </trkpt>
      <trkpt lat="44.99039" lon="1.07905">
        <ele>125</ele>
        <time>2011-08-17T11:28:59.000Z</time>
      </trkpt>
      <trkpt lat="44.99028" lon="1.07891">
        <ele>124.59999847412</ele>
        <time>2011-08-17T11:29:02.000Z</time>
      </trkpt>
      <trkpt lat="44.9899" lon="1.07843">
        <ele>125</ele>
        <time>2011-08-17T11:29:14.000Z</time>
      </trkpt>
      <trkpt lat="44.9896" lon="1.07816">
        <ele>128.80000305176</ele>
        <time>2011-08-17T11:29:27.000Z</time>
      </trkpt>
      <trkpt lat="44.98937" lon="1.07787">
        <ele>131.80000305176</ele>
        <time>2011-08-17T11:29:39.000Z</time>
      </trkpt>
      <trkpt lat="44.98912" lon="1.07753">
        <ele>135</ele>
        <time>2011-08-17T11:29:52.000Z</time>
      </trkpt>
      <trkpt lat="44.98886" lon="1.07759">
        <ele>138</ele>
        <time>2011-08-17T11:30:04.000Z</time>
      </trkpt>
      <trkpt lat="44.98873" lon="1.0778">
        <ele>139.39999389648</ele>
        <time>2011-08-17T11:30:13.000Z</time>
      </trkpt>
      <trkpt lat="44.98866" lon="1.07766">
        <ele>140</ele>
        <time>2011-08-17T11:30:21.000Z</time>
      </trkpt>
      <trkpt lat="44.98866" lon="1.07761">
        <ele>140.80000305176</ele>
        <time>2011-08-17T11:30:39.000Z</time>
      </trkpt>
      <trkpt lat="44.98866" lon="1.07759">
        <ele>140.80000305176</ele>
        <time>2011-08-17T11:31:33.000Z</time>
      </trkpt>
      <trkpt lat="44.98862" lon="1.07757">
        <ele>140.80000305176</ele>
        <time>2011-08-17T11:31:35.000Z</time>
      </trkpt>
      <trkpt lat="44.98849" lon="1.07756">
        <ele>139</ele>
        <time>2011-08-17T11:31:38.000Z</time>
      </trkpt>
      <trkpt lat="44.98833" lon="1.0775">
        <ele>137.60000610352</ele>
        <time>2011-08-17T11:31:41.000Z</time>
      </trkpt>
      <trkpt lat="44.98802" lon="1.07727">
        <ele>134.19999694824</ele>
        <time>2011-08-17T11:31:50.000Z</time>
      </trkpt>
      <trkpt lat="44.98762" lon="1.07667">
        <ele>131.19999694824</ele>
        <time>2011-08-17T11:31:59.000Z</time>
      </trkpt>
      <trkpt lat="44.98751" lon="1.07653">
        <ele>129.80000305176</ele>
        <time>2011-08-17T11:32:01.000Z</time>
      </trkpt>
      <trkpt lat="44.98743" lon="1.07642">
        <ele>127.80000305176</ele>
        <time>2011-08-17T11:32:03.000Z</time>
      </trkpt>
      <trkpt lat="44.98728" lon="1.07622">
        <ele>125.40000152588</ele>
        <time>2011-08-17T11:32:07.000Z</time>
      </trkpt>
      <trkpt lat="44.98714" lon="1.07595">
        <ele>121.19999694824</ele>
        <time>2011-08-17T11:32:13.000Z</time>
      </trkpt>
      <trkpt lat="44.98711" lon="1.07592">
        <ele>121.19999694824</ele>
        <time>2011-08-17T11:32:14.000Z</time>
      </trkpt>
      <trkpt lat="44.98704" lon="1.07587">
        <ele>118.19999694824</ele>
        <time>2011-08-17T11:32:18.000Z</time>
      </trkpt>
      <trkpt lat="44.98701" lon="1.07583">
        <ele>116.80000305176</ele>
        <time>2011-08-17T11:32:20.000Z</time>
      </trkpt>
      <trkpt lat="44.98699" lon="1.07579">
        <ele>116.40000152588</ele>
        <time>2011-08-17T11:32:21.000Z</time>
      </trkpt>
      <trkpt lat="44.98692" lon="1.07568">
        <ele>114.40000152588</ele>
        <time>2011-08-17T11:32:23.000Z</time>
      </trkpt>
      <trkpt lat="44.98682" lon="1.07556">
        <ele>112.59999847412</ele>
        <time>2011-08-17T11:32:25.000Z</time>
      </trkpt>
      <trkpt lat="44.98669" lon="1.07533">
        <ele>111</ele>
        <time>2011-08-17T11:32:28.000Z</time>
      </trkpt>
      <trkpt lat="44.98664" lon="1.07505">
        <ele>109.19999694824</ele>
        <time>2011-08-17T11:32:31.000Z</time>
      </trkpt>
      <trkpt lat="44.98648" lon="1.07465">
        <ele>103.40000152588</ele>
        <time>2011-08-17T11:32:35.000Z</time>
      </trkpt>
      <trkpt lat="44.98644" lon="1.07454">
        <ele>103</ele>
        <time>2011-08-17T11:32:36.000Z</time>
      </trkpt>
      <trkpt lat="44.98633" lon="1.07423">
        <ele>99</ele>
        <time>2011-08-17T11:32:39.000Z</time>
      </trkpt>
      <trkpt lat="44.98625" lon="1.07389">
        <ele>96.599998474121</ele>
        <time>2011-08-17T11:32:43.000Z</time>
      </trkpt>
      <trkpt lat="44.9863" lon="1.0733">
        <ele>95.199996948242</ele>
        <time>2011-08-17T11:32:54.000Z</time>
      </trkpt>
      <trkpt lat="44.98631" lon="1.07323">
        <ele>95.199996948242</ele>
        <time>2011-08-17T11:32:56.000Z</time>
      </trkpt>
      <trkpt lat="44.9864" lon="1.07306">
        <ele>95.199996948242</ele>
        <time>2011-08-17T11:33:00.000Z</time>
      </trkpt>
      <trkpt lat="44.98655" lon="1.07275">
        <ele>94.199996948242</ele>
        <time>2011-08-17T11:33:09.000Z</time>
      </trkpt>
      <trkpt lat="44.98663" lon="1.07258">
        <ele>92.400001525879</ele>
        <time>2011-08-17T11:33:12.000Z</time>
      </trkpt>
      <trkpt lat="44.98671" lon="1.07245">
        <ele>92.400001525879</ele>
        <time>2011-08-17T11:33:14.000Z</time>
      </trkpt>
      <trkpt lat="44.98695" lon="1.07206">
        <ele>90.400001525879</ele>
        <time>2011-08-17T11:33:20.000Z</time>
      </trkpt>
      <trkpt lat="44.98705" lon="1.07195">
        <ele>90.800003051758</ele>
        <time>2011-08-17T11:33:22.000Z</time>
      </trkpt>
      <trkpt lat="44.98725" lon="1.07179">
        <ele>91.400001525879</ele>
        <time>2011-08-17T11:33:26.000Z</time>
      </trkpt>
      <trkpt lat="44.98736" lon="1.07172">
        <ele>90.800003051758</ele>
        <time>2011-08-17T11:33:28.000Z</time>
      </trkpt>
      <trkpt lat="44.98747" lon="1.07163">
        <ele>90.400001525879</ele>
        <time>2011-08-17T11:33:30.000Z</time>
      </trkpt>
      <trkpt lat="44.98774" lon="1.0714">
        <ele>90.400001525879</ele>
        <time>2011-08-17T11:33:35.000Z</time>
      </trkpt>
      <trkpt lat="44.98783" lon="1.07134">
        <ele>90</ele>
        <time>2011-08-17T11:33:37.000Z</time>
      </trkpt>
      <trkpt lat="44.98787" lon="1.07132">
        <ele>90</ele>
        <time>2011-08-17T11:33:38.000Z</time>
      </trkpt>
      <trkpt lat="44.98794" lon="1.07127">
        <ele>89</ele>
        <time>2011-08-17T11:33:40.000Z</time>
      </trkpt>
      <trkpt lat="44.98799" lon="1.07119">
        <ele>88</ele>
        <time>2011-08-17T11:33:43.000Z</time>
      </trkpt>
      <trkpt lat="44.98798" lon="1.07105">
        <ele>87</ele>
        <time>2011-08-17T11:33:47.000Z</time>
      </trkpt>
      <trkpt lat="44.98788" lon="1.07075">
        <ele>84.599998474121</ele>
        <time>2011-08-17T11:33:52.000Z</time>
      </trkpt>
      <trkpt lat="44.98805" lon="1.07034">
        <ele>83.199996948242</ele>
        <time>2011-08-17T11:34:00.000Z</time>
      </trkpt>
      <trkpt lat="44.98836" lon="1.07019">
        <ele>79.400001525879</ele>
        <time>2011-08-17T11:34:10.000Z</time>
      </trkpt>
      <trkpt lat="44.98837" lon="1.07018">
        <ele>79.400001525879</ele>
        <time>2011-08-17T11:34:11.000Z</time>
      </trkpt>
      <trkpt lat="44.98846" lon="1.07011">
        <ele>78</ele>
        <time>2011-08-17T11:34:17.000Z</time>
      </trkpt>
      <trkpt lat="44.98875" lon="1.07008">
        <ele>78</ele>
        <time>2011-08-17T11:34:22.000Z</time>
      </trkpt>
      <trkpt lat="44.9889" lon="1.06988">
        <ele>77.400001525879</ele>
        <time>2011-08-17T11:34:27.000Z</time>
      </trkpt>
      <trkpt lat="44.989" lon="1.06967">
        <ele>75</ele>
        <time>2011-08-17T11:34:31.000Z</time>
      </trkpt>
      <trkpt lat="44.9891" lon="1.06907">
        <ele>72.599998474121</ele>
        <time>2011-08-17T11:34:38.000Z</time>
      </trkpt>
      <trkpt lat="44.98917" lon="1.06868">
        <ele>72.199996948242</ele>
        <time>2011-08-17T11:34:42.000Z</time>
      </trkpt>
      <trkpt lat="44.98921" lon="1.06825">
        <ele>72.199996948242</ele>
        <time>2011-08-17T11:34:47.000Z</time>
      </trkpt>
      <trkpt lat="44.98925" lon="1.06793">
        <ele>72.199996948242</ele>
        <time>2011-08-17T11:34:52.000Z</time>
      </trkpt>
      <trkpt lat="44.98931" lon="1.06774">
        <ele>72.599998474121</ele>
        <time>2011-08-17T11:34:55.000Z</time>
      </trkpt>
      <trkpt lat="44.98947" lon="1.0673">
        <ele>74</ele>
        <time>2011-08-17T11:35:02.000Z</time>
      </trkpt>
      <trkpt lat="44.98985" lon="1.06603">
        <ele>73.599998474121</ele>
        <time>2011-08-17T11:35:19.000Z</time>
      </trkpt>
      <trkpt lat="44.99017" lon="1.065">
        <ele>72.599998474121</ele>
        <time>2011-08-17T11:35:32.000Z</time>
      </trkpt>
      <trkpt lat="44.99046" lon="1.06374">
        <ele>72.199996948242</ele>
        <time>2011-08-17T11:35:47.000Z</time>
      </trkpt>
      <trkpt lat="44.99062" lon="1.06292">
        <ele>73</ele>
        <time>2011-08-17T11:35:57.000Z</time>
      </trkpt>
      <trkpt lat="44.99063" lon="1.0619">
        <ele>75.400001525879</ele>
        <time>2011-08-17T11:36:12.000Z</time>
      </trkpt>
      <trkpt lat="44.99064" lon="1.06181">
        <ele>76</ele>
        <time>2011-08-17T11:36:14.000Z</time>
      </trkpt>
      <trkpt lat="44.99081" lon="1.06171">
        <ele>76.400001525879</ele>
        <time>2011-08-17T11:36:20.000Z</time>
      </trkpt>
      <trkpt lat="44.99143" lon="1.06171">
        <ele>78</ele>
        <time>2011-08-17T11:36:33.000Z</time>
      </trkpt>
      <trkpt lat="44.99204" lon="1.06172">
        <ele>77.400001525879</ele>
        <time>2011-08-17T11:36:48.000Z</time>
      </trkpt>
      <trkpt lat="44.9929" lon="1.06173">
        <ele>75.400001525879</ele>
        <time>2011-08-17T11:37:01.000Z</time>
      </trkpt>
      <trkpt lat="44.99325" lon="1.06174">
        <ele>75</ele>
        <time>2011-08-17T11:37:06.000Z</time>
      </trkpt>
      <trkpt lat="44.99368" lon="1.06226">
        <ele>74.599998474121</ele>
        <time>2011-08-17T11:37:15.000Z</time>
      </trkpt>
      <trkpt lat="44.99371" lon="1.06242">
        <ele>74.599998474121</ele>
        <time>2011-08-17T11:37:17.000Z</time>
      </trkpt>
      <trkpt lat="44.99374" lon="1.06282">
        <ele>74.599998474121</ele>
        <time>2011-08-17T11:37:22.000Z</time>
      </trkpt>
      <trkpt lat="44.99372" lon="1.06314">
        <ele>74.599998474121</ele>
        <time>2011-08-17T11:37:26.000Z</time>
      </trkpt>
      <trkpt lat="44.99364" lon="1.06345">
        <ele>75.400001525879</ele>
        <time>2011-08-17T11:37:30.000Z</time>
      </trkpt>
      <trkpt lat="44.99322" lon="1.0645">
        <ele>75</ele>
        <time>2011-08-17T11:37:46.000Z</time>
      </trkpt>
      <trkpt lat="44.99316" lon="1.0647">
        <ele>75.400001525879</ele>
        <time>2011-08-17T11:37:53.000Z</time>
      </trkpt>
      <trkpt lat="44.99347" lon="1.06492">
        <ele>76.400001525879</ele>
        <time>2011-08-17T11:38:03.000Z</time>
      </trkpt>
      <trkpt lat="44.99363" lon="1.06504">
        <ele>77.400001525879</ele>
        <time>2011-08-17T11:38:08.000Z</time>
      </trkpt>
      <trkpt lat="44.99352" lon="1.06558">
        <ele>79.800003051758</ele>
        <time>2011-08-17T11:38:19.000Z</time>
      </trkpt>
      <trkpt lat="44.99339" lon="1.066">
        <ele>83.199996948242</ele>
        <time>2011-08-17T11:38:27.000Z</time>
      </trkpt>
      <trkpt lat="44.99339" lon="1.06605">
        <ele>83.199996948242</ele>
        <time>2011-08-17T11:38:28.000Z</time>
      </trkpt>
      <trkpt lat="44.99338" lon="1.06616">
        <ele>84.199996948242</ele>
        <time>2011-08-17T11:38:30.000Z</time>
      </trkpt>
      <trkpt lat="44.99348" lon="1.06639">
        <ele>84.599998474121</ele>
        <time>2011-08-17T11:38:35.000Z</time>
      </trkpt>
      <trkpt lat="44.99387" lon="1.06704">
        <ele>87</ele>
        <time>2011-08-17T11:38:51.000Z</time>
      </trkpt>
      <trkpt lat="44.99431" lon="1.06759">
        <ele>89</ele>
        <time>2011-08-17T11:39:06.000Z</time>
      </trkpt>
      <trkpt lat="44.99469" lon="1.06799">
        <ele>91.800003051758</ele>
        <time>2011-08-17T11:39:19.000Z</time>
      </trkpt>
      <trkpt lat="44.99484" lon="1.06819">
        <ele>93.199996948242</ele>
        <time>2011-08-17T11:39:25.000Z</time>
      </trkpt>
      <trkpt lat="44.99481" lon="1.06843">
        <ele>93.199996948242</ele>
        <time>2011-08-17T11:39:30.000Z</time>
      </trkpt>
      <trkpt lat="44.99463" lon="1.06902">
        <ele>93.199996948242</ele>
        <time>2011-08-17T11:39:44.000Z</time>
      </trkpt>
      <trkpt lat="44.99453" lon="1.06952">
        <ele>91.800003051758</ele>
        <time>2011-08-17T11:39:56.000Z</time>
      </trkpt>
      <trkpt lat="44.99455" lon="1.06972">
        <ele>90.800003051758</ele>
        <time>2011-08-17T11:40:01.000Z</time>
      </trkpt>
      <trkpt lat="44.99467" lon="1.06991">
        <ele>88.400001525879</ele>
        <time>2011-08-17T11:40:05.000Z</time>
      </trkpt>
      <trkpt lat="44.9948" lon="1.07007">
        <ele>87</ele>
        <time>2011-08-17T11:40:08.000Z</time>
      </trkpt>
      <trkpt lat="44.99487" lon="1.0701">
        <ele>86</ele>
        <time>2011-08-17T11:40:09.000Z</time>
      </trkpt>
      <trkpt lat="44.99501" lon="1.07019">
        <ele>85.199996948242</ele>
        <time>2011-08-17T11:40:11.000Z</time>
      </trkpt>
      <trkpt lat="44.99538" lon="1.07035">
        <ele>84.599998474121</ele>
        <time>2011-08-17T11:40:16.000Z</time>
      </trkpt>
      <trkpt lat="44.99575" lon="1.07045">
        <ele>82.800003051758</ele>
        <time>2011-08-17T11:40:22.000Z</time>
      </trkpt>
      <trkpt lat="44.99611" lon="1.07048">
        <ele>79.400001525879</ele>
        <time>2011-08-17T11:40:30.000Z</time>
      </trkpt>
      <trkpt lat="44.99647" lon="1.07048">
        <ele>77</ele>
        <time>2011-08-17T11:40:36.000Z</time>
      </trkpt>
      <trkpt lat="44.99665" lon="1.0705">
        <ele>76</ele>
        <time>2011-08-17T11:40:40.000Z</time>
      </trkpt>
      <trkpt lat="44.99672" lon="1.07054">
        <ele>75.400001525879</ele>
        <time>2011-08-17T11:40:42.000Z</time>
      </trkpt>
      <trkpt lat="44.99689" lon="1.07057">
        <ele>75.400001525879</ele>
        <time>2011-08-17T11:40:46.000Z</time>
      </trkpt>
      <trkpt lat="44.99713" lon="1.0706">
        <ele>75</ele>
        <time>2011-08-17T11:40:52.000Z</time>
      </trkpt>
      <trkpt lat="44.99715" lon="1.07085">
        <ele>74.599998474121</ele>
        <time>2011-08-17T11:40:57.000Z</time>
      </trkpt>
      <trkpt lat="44.99714" lon="1.07114">
        <ele>73.599998474121</ele>
        <time>2011-08-17T11:41:01.000Z</time>
      </trkpt>
      <trkpt lat="44.99725" lon="1.07144">
        <ele>73</ele>
        <time>2011-08-17T11:41:07.000Z</time>
      </trkpt>
      <trkpt lat="44.99751" lon="1.07153">
        <ele>73</ele>
        <time>2011-08-17T11:41:13.000Z</time>
      </trkpt>
      <trkpt lat="44.99765" lon="1.07179">
        <ele>72.599998474121</ele>
        <time>2011-08-17T11:41:18.000Z</time>
      </trkpt>
      <trkpt lat="44.99769" lon="1.072">
        <ele>72.199996948242</ele>
        <time>2011-08-17T11:41:21.000Z</time>
      </trkpt>
      <trkpt lat="44.99795" lon="1.07225">
        <ele>72.199996948242</ele>
        <time>2011-08-17T11:41:29.000Z</time>
      </trkpt>
      <trkpt lat="44.99815" lon="1.07233">
        <ele>72.199996948242</ele>
        <time>2011-08-17T11:41:34.000Z</time>
      </trkpt>
      <trkpt lat="44.9984" lon="1.07234">
        <ele>72.599998474121</ele>
        <time>2011-08-17T11:41:40.000Z</time>
      </trkpt>
      <trkpt lat="44.99887" lon="1.07235">
        <ele>72.199996948242</ele>
        <time>2011-08-17T11:41:51.000Z</time>
      </trkpt>
      <trkpt lat="44.99942" lon="1.07258">
        <ele>72.599998474121</ele>
        <time>2011-08-17T11:42:05.000Z</time>
      </trkpt>
      <trkpt lat="44.99995" lon="1.07276">
        <ele>72.199996948242</ele>
        <time>2011-08-17T11:42:19.000Z</time>
      </trkpt>
      <trkpt lat="45.00045" lon="1.07297">
        <ele>72.599998474121</ele>
        <time>2011-08-17T11:42:33.000Z</time>
      </trkpt>
      <trkpt lat="45.00078" lon="1.07312">
        <ele>72.199996948242</ele>
        <time>2011-08-17T11:42:45.000Z</time>
      </trkpt>
      <trkpt lat="45.0012" lon="1.0733">
        <ele>72.599998474121</ele>
        <time>2011-08-17T11:42:58.000Z</time>
      </trkpt>
      <trkpt lat="45.00147" lon="1.0734">
        <ele>72.599998474121</ele>
        <time>2011-08-17T11:43:08.000Z</time>
      </trkpt>
      <trkpt lat="45.00153" lon="1.07314">
        <ele>72.199996948242</ele>
        <time>2011-08-17T11:43:17.000Z</time>
      </trkpt>
      <trkpt lat="45.00154" lon="1.07262">
        <ele>72.199996948242</ele>
        <time>2011-08-17T11:43:29.000Z</time>
      </trkpt>
      <trkpt lat="45.00154" lon="1.07244">
        <ele>72.199996948242</ele>
        <time>2011-08-17T11:43:35.000Z</time>
      </trkpt>
      <trkpt lat="45.00154" lon="1.07235">
        <ele>72.199996948242</ele>
        <time>2011-08-17T11:43:38.000Z</time>
      </trkpt>
      <trkpt lat="45.0016" lon="1.07201">
        <ele>73</ele>
        <time>2011-08-17T11:43:49.000Z</time>
      </trkpt>
      <trkpt lat="45.00174" lon="1.07154">
        <ele>74</ele>
        <time>2011-08-17T11:44:01.000Z</time>
      </trkpt>
      <trkpt lat="45.00175" lon="1.07152">
        <ele>74</ele>
        <time>2011-08-17T11:44:02.000Z</time>
      </trkpt>
      <trkpt lat="45.00176" lon="1.07161">
        <ele>73.599998474121</ele>
        <time>2011-08-17T11:44:11.000Z</time>
      </trkpt>
      <trkpt lat="45.00178" lon="1.07162">
        <ele>75</ele>
        <time>2011-08-17T11:44:21.000Z</time>
      </trkpt>
      <trkpt lat="45.00178" lon="1.07162">
        <ele>74.599998474121</ele>
        <time>2011-08-17T11:45:00.000Z</time>
      </trkpt>
      <trkpt lat="45.00179" lon="1.07161">
        <ele>74</ele>
        <time>2011-08-17T11:45:29.000Z</time>
      </trkpt>
      <trkpt lat="45.00182" lon="1.07162">
        <ele>74</ele>
        <time>2011-08-17T11:45:33.000Z</time>
      </trkpt>
      <trkpt lat="45.00192" lon="1.0717">
        <ele>74</ele>
        <time>2011-08-17T11:45:49.000Z</time>
      </trkpt>
      <trkpt lat="45.00191" lon="1.0717">
        <ele>74</ele>
        <time>2011-08-17T11:46:01.000Z</time>
      </trkpt>
      <trkpt lat="45.00189" lon="1.07167">
        <ele>74.599998474121</ele>
        <time>2011-08-17T11:46:17.000Z</time>
      </trkpt>
      <trkpt lat="45.00187" lon="1.07144">
        <ele>75</ele>
        <time>2011-08-17T11:46:34.000Z</time>
      </trkpt>
      <trkpt lat="45.00193" lon="1.07138">
        <ele>75.400001525879</ele>
        <time>2011-08-17T11:46:46.000Z</time>
      </trkpt>
      <trkpt lat="45.00166" lon="1.07136">
        <ele>75.400001525879</ele>
        <time>2011-08-17T11:47:04.000Z</time>
      </trkpt>
      <trkpt lat="45.00163" lon="1.07128">
        <ele>75.400001525879</ele>
        <time>2011-08-17T11:47:23.000Z</time>
      </trkpt>
      <trkpt lat="45.00161" lon="1.07125">
        <ele>75.400001525879</ele>
        <time>2011-08-17T11:47:33.000Z</time>
      </trkpt>
    </trkseg>
  </trk>
</gpx>